<?xml version="1.0" encoding="UTF-8" standalone="no" ?>
<gpx xmlns="http://www.topografix.com/GPX/1/1" xmlns:xsi="http://www.w3.org/2001/XMLSchema-instance" xsi:schemaLocation="http://www.topografix.com/GPX/1/1 http://www.topografix.com/GPX/1/1/gpx.xsd" version="1.1" creator="VisuGPX - https://www.visugpx.com">
  <metadata>
    <name>Randonnées biertoises : pique rouge de Bassiès </name>
    <desc><![CDATA[9 août 2023 à 07:41:45

]]></desc>
  </metadata>
  <trk>
    <name><![CDATA[9 août 2023 à 07:41:45]]></name>
    <cmt><![CDATA[9 août 2023 à 07:41:45]]></cmt>
    <trkseg>
      <trkpt lat="42.78295" lon="1.38629">
        <ele>1362</ele>
        <time>2023-08-09T05:41:45Z</time>
      </trkpt>
      <trkpt lat="42.78292" lon="1.38622">
        <ele>1399</ele>
        <time>2023-08-09T05:41:59Z</time>
      </trkpt>
      <trkpt lat="42.78299" lon="1.38624">
        <ele>1399</ele>
        <time>2023-08-09T05:42:07Z</time>
      </trkpt>
      <trkpt lat="42.78304" lon="1.3863">
        <ele>1400</ele>
        <time>2023-08-09T05:42:12Z</time>
      </trkpt>
      <trkpt lat="42.78308" lon="1.38639">
        <ele>1401</ele>
        <time>2023-08-09T05:43:19Z</time>
      </trkpt>
      <trkpt lat="42.78307" lon="1.38645">
        <ele>1401</ele>
        <time>2023-08-09T05:43:23Z</time>
      </trkpt>
      <trkpt lat="42.78309" lon="1.3865">
        <ele>1402</ele>
        <time>2023-08-09T05:43:27Z</time>
      </trkpt>
      <trkpt lat="42.78311" lon="1.38657">
        <ele>1402</ele>
        <time>2023-08-09T05:43:33Z</time>
      </trkpt>
      <trkpt lat="42.78313" lon="1.38662">
        <ele>1402</ele>
        <time>2023-08-09T05:43:37Z</time>
      </trkpt>
      <trkpt lat="42.78318" lon="1.38666">
        <ele>1402</ele>
        <time>2023-08-09T05:44:12Z</time>
      </trkpt>
      <trkpt lat="42.78317" lon="1.38667">
        <ele>1402</ele>
        <time>2023-08-09T05:45:58Z</time>
      </trkpt>
      <trkpt lat="42.78321" lon="1.38672">
        <ele>1402</ele>
        <time>2023-08-09T05:46:19Z</time>
      </trkpt>
      <trkpt lat="42.78317" lon="1.38678">
        <ele>1403</ele>
        <time>2023-08-09T05:47:06Z</time>
      </trkpt>
      <trkpt lat="42.7832" lon="1.38676">
        <ele>1403</ele>
        <time>2023-08-09T05:49:12Z</time>
      </trkpt>
      <trkpt lat="42.78313" lon="1.38677">
        <ele>1403</ele>
        <time>2023-08-09T05:49:23Z</time>
      </trkpt>
      <trkpt lat="42.78315" lon="1.38688">
        <ele>1405</ele>
        <time>2023-08-09T05:49:50Z</time>
      </trkpt>
      <trkpt lat="42.78317" lon="1.38698">
        <ele>1405</ele>
        <time>2023-08-09T05:49:59Z</time>
      </trkpt>
      <trkpt lat="42.78315" lon="1.38706">
        <ele>1406</ele>
        <time>2023-08-09T05:50:07Z</time>
      </trkpt>
      <trkpt lat="42.78312" lon="1.38714">
        <ele>1408</ele>
        <time>2023-08-09T05:50:19Z</time>
      </trkpt>
      <trkpt lat="42.78311" lon="1.38746">
        <ele>1411</ele>
        <time>2023-08-09T05:50:45Z</time>
      </trkpt>
      <trkpt lat="42.78302" lon="1.38789">
        <ele>1415</ele>
        <time>2023-08-09T05:51:15Z</time>
      </trkpt>
      <trkpt lat="42.78301" lon="1.38796">
        <ele>1416</ele>
        <time>2023-08-09T05:51:20Z</time>
      </trkpt>
      <trkpt lat="42.78297" lon="1.38807">
        <ele>1417</ele>
        <time>2023-08-09T05:51:29Z</time>
      </trkpt>
      <trkpt lat="42.78288" lon="1.38818">
        <ele>1419</ele>
        <time>2023-08-09T05:51:41Z</time>
      </trkpt>
      <trkpt lat="42.78283" lon="1.38822">
        <ele>1419</ele>
        <time>2023-08-09T05:51:45Z</time>
      </trkpt>
      <trkpt lat="42.78279" lon="1.38824">
        <ele>1420</ele>
        <time>2023-08-09T05:51:48Z</time>
      </trkpt>
      <trkpt lat="42.78271" lon="1.3883">
        <ele>1421</ele>
        <time>2023-08-09T05:51:56Z</time>
      </trkpt>
      <trkpt lat="42.78266" lon="1.38831">
        <ele>1421</ele>
        <time>2023-08-09T05:51:59Z</time>
      </trkpt>
      <trkpt lat="42.7826" lon="1.38835">
        <ele>1422</ele>
        <time>2023-08-09T05:52:03Z</time>
      </trkpt>
      <trkpt lat="42.78251" lon="1.38835">
        <ele>1423</ele>
        <time>2023-08-09T05:52:11Z</time>
      </trkpt>
      <trkpt lat="42.78247" lon="1.38837">
        <ele>1423</ele>
        <time>2023-08-09T05:52:16Z</time>
      </trkpt>
      <trkpt lat="42.78244" lon="1.38841">
        <ele>1424</ele>
        <time>2023-08-09T05:52:20Z</time>
      </trkpt>
      <trkpt lat="42.78229" lon="1.38842">
        <ele>1425</ele>
        <time>2023-08-09T05:52:40Z</time>
      </trkpt>
      <trkpt lat="42.78225" lon="1.38846">
        <ele>1426</ele>
        <time>2023-08-09T05:52:44Z</time>
      </trkpt>
      <trkpt lat="42.78215" lon="1.38861">
        <ele>1427</ele>
        <time>2023-08-09T05:53:00Z</time>
      </trkpt>
      <trkpt lat="42.78214" lon="1.38867">
        <ele>1427</ele>
        <time>2023-08-09T05:53:04Z</time>
      </trkpt>
      <trkpt lat="42.78208" lon="1.38877">
        <ele>1428</ele>
        <time>2023-08-09T05:53:12Z</time>
      </trkpt>
      <trkpt lat="42.78207" lon="1.38887">
        <ele>1429</ele>
        <time>2023-08-09T05:53:19Z</time>
      </trkpt>
      <trkpt lat="42.78203" lon="1.3889">
        <ele>1429</ele>
        <time>2023-08-09T05:53:23Z</time>
      </trkpt>
      <trkpt lat="42.78199" lon="1.38892">
        <ele>1429</ele>
        <time>2023-08-09T05:53:26Z</time>
      </trkpt>
      <trkpt lat="42.78191" lon="1.38897">
        <ele>1430</ele>
        <time>2023-08-09T05:53:33Z</time>
      </trkpt>
      <trkpt lat="42.78187" lon="1.38902">
        <ele>1430</ele>
        <time>2023-08-09T05:53:40Z</time>
      </trkpt>
      <trkpt lat="42.78187" lon="1.38909">
        <ele>1431</ele>
        <time>2023-08-09T05:53:44Z</time>
      </trkpt>
      <trkpt lat="42.78175" lon="1.38919">
        <ele>1432</ele>
        <time>2023-08-09T05:53:57Z</time>
      </trkpt>
      <trkpt lat="42.78172" lon="1.38924">
        <ele>1433</ele>
        <time>2023-08-09T05:54:01Z</time>
      </trkpt>
      <trkpt lat="42.78167" lon="1.38926">
        <ele>1433</ele>
        <time>2023-08-09T05:54:05Z</time>
      </trkpt>
      <trkpt lat="42.78152" lon="1.3894">
        <ele>1435</ele>
        <time>2023-08-09T05:54:21Z</time>
      </trkpt>
      <trkpt lat="42.78147" lon="1.38942">
        <ele>1435</ele>
        <time>2023-08-09T05:54:25Z</time>
      </trkpt>
      <trkpt lat="42.78135" lon="1.38955">
        <ele>1437</ele>
        <time>2023-08-09T05:54:38Z</time>
      </trkpt>
      <trkpt lat="42.78131" lon="1.38959">
        <ele>1438</ele>
        <time>2023-08-09T05:54:42Z</time>
      </trkpt>
      <trkpt lat="42.78122" lon="1.38966">
        <ele>1439</ele>
        <time>2023-08-09T05:54:50Z</time>
      </trkpt>
      <trkpt lat="42.78119" lon="1.38969">
        <ele>1439</ele>
        <time>2023-08-09T05:54:54Z</time>
      </trkpt>
      <trkpt lat="42.78114" lon="1.38974">
        <ele>1439</ele>
        <time>2023-08-09T05:54:59Z</time>
      </trkpt>
      <trkpt lat="42.78111" lon="1.38977">
        <ele>1440</ele>
        <time>2023-08-09T05:55:03Z</time>
      </trkpt>
      <trkpt lat="42.78107" lon="1.38981">
        <ele>1440</ele>
        <time>2023-08-09T05:55:07Z</time>
      </trkpt>
      <trkpt lat="42.78103" lon="1.38988">
        <ele>1441</ele>
        <time>2023-08-09T05:55:15Z</time>
      </trkpt>
      <trkpt lat="42.781" lon="1.38995">
        <ele>1442</ele>
        <time>2023-08-09T05:55:22Z</time>
      </trkpt>
      <trkpt lat="42.78096" lon="1.38996">
        <ele>1442</ele>
        <time>2023-08-09T05:55:27Z</time>
      </trkpt>
      <trkpt lat="42.78094" lon="1.39002">
        <ele>1444</ele>
        <time>2023-08-09T05:55:35Z</time>
      </trkpt>
      <trkpt lat="42.78082" lon="1.3901">
        <ele>1448</ele>
        <time>2023-08-09T05:55:55Z</time>
      </trkpt>
      <trkpt lat="42.78081" lon="1.39019">
        <ele>1450</ele>
        <time>2023-08-09T05:56:05Z</time>
      </trkpt>
      <trkpt lat="42.78075" lon="1.3902">
        <ele>1452</ele>
        <time>2023-08-09T05:56:15Z</time>
      </trkpt>
      <trkpt lat="42.78072" lon="1.39023">
        <ele>1453</ele>
        <time>2023-08-09T05:56:21Z</time>
      </trkpt>
      <trkpt lat="42.78065" lon="1.3903">
        <ele>1454</ele>
        <time>2023-08-09T05:56:31Z</time>
      </trkpt>
      <trkpt lat="42.78061" lon="1.39033">
        <ele>1455</ele>
        <time>2023-08-09T05:56:38Z</time>
      </trkpt>
      <trkpt lat="42.7805" lon="1.39043">
        <ele>1457</ele>
        <time>2023-08-09T05:57:08Z</time>
      </trkpt>
      <trkpt lat="42.78048" lon="1.39038">
        <ele>1456</ele>
        <time>2023-08-09T05:57:28Z</time>
      </trkpt>
      <trkpt lat="42.78048" lon="1.39027">
        <ele>1455</ele>
        <time>2023-08-09T05:57:38Z</time>
      </trkpt>
      <trkpt lat="42.78044" lon="1.39022">
        <ele>1456</ele>
        <time>2023-08-09T05:57:44Z</time>
      </trkpt>
      <trkpt lat="42.7804" lon="1.39024">
        <ele>1457</ele>
        <time>2023-08-09T05:57:49Z</time>
      </trkpt>
      <trkpt lat="42.78035" lon="1.39023">
        <ele>1457</ele>
        <time>2023-08-09T05:57:53Z</time>
      </trkpt>
      <trkpt lat="42.78031" lon="1.39025">
        <ele>1457</ele>
        <time>2023-08-09T05:57:57Z</time>
      </trkpt>
      <trkpt lat="42.78026" lon="1.39026">
        <ele>1457</ele>
        <time>2023-08-09T05:58:01Z</time>
      </trkpt>
      <trkpt lat="42.78022" lon="1.39028">
        <ele>1457</ele>
        <time>2023-08-09T05:58:05Z</time>
      </trkpt>
      <trkpt lat="42.78018" lon="1.39033">
        <ele>1457</ele>
        <time>2023-08-09T05:58:12Z</time>
      </trkpt>
      <trkpt lat="42.78014" lon="1.39043">
        <ele>1459</ele>
        <time>2023-08-09T05:58:24Z</time>
      </trkpt>
      <trkpt lat="42.78009" lon="1.3905">
        <ele>1461</ele>
        <time>2023-08-09T05:58:34Z</time>
      </trkpt>
      <trkpt lat="42.77994" lon="1.3906">
        <ele>1465</ele>
        <time>2023-08-09T05:58:56Z</time>
      </trkpt>
      <trkpt lat="42.77987" lon="1.39062">
        <ele>1466</ele>
        <time>2023-08-09T05:59:06Z</time>
      </trkpt>
      <trkpt lat="42.77982" lon="1.39068">
        <ele>1468</ele>
        <time>2023-08-09T05:59:16Z</time>
      </trkpt>
      <trkpt lat="42.77978" lon="1.3907">
        <ele>1469</ele>
        <time>2023-08-09T05:59:21Z</time>
      </trkpt>
      <trkpt lat="42.77969" lon="1.39069">
        <ele>1470</ele>
        <time>2023-08-09T05:59:33Z</time>
      </trkpt>
      <trkpt lat="42.77965" lon="1.39063">
        <ele>1471</ele>
        <time>2023-08-09T05:59:43Z</time>
      </trkpt>
      <trkpt lat="42.77959" lon="1.39062">
        <ele>1474</ele>
        <time>2023-08-09T05:59:53Z</time>
      </trkpt>
      <trkpt lat="42.77953" lon="1.3905">
        <ele>1476</ele>
        <time>2023-08-09T06:00:07Z</time>
      </trkpt>
      <trkpt lat="42.77948" lon="1.39053">
        <ele>1477</ele>
        <time>2023-08-09T06:00:17Z</time>
      </trkpt>
      <trkpt lat="42.77937" lon="1.39047">
        <ele>1480</ele>
        <time>2023-08-09T06:00:37Z</time>
      </trkpt>
      <trkpt lat="42.77924" lon="1.39034">
        <ele>1483</ele>
        <time>2023-08-09T06:01:02Z</time>
      </trkpt>
      <trkpt lat="42.77922" lon="1.3903">
        <ele>1485</ele>
        <time>2023-08-09T06:01:12Z</time>
      </trkpt>
      <trkpt lat="42.77906" lon="1.39018">
        <ele>1490</ele>
        <time>2023-08-09T06:01:47Z</time>
      </trkpt>
      <trkpt lat="42.77902" lon="1.39014">
        <ele>1492</ele>
        <time>2023-08-09T06:02:03Z</time>
      </trkpt>
      <trkpt lat="42.77898" lon="1.3901">
        <ele>1494</ele>
        <time>2023-08-09T06:02:13Z</time>
      </trkpt>
      <trkpt lat="42.7789" lon="1.39011">
        <ele>1495</ele>
        <time>2023-08-09T06:02:22Z</time>
      </trkpt>
      <trkpt lat="42.77887" lon="1.39007">
        <ele>1498</ele>
        <time>2023-08-09T06:02:34Z</time>
      </trkpt>
      <trkpt lat="42.77883" lon="1.39001">
        <ele>1501</ele>
        <time>2023-08-09T06:02:50Z</time>
      </trkpt>
      <trkpt lat="42.77879" lon="1.38997">
        <ele>1502</ele>
        <time>2023-08-09T06:02:55Z</time>
      </trkpt>
      <trkpt lat="42.77876" lon="1.38991">
        <ele>1503</ele>
        <time>2023-08-09T06:03:08Z</time>
      </trkpt>
      <trkpt lat="42.77871" lon="1.38984">
        <ele>1505</ele>
        <time>2023-08-09T06:03:17Z</time>
      </trkpt>
      <trkpt lat="42.77866" lon="1.38971">
        <ele>1507</ele>
        <time>2023-08-09T06:03:35Z</time>
      </trkpt>
      <trkpt lat="42.7786" lon="1.38963">
        <ele>1509</ele>
        <time>2023-08-09T06:03:51Z</time>
      </trkpt>
      <trkpt lat="42.77844" lon="1.38941">
        <ele>1514</ele>
        <time>2023-08-09T06:04:23Z</time>
      </trkpt>
      <trkpt lat="42.77841" lon="1.38936">
        <ele>1516</ele>
        <time>2023-08-09T06:04:35Z</time>
      </trkpt>
      <trkpt lat="42.7783" lon="1.38931">
        <ele>1520</ele>
        <time>2023-08-09T06:05:03Z</time>
      </trkpt>
      <trkpt lat="42.77823" lon="1.38932">
        <ele>1521</ele>
        <time>2023-08-09T06:05:14Z</time>
      </trkpt>
      <trkpt lat="42.77805" lon="1.38929">
        <ele>1526</ele>
        <time>2023-08-09T06:05:45Z</time>
      </trkpt>
      <trkpt lat="42.77801" lon="1.38929">
        <ele>1527</ele>
        <time>2023-08-09T06:05:55Z</time>
      </trkpt>
      <trkpt lat="42.77796" lon="1.38929">
        <ele>1529</ele>
        <time>2023-08-09T06:06:05Z</time>
      </trkpt>
      <trkpt lat="42.77792" lon="1.38932">
        <ele>1531</ele>
        <time>2023-08-09T06:06:20Z</time>
      </trkpt>
      <trkpt lat="42.77788" lon="1.38935">
        <ele>1533</ele>
        <time>2023-08-09T06:06:31Z</time>
      </trkpt>
      <trkpt lat="42.77781" lon="1.38942">
        <ele>1536</ele>
        <time>2023-08-09T06:06:51Z</time>
      </trkpt>
      <trkpt lat="42.77773" lon="1.38948">
        <ele>1540</ele>
        <time>2023-08-09T06:07:17Z</time>
      </trkpt>
      <trkpt lat="42.77769" lon="1.38952">
        <ele>1545</ele>
        <time>2023-08-09T06:07:43Z</time>
      </trkpt>
      <trkpt lat="42.77769" lon="1.38958">
        <ele>1547</ele>
        <time>2023-08-09T06:07:53Z</time>
      </trkpt>
      <trkpt lat="42.77763" lon="1.38972">
        <ele>1550</ele>
        <time>2023-08-09T06:08:06Z</time>
      </trkpt>
      <trkpt lat="42.77762" lon="1.3898">
        <ele>1551</ele>
        <time>2023-08-09T06:08:15Z</time>
      </trkpt>
      <trkpt lat="42.77758" lon="1.38986">
        <ele>1552</ele>
        <time>2023-08-09T06:08:25Z</time>
      </trkpt>
      <trkpt lat="42.77758" lon="1.39005">
        <ele>1555</ele>
        <time>2023-08-09T06:08:46Z</time>
      </trkpt>
      <trkpt lat="42.77759" lon="1.39015">
        <ele>1557</ele>
        <time>2023-08-09T06:08:57Z</time>
      </trkpt>
      <trkpt lat="42.77761" lon="1.3902">
        <ele>1558</ele>
        <time>2023-08-09T06:09:01Z</time>
      </trkpt>
      <trkpt lat="42.7776" lon="1.39026">
        <ele>1558</ele>
        <time>2023-08-09T06:09:05Z</time>
      </trkpt>
      <trkpt lat="42.77761" lon="1.39032">
        <ele>1559</ele>
        <time>2023-08-09T06:09:10Z</time>
      </trkpt>
      <trkpt lat="42.7776" lon="1.39039">
        <ele>1560</ele>
        <time>2023-08-09T06:09:17Z</time>
      </trkpt>
      <trkpt lat="42.77761" lon="1.39045">
        <ele>1561</ele>
        <time>2023-08-09T06:09:23Z</time>
      </trkpt>
      <trkpt lat="42.77758" lon="1.39057">
        <ele>1561</ele>
        <time>2023-08-09T06:09:32Z</time>
      </trkpt>
      <trkpt lat="42.77758" lon="1.39065">
        <ele>1562</ele>
        <time>2023-08-09T06:09:43Z</time>
      </trkpt>
      <trkpt lat="42.77759" lon="1.39073">
        <ele>1564</ele>
        <time>2023-08-09T06:09:53Z</time>
      </trkpt>
      <trkpt lat="42.77754" lon="1.39108">
        <ele>1569</ele>
        <time>2023-08-09T06:10:27Z</time>
      </trkpt>
      <trkpt lat="42.77752" lon="1.39113">
        <ele>1569</ele>
        <time>2023-08-09T06:10:31Z</time>
      </trkpt>
      <trkpt lat="42.77747" lon="1.39129">
        <ele>1571</ele>
        <time>2023-08-09T06:10:46Z</time>
      </trkpt>
      <trkpt lat="42.7774" lon="1.39138">
        <ele>1573</ele>
        <time>2023-08-09T06:10:57Z</time>
      </trkpt>
      <trkpt lat="42.77736" lon="1.3914">
        <ele>1573</ele>
        <time>2023-08-09T06:11:00Z</time>
      </trkpt>
      <trkpt lat="42.77732" lon="1.39147">
        <ele>1574</ele>
        <time>2023-08-09T06:11:08Z</time>
      </trkpt>
      <trkpt lat="42.77728" lon="1.3915">
        <ele>1575</ele>
        <time>2023-08-09T06:11:14Z</time>
      </trkpt>
      <trkpt lat="42.77712" lon="1.3918">
        <ele>1579</ele>
        <time>2023-08-09T06:11:44Z</time>
      </trkpt>
      <trkpt lat="42.77691" lon="1.39197">
        <ele>1581</ele>
        <time>2023-08-09T06:12:12Z</time>
      </trkpt>
      <trkpt lat="42.77687" lon="1.39202">
        <ele>1581</ele>
        <time>2023-08-09T06:12:38Z</time>
      </trkpt>
      <trkpt lat="42.77672" lon="1.39212">
        <ele>1583</ele>
        <time>2023-08-09T06:12:58Z</time>
      </trkpt>
      <trkpt lat="42.77665" lon="1.39212">
        <ele>1583</ele>
        <time>2023-08-09T06:13:06Z</time>
      </trkpt>
      <trkpt lat="42.77648" lon="1.39217">
        <ele>1585</ele>
        <time>2023-08-09T06:13:28Z</time>
      </trkpt>
      <trkpt lat="42.77641" lon="1.39221">
        <ele>1585</ele>
        <time>2023-08-09T06:13:38Z</time>
      </trkpt>
      <trkpt lat="42.77637" lon="1.39225">
        <ele>1585</ele>
        <time>2023-08-09T06:13:45Z</time>
      </trkpt>
      <trkpt lat="42.77631" lon="1.39225">
        <ele>1586</ele>
        <time>2023-08-09T06:13:55Z</time>
      </trkpt>
      <trkpt lat="42.77626" lon="1.39228">
        <ele>1587</ele>
        <time>2023-08-09T06:14:06Z</time>
      </trkpt>
      <trkpt lat="42.77621" lon="1.3923">
        <ele>1588</ele>
        <time>2023-08-09T06:14:11Z</time>
      </trkpt>
      <trkpt lat="42.77617" lon="1.3923">
        <ele>1588</ele>
        <time>2023-08-09T06:14:15Z</time>
      </trkpt>
      <trkpt lat="42.77614" lon="1.39225">
        <ele>1588</ele>
        <time>2023-08-09T06:14:19Z</time>
      </trkpt>
      <trkpt lat="42.77611" lon="1.39219">
        <ele>1589</ele>
        <time>2023-08-09T06:14:31Z</time>
      </trkpt>
      <trkpt lat="42.77603" lon="1.39202">
        <ele>1592</ele>
        <time>2023-08-09T06:14:51Z</time>
      </trkpt>
      <trkpt lat="42.77601" lon="1.39198">
        <ele>1593</ele>
        <time>2023-08-09T06:15:02Z</time>
      </trkpt>
      <trkpt lat="42.77594" lon="1.39192">
        <ele>1595</ele>
        <time>2023-08-09T06:15:13Z</time>
      </trkpt>
      <trkpt lat="42.7759" lon="1.3919">
        <ele>1595</ele>
        <time>2023-08-09T06:15:17Z</time>
      </trkpt>
      <trkpt lat="42.77583" lon="1.39185">
        <ele>1596</ele>
        <time>2023-08-09T06:15:25Z</time>
      </trkpt>
      <trkpt lat="42.77578" lon="1.39185">
        <ele>1595</ele>
        <time>2023-08-09T06:15:30Z</time>
      </trkpt>
      <trkpt lat="42.77574" lon="1.39182">
        <ele>1595</ele>
        <time>2023-08-09T06:15:34Z</time>
      </trkpt>
      <trkpt lat="42.77566" lon="1.39182">
        <ele>1596</ele>
        <time>2023-08-09T06:15:46Z</time>
      </trkpt>
      <trkpt lat="42.77559" lon="1.3918">
        <ele>1596</ele>
        <time>2023-08-09T06:15:56Z</time>
      </trkpt>
      <trkpt lat="42.77554" lon="1.39178">
        <ele>1596</ele>
        <time>2023-08-09T06:16:06Z</time>
      </trkpt>
      <trkpt lat="42.77549" lon="1.39176">
        <ele>1596</ele>
        <time>2023-08-09T06:16:10Z</time>
      </trkpt>
      <trkpt lat="42.77548" lon="1.3917">
        <ele>1596</ele>
        <time>2023-08-09T06:16:15Z</time>
      </trkpt>
      <trkpt lat="42.77548" lon="1.39164">
        <ele>1595</ele>
        <time>2023-08-09T06:16:24Z</time>
      </trkpt>
      <trkpt lat="42.77537" lon="1.39162">
        <ele>1596</ele>
        <time>2023-08-09T06:16:36Z</time>
      </trkpt>
      <trkpt lat="42.77529" lon="1.39156">
        <ele>1596</ele>
        <time>2023-08-09T06:16:44Z</time>
      </trkpt>
      <trkpt lat="42.7753" lon="1.3915">
        <ele>1597</ele>
        <time>2023-08-09T06:16:51Z</time>
      </trkpt>
      <trkpt lat="42.77526" lon="1.39145">
        <ele>1600</ele>
        <time>2023-08-09T06:17:06Z</time>
      </trkpt>
      <trkpt lat="42.77521" lon="1.39136">
        <ele>1602</ele>
        <time>2023-08-09T06:17:16Z</time>
      </trkpt>
      <trkpt lat="42.77518" lon="1.3913">
        <ele>1604</ele>
        <time>2023-08-09T06:17:27Z</time>
      </trkpt>
      <trkpt lat="42.77518" lon="1.39121">
        <ele>1606</ele>
        <time>2023-08-09T06:17:38Z</time>
      </trkpt>
      <trkpt lat="42.77515" lon="1.39105">
        <ele>1609</ele>
        <time>2023-08-09T06:17:58Z</time>
      </trkpt>
      <trkpt lat="42.77515" lon="1.39096">
        <ele>1610</ele>
        <time>2023-08-09T06:18:09Z</time>
      </trkpt>
      <trkpt lat="42.77515" lon="1.3909">
        <ele>1611</ele>
        <time>2023-08-09T06:18:14Z</time>
      </trkpt>
      <trkpt lat="42.77512" lon="1.39084">
        <ele>1612</ele>
        <time>2023-08-09T06:18:21Z</time>
      </trkpt>
      <trkpt lat="42.7751" lon="1.39079">
        <ele>1614</ele>
        <time>2023-08-09T06:18:33Z</time>
      </trkpt>
      <trkpt lat="42.7751" lon="1.39071">
        <ele>1615</ele>
        <time>2023-08-09T06:18:43Z</time>
      </trkpt>
      <trkpt lat="42.77506" lon="1.39058">
        <ele>1618</ele>
        <time>2023-08-09T06:19:03Z</time>
      </trkpt>
      <trkpt lat="42.77502" lon="1.39054">
        <ele>1620</ele>
        <time>2023-08-09T06:19:19Z</time>
      </trkpt>
      <trkpt lat="42.77499" lon="1.39049">
        <ele>1622</ele>
        <time>2023-08-09T06:19:29Z</time>
      </trkpt>
      <trkpt lat="42.77496" lon="1.39041">
        <ele>1623</ele>
        <time>2023-08-09T06:19:41Z</time>
      </trkpt>
      <trkpt lat="42.77487" lon="1.39034">
        <ele>1626</ele>
        <time>2023-08-09T06:20:02Z</time>
      </trkpt>
      <trkpt lat="42.77484" lon="1.39027">
        <ele>1626</ele>
        <time>2023-08-09T06:20:12Z</time>
      </trkpt>
      <trkpt lat="42.77483" lon="1.39014">
        <ele>1630</ele>
        <time>2023-08-09T06:20:39Z</time>
      </trkpt>
      <trkpt lat="42.77481" lon="1.39008">
        <ele>1631</ele>
        <time>2023-08-09T06:20:50Z</time>
      </trkpt>
      <trkpt lat="42.77481" lon="1.39001">
        <ele>1632</ele>
        <time>2023-08-09T06:21:00Z</time>
      </trkpt>
      <trkpt lat="42.77478" lon="1.38984">
        <ele>1637</ele>
        <time>2023-08-09T06:21:32Z</time>
      </trkpt>
      <trkpt lat="42.77477" lon="1.38978">
        <ele>1639</ele>
        <time>2023-08-09T06:21:43Z</time>
      </trkpt>
      <trkpt lat="42.77478" lon="1.38972">
        <ele>1640</ele>
        <time>2023-08-09T06:21:54Z</time>
      </trkpt>
      <trkpt lat="42.77478" lon="1.38964">
        <ele>1642</ele>
        <time>2023-08-09T06:22:04Z</time>
      </trkpt>
      <trkpt lat="42.77479" lon="1.38957">
        <ele>1644</ele>
        <time>2023-08-09T06:22:19Z</time>
      </trkpt>
      <trkpt lat="42.77478" lon="1.38937">
        <ele>1648</ele>
        <time>2023-08-09T06:22:54Z</time>
      </trkpt>
      <trkpt lat="42.77476" lon="1.38943">
        <ele>1648</ele>
        <time>2023-08-09T06:29:46Z</time>
      </trkpt>
      <trkpt lat="42.77471" lon="1.38947">
        <ele>1650</ele>
        <time>2023-08-09T06:29:56Z</time>
      </trkpt>
      <trkpt lat="42.77464" lon="1.38956">
        <ele>1653</ele>
        <time>2023-08-09T06:30:14Z</time>
      </trkpt>
      <trkpt lat="42.7746" lon="1.38958">
        <ele>1654</ele>
        <time>2023-08-09T06:30:20Z</time>
      </trkpt>
      <trkpt lat="42.77454" lon="1.3896">
        <ele>1654</ele>
        <time>2023-08-09T06:30:27Z</time>
      </trkpt>
      <trkpt lat="42.77451" lon="1.38964">
        <ele>1654</ele>
        <time>2023-08-09T06:30:30Z</time>
      </trkpt>
      <trkpt lat="42.77447" lon="1.38962">
        <ele>1654</ele>
        <time>2023-08-09T06:30:33Z</time>
      </trkpt>
      <trkpt lat="42.77441" lon="1.38961">
        <ele>1655</ele>
        <time>2023-08-09T06:30:40Z</time>
      </trkpt>
      <trkpt lat="42.77437" lon="1.38964">
        <ele>1655</ele>
        <time>2023-08-09T06:30:45Z</time>
      </trkpt>
      <trkpt lat="42.77428" lon="1.38966">
        <ele>1656</ele>
        <time>2023-08-09T06:30:54Z</time>
      </trkpt>
      <trkpt lat="42.77424" lon="1.3897">
        <ele>1657</ele>
        <time>2023-08-09T06:30:59Z</time>
      </trkpt>
      <trkpt lat="42.77421" lon="1.38974">
        <ele>1657</ele>
        <time>2023-08-09T06:31:03Z</time>
      </trkpt>
      <trkpt lat="42.77415" lon="1.38976">
        <ele>1659</ele>
        <time>2023-08-09T06:31:10Z</time>
      </trkpt>
      <trkpt lat="42.77409" lon="1.38983">
        <ele>1660</ele>
        <time>2023-08-09T06:31:22Z</time>
      </trkpt>
      <trkpt lat="42.77402" lon="1.38999">
        <ele>1664</ele>
        <time>2023-08-09T06:31:42Z</time>
      </trkpt>
      <trkpt lat="42.77398" lon="1.39006">
        <ele>1666</ele>
        <time>2023-08-09T06:31:52Z</time>
      </trkpt>
      <trkpt lat="42.7739" lon="1.39009">
        <ele>1667</ele>
        <time>2023-08-09T06:32:03Z</time>
      </trkpt>
      <trkpt lat="42.77388" lon="1.39014">
        <ele>1667</ele>
        <time>2023-08-09T06:32:08Z</time>
      </trkpt>
      <trkpt lat="42.7738" lon="1.39021">
        <ele>1667</ele>
        <time>2023-08-09T06:32:16Z</time>
      </trkpt>
      <trkpt lat="42.77378" lon="1.39025">
        <ele>1668</ele>
        <time>2023-08-09T06:32:22Z</time>
      </trkpt>
      <trkpt lat="42.77373" lon="1.39031">
        <ele>1670</ele>
        <time>2023-08-09T06:32:34Z</time>
      </trkpt>
      <trkpt lat="42.77368" lon="1.39036">
        <ele>1671</ele>
        <time>2023-08-09T06:32:44Z</time>
      </trkpt>
      <trkpt lat="42.7736" lon="1.39046">
        <ele>1674</ele>
        <time>2023-08-09T06:33:04Z</time>
      </trkpt>
      <trkpt lat="42.77356" lon="1.39053">
        <ele>1676</ele>
        <time>2023-08-09T06:33:15Z</time>
      </trkpt>
      <trkpt lat="42.7735" lon="1.3906">
        <ele>1678</ele>
        <time>2023-08-09T06:33:26Z</time>
      </trkpt>
      <trkpt lat="42.77347" lon="1.39065">
        <ele>1679</ele>
        <time>2023-08-09T06:33:36Z</time>
      </trkpt>
      <trkpt lat="42.77341" lon="1.39067">
        <ele>1681</ele>
        <time>2023-08-09T06:33:46Z</time>
      </trkpt>
      <trkpt lat="42.77335" lon="1.39067">
        <ele>1682</ele>
        <time>2023-08-09T06:33:56Z</time>
      </trkpt>
      <trkpt lat="42.7733" lon="1.39072">
        <ele>1682</ele>
        <time>2023-08-09T06:34:06Z</time>
      </trkpt>
      <trkpt lat="42.77327" lon="1.39076">
        <ele>1685</ele>
        <time>2023-08-09T06:34:18Z</time>
      </trkpt>
      <trkpt lat="42.77325" lon="1.39081">
        <ele>1687</ele>
        <time>2023-08-09T06:34:28Z</time>
      </trkpt>
      <trkpt lat="42.77316" lon="1.39095">
        <ele>1690</ele>
        <time>2023-08-09T06:34:49Z</time>
      </trkpt>
      <trkpt lat="42.77309" lon="1.39096">
        <ele>1691</ele>
        <time>2023-08-09T06:34:59Z</time>
      </trkpt>
      <trkpt lat="42.77305" lon="1.39093">
        <ele>1693</ele>
        <time>2023-08-09T06:35:09Z</time>
      </trkpt>
      <trkpt lat="42.77291" lon="1.39094">
        <ele>1696</ele>
        <time>2023-08-09T06:35:29Z</time>
      </trkpt>
      <trkpt lat="42.77283" lon="1.39096">
        <ele>1696</ele>
        <time>2023-08-09T06:35:38Z</time>
      </trkpt>
      <trkpt lat="42.77272" lon="1.39107">
        <ele>1697</ele>
        <time>2023-08-09T06:35:50Z</time>
      </trkpt>
      <trkpt lat="42.77266" lon="1.39117">
        <ele>1697</ele>
        <time>2023-08-09T06:35:58Z</time>
      </trkpt>
      <trkpt lat="42.77263" lon="1.39123">
        <ele>1698</ele>
        <time>2023-08-09T06:36:05Z</time>
      </trkpt>
      <trkpt lat="42.77261" lon="1.39129">
        <ele>1698</ele>
        <time>2023-08-09T06:36:10Z</time>
      </trkpt>
      <trkpt lat="42.77253" lon="1.39135">
        <ele>1699</ele>
        <time>2023-08-09T06:36:22Z</time>
      </trkpt>
      <trkpt lat="42.7725" lon="1.3914">
        <ele>1699</ele>
        <time>2023-08-09T06:36:27Z</time>
      </trkpt>
      <trkpt lat="42.77244" lon="1.3915">
        <ele>1700</ele>
        <time>2023-08-09T06:36:36Z</time>
      </trkpt>
      <trkpt lat="42.77235" lon="1.39156">
        <ele>1700</ele>
        <time>2023-08-09T06:36:43Z</time>
      </trkpt>
      <trkpt lat="42.77232" lon="1.39159">
        <ele>1700</ele>
        <time>2023-08-09T06:36:47Z</time>
      </trkpt>
      <trkpt lat="42.77228" lon="1.39163">
        <ele>1700</ele>
        <time>2023-08-09T06:36:52Z</time>
      </trkpt>
      <trkpt lat="42.77226" lon="1.39168">
        <ele>1701</ele>
        <time>2023-08-09T06:36:59Z</time>
      </trkpt>
      <trkpt lat="42.77221" lon="1.3917">
        <ele>1701</ele>
        <time>2023-08-09T06:37:04Z</time>
      </trkpt>
      <trkpt lat="42.77217" lon="1.39173">
        <ele>1701</ele>
        <time>2023-08-09T06:37:08Z</time>
      </trkpt>
      <trkpt lat="42.77213" lon="1.39176">
        <ele>1701</ele>
        <time>2023-08-09T06:37:11Z</time>
      </trkpt>
      <trkpt lat="42.7721" lon="1.3918">
        <ele>1701</ele>
        <time>2023-08-09T06:37:16Z</time>
      </trkpt>
      <trkpt lat="42.77201" lon="1.39192">
        <ele>1703</ele>
        <time>2023-08-09T06:37:35Z</time>
      </trkpt>
      <trkpt lat="42.77199" lon="1.39197">
        <ele>1703</ele>
        <time>2023-08-09T06:37:39Z</time>
      </trkpt>
      <trkpt lat="42.77192" lon="1.3921">
        <ele>1703</ele>
        <time>2023-08-09T06:37:50Z</time>
      </trkpt>
      <trkpt lat="42.77191" lon="1.39216">
        <ele>1703</ele>
        <time>2023-08-09T06:37:55Z</time>
      </trkpt>
      <trkpt lat="42.77188" lon="1.39224">
        <ele>1703</ele>
        <time>2023-08-09T06:38:02Z</time>
      </trkpt>
      <trkpt lat="42.77186" lon="1.39234">
        <ele>1703</ele>
        <time>2023-08-09T06:38:09Z</time>
      </trkpt>
      <trkpt lat="42.77185" lon="1.39239">
        <ele>1704</ele>
        <time>2023-08-09T06:38:13Z</time>
      </trkpt>
      <trkpt lat="42.77184" lon="1.39245">
        <ele>1703</ele>
        <time>2023-08-09T06:38:18Z</time>
      </trkpt>
      <trkpt lat="42.77183" lon="1.39253">
        <ele>1705</ele>
        <time>2023-08-09T06:38:27Z</time>
      </trkpt>
      <trkpt lat="42.77179" lon="1.39262">
        <ele>1706</ele>
        <time>2023-08-09T06:38:39Z</time>
      </trkpt>
      <trkpt lat="42.77177" lon="1.39268">
        <ele>1705</ele>
        <time>2023-08-09T06:38:44Z</time>
      </trkpt>
      <trkpt lat="42.77173" lon="1.39277">
        <ele>1705</ele>
        <time>2023-08-09T06:38:52Z</time>
      </trkpt>
      <trkpt lat="42.77172" lon="1.39285">
        <ele>1704</ele>
        <time>2023-08-09T06:39:00Z</time>
      </trkpt>
      <trkpt lat="42.77171" lon="1.39301">
        <ele>1707</ele>
        <time>2023-08-09T06:39:20Z</time>
      </trkpt>
      <trkpt lat="42.77171" lon="1.39307">
        <ele>1709</ele>
        <time>2023-08-09T06:39:30Z</time>
      </trkpt>
      <trkpt lat="42.7717" lon="1.39314">
        <ele>1711</ele>
        <time>2023-08-09T06:39:40Z</time>
      </trkpt>
      <trkpt lat="42.7716" lon="1.39348">
        <ele>1715</ele>
        <time>2023-08-09T06:40:12Z</time>
      </trkpt>
      <trkpt lat="42.77155" lon="1.39368">
        <ele>1717</ele>
        <time>2023-08-09T06:40:32Z</time>
      </trkpt>
      <trkpt lat="42.77149" lon="1.39382">
        <ele>1718</ele>
        <time>2023-08-09T06:40:45Z</time>
      </trkpt>
      <trkpt lat="42.77144" lon="1.39404">
        <ele>1723</ele>
        <time>2023-08-09T06:41:16Z</time>
      </trkpt>
      <trkpt lat="42.77138" lon="1.39422">
        <ele>1726</ele>
        <time>2023-08-09T06:41:37Z</time>
      </trkpt>
      <trkpt lat="42.77135" lon="1.39431">
        <ele>1726</ele>
        <time>2023-08-09T06:41:45Z</time>
      </trkpt>
      <trkpt lat="42.77134" lon="1.39438">
        <ele>1726</ele>
        <time>2023-08-09T06:41:50Z</time>
      </trkpt>
      <trkpt lat="42.7713" lon="1.39446">
        <ele>1727</ele>
        <time>2023-08-09T06:41:58Z</time>
      </trkpt>
      <trkpt lat="42.77126" lon="1.39451">
        <ele>1727</ele>
        <time>2023-08-09T06:42:02Z</time>
      </trkpt>
      <trkpt lat="42.77124" lon="1.39456">
        <ele>1727</ele>
        <time>2023-08-09T06:42:06Z</time>
      </trkpt>
      <trkpt lat="42.77121" lon="1.3947">
        <ele>1730</ele>
        <time>2023-08-09T06:42:23Z</time>
      </trkpt>
      <trkpt lat="42.77119" lon="1.39476">
        <ele>1731</ele>
        <time>2023-08-09T06:42:33Z</time>
      </trkpt>
      <trkpt lat="42.77119" lon="1.39482">
        <ele>1732</ele>
        <time>2023-08-09T06:42:39Z</time>
      </trkpt>
      <trkpt lat="42.77115" lon="1.39492">
        <ele>1732</ele>
        <time>2023-08-09T06:42:51Z</time>
      </trkpt>
      <trkpt lat="42.77113" lon="1.39502">
        <ele>1734</ele>
        <time>2023-08-09T06:43:02Z</time>
      </trkpt>
      <trkpt lat="42.77108" lon="1.39513">
        <ele>1734</ele>
        <time>2023-08-09T06:43:12Z</time>
      </trkpt>
      <trkpt lat="42.77106" lon="1.3952">
        <ele>1734</ele>
        <time>2023-08-09T06:43:20Z</time>
      </trkpt>
      <trkpt lat="42.77103" lon="1.39527">
        <ele>1734</ele>
        <time>2023-08-09T06:43:27Z</time>
      </trkpt>
      <trkpt lat="42.77101" lon="1.39533">
        <ele>1733</ele>
        <time>2023-08-09T06:43:32Z</time>
      </trkpt>
      <trkpt lat="42.77099" lon="1.39539">
        <ele>1734</ele>
        <time>2023-08-09T06:43:37Z</time>
      </trkpt>
      <trkpt lat="42.77095" lon="1.39548">
        <ele>1734</ele>
        <time>2023-08-09T06:43:45Z</time>
      </trkpt>
      <trkpt lat="42.77092" lon="1.39554">
        <ele>1735</ele>
        <time>2023-08-09T06:43:51Z</time>
      </trkpt>
      <trkpt lat="42.77088" lon="1.39561">
        <ele>1735</ele>
        <time>2023-08-09T06:43:58Z</time>
      </trkpt>
      <trkpt lat="42.77084" lon="1.39569">
        <ele>1735</ele>
        <time>2023-08-09T06:44:06Z</time>
      </trkpt>
      <trkpt lat="42.77077" lon="1.39577">
        <ele>1737</ele>
        <time>2023-08-09T06:44:18Z</time>
      </trkpt>
      <trkpt lat="42.77074" lon="1.39586">
        <ele>1738</ele>
        <time>2023-08-09T06:44:26Z</time>
      </trkpt>
      <trkpt lat="42.77069" lon="1.39594">
        <ele>1737</ele>
        <time>2023-08-09T06:44:34Z</time>
      </trkpt>
      <trkpt lat="42.77067" lon="1.396">
        <ele>1737</ele>
        <time>2023-08-09T06:44:39Z</time>
      </trkpt>
      <trkpt lat="42.77065" lon="1.39606">
        <ele>1738</ele>
        <time>2023-08-09T06:44:46Z</time>
      </trkpt>
      <trkpt lat="42.77057" lon="1.39618">
        <ele>1739</ele>
        <time>2023-08-09T06:45:04Z</time>
      </trkpt>
      <trkpt lat="42.77053" lon="1.39624">
        <ele>1741</ele>
        <time>2023-08-09T06:45:14Z</time>
      </trkpt>
      <trkpt lat="42.77048" lon="1.39629">
        <ele>1741</ele>
        <time>2023-08-09T06:45:24Z</time>
      </trkpt>
      <trkpt lat="42.77035" lon="1.39629">
        <ele>1738</ele>
        <time>2023-08-09T06:45:38Z</time>
      </trkpt>
      <trkpt lat="42.77031" lon="1.39631">
        <ele>1738</ele>
        <time>2023-08-09T06:45:43Z</time>
      </trkpt>
      <trkpt lat="42.77027" lon="1.39634">
        <ele>1738</ele>
        <time>2023-08-09T06:45:53Z</time>
      </trkpt>
      <trkpt lat="42.7702" lon="1.39639">
        <ele>1739</ele>
        <time>2023-08-09T06:46:04Z</time>
      </trkpt>
      <trkpt lat="42.77014" lon="1.39642">
        <ele>1740</ele>
        <time>2023-08-09T06:46:14Z</time>
      </trkpt>
      <trkpt lat="42.77004" lon="1.39644">
        <ele>1738</ele>
        <time>2023-08-09T06:46:30Z</time>
      </trkpt>
      <trkpt lat="42.76999" lon="1.39646">
        <ele>1738</ele>
        <time>2023-08-09T06:46:34Z</time>
      </trkpt>
      <trkpt lat="42.76993" lon="1.39649">
        <ele>1738</ele>
        <time>2023-08-09T06:46:43Z</time>
      </trkpt>
      <trkpt lat="42.76983" lon="1.39648">
        <ele>1737</ele>
        <time>2023-08-09T06:47:04Z</time>
      </trkpt>
      <trkpt lat="42.76977" lon="1.3965">
        <ele>1736</ele>
        <time>2023-08-09T06:47:15Z</time>
      </trkpt>
      <trkpt lat="42.76973" lon="1.39653">
        <ele>1738</ele>
        <time>2023-08-09T06:47:25Z</time>
      </trkpt>
      <trkpt lat="42.76966" lon="1.39654">
        <ele>1739</ele>
        <time>2023-08-09T06:47:35Z</time>
      </trkpt>
      <trkpt lat="42.76953" lon="1.39663">
        <ele>1741</ele>
        <time>2023-08-09T06:47:57Z</time>
      </trkpt>
      <trkpt lat="42.76948" lon="1.39662">
        <ele>1741</ele>
        <time>2023-08-09T06:48:01Z</time>
      </trkpt>
      <trkpt lat="42.76944" lon="1.39667">
        <ele>1741</ele>
        <time>2023-08-09T06:48:08Z</time>
      </trkpt>
      <trkpt lat="42.7694" lon="1.39671">
        <ele>1742</ele>
        <time>2023-08-09T06:48:19Z</time>
      </trkpt>
      <trkpt lat="42.76937" lon="1.39678">
        <ele>1744</ele>
        <time>2023-08-09T06:48:29Z</time>
      </trkpt>
      <trkpt lat="42.7693" lon="1.39684">
        <ele>1745</ele>
        <time>2023-08-09T06:48:40Z</time>
      </trkpt>
      <trkpt lat="42.76928" lon="1.3969">
        <ele>1747</ele>
        <time>2023-08-09T06:48:50Z</time>
      </trkpt>
      <trkpt lat="42.76916" lon="1.397">
        <ele>1751</ele>
        <time>2023-08-09T06:49:13Z</time>
      </trkpt>
      <trkpt lat="42.76912" lon="1.39706">
        <ele>1751</ele>
        <time>2023-08-09T06:49:23Z</time>
      </trkpt>
      <trkpt lat="42.76907" lon="1.39718">
        <ele>1754</ele>
        <time>2023-08-09T06:49:44Z</time>
      </trkpt>
      <trkpt lat="42.76904" lon="1.39723">
        <ele>1756</ele>
        <time>2023-08-09T06:49:54Z</time>
      </trkpt>
      <trkpt lat="42.76891" lon="1.39741">
        <ele>1760</ele>
        <time>2023-08-09T06:50:25Z</time>
      </trkpt>
      <trkpt lat="42.76886" lon="1.39745">
        <ele>1761</ele>
        <time>2023-08-09T06:50:35Z</time>
      </trkpt>
      <trkpt lat="42.76882" lon="1.39749">
        <ele>1762</ele>
        <time>2023-08-09T06:50:45Z</time>
      </trkpt>
      <trkpt lat="42.76881" lon="1.39755">
        <ele>1765</ele>
        <time>2023-08-09T06:50:55Z</time>
      </trkpt>
      <trkpt lat="42.76883" lon="1.39763">
        <ele>1768</ele>
        <time>2023-08-09T06:51:12Z</time>
      </trkpt>
      <trkpt lat="42.76879" lon="1.39774">
        <ele>1772</ele>
        <time>2023-08-09T06:51:32Z</time>
      </trkpt>
      <trkpt lat="42.7688" lon="1.39789">
        <ele>1777</ele>
        <time>2023-08-09T06:52:02Z</time>
      </trkpt>
      <trkpt lat="42.76877" lon="1.39795">
        <ele>1779</ele>
        <time>2023-08-09T06:52:12Z</time>
      </trkpt>
      <trkpt lat="42.7688" lon="1.39799">
        <ele>1780</ele>
        <time>2023-08-09T06:52:22Z</time>
      </trkpt>
      <trkpt lat="42.7688" lon="1.39807">
        <ele>1783</ele>
        <time>2023-08-09T06:52:32Z</time>
      </trkpt>
      <trkpt lat="42.76878" lon="1.39813">
        <ele>1785</ele>
        <time>2023-08-09T06:52:47Z</time>
      </trkpt>
      <trkpt lat="42.76879" lon="1.39819">
        <ele>1787</ele>
        <time>2023-08-09T06:53:02Z</time>
      </trkpt>
      <trkpt lat="42.7688" lon="1.39825">
        <ele>1790</ele>
        <time>2023-08-09T06:53:19Z</time>
      </trkpt>
      <trkpt lat="42.76884" lon="1.39831">
        <ele>1792</ele>
        <time>2023-08-09T06:53:35Z</time>
      </trkpt>
      <trkpt lat="42.76886" lon="1.39838">
        <ele>1795</ele>
        <time>2023-08-09T06:53:50Z</time>
      </trkpt>
      <trkpt lat="42.76891" lon="1.3984">
        <ele>1797</ele>
        <time>2023-08-09T06:54:05Z</time>
      </trkpt>
      <trkpt lat="42.7689" lon="1.39847">
        <ele>1799</ele>
        <time>2023-08-09T06:54:15Z</time>
      </trkpt>
      <trkpt lat="42.76888" lon="1.39853">
        <ele>1801</ele>
        <time>2023-08-09T06:54:30Z</time>
      </trkpt>
      <trkpt lat="42.7689" lon="1.39858">
        <ele>1803</ele>
        <time>2023-08-09T06:54:40Z</time>
      </trkpt>
      <trkpt lat="42.7689" lon="1.39873">
        <ele>1809</ele>
        <time>2023-08-09T06:55:10Z</time>
      </trkpt>
      <trkpt lat="42.76887" lon="1.39881">
        <ele>1814</ele>
        <time>2023-08-09T06:55:52Z</time>
      </trkpt>
      <trkpt lat="42.76881" lon="1.3989">
        <ele>1818</ele>
        <time>2023-08-09T06:56:18Z</time>
      </trkpt>
      <trkpt lat="42.7688" lon="1.39898">
        <ele>1821</ele>
        <time>2023-08-09T06:56:33Z</time>
      </trkpt>
      <trkpt lat="42.76878" lon="1.39904">
        <ele>1824</ele>
        <time>2023-08-09T06:56:48Z</time>
      </trkpt>
      <trkpt lat="42.76877" lon="1.39911">
        <ele>1826</ele>
        <time>2023-08-09T06:57:03Z</time>
      </trkpt>
      <trkpt lat="42.76872" lon="1.39913">
        <ele>1828</ele>
        <time>2023-08-09T06:57:13Z</time>
      </trkpt>
      <trkpt lat="42.76869" lon="1.39917">
        <ele>1830</ele>
        <time>2023-08-09T06:57:24Z</time>
      </trkpt>
      <trkpt lat="42.76867" lon="1.39925">
        <ele>1832</ele>
        <time>2023-08-09T06:57:36Z</time>
      </trkpt>
      <trkpt lat="42.76864" lon="1.3993">
        <ele>1834</ele>
        <time>2023-08-09T06:57:46Z</time>
      </trkpt>
      <trkpt lat="42.76859" lon="1.39935">
        <ele>1836</ele>
        <time>2023-08-09T06:57:56Z</time>
      </trkpt>
      <trkpt lat="42.76855" lon="1.39937">
        <ele>1837</ele>
        <time>2023-08-09T06:58:11Z</time>
      </trkpt>
      <trkpt lat="42.76847" lon="1.39947">
        <ele>1838</ele>
        <time>2023-08-09T06:58:28Z</time>
      </trkpt>
      <trkpt lat="42.76847" lon="1.39955">
        <ele>1840</ele>
        <time>2023-08-09T06:58:40Z</time>
      </trkpt>
      <trkpt lat="42.76849" lon="1.39965">
        <ele>1842</ele>
        <time>2023-08-09T06:58:52Z</time>
      </trkpt>
      <trkpt lat="42.76847" lon="1.39972">
        <ele>1843</ele>
        <time>2023-08-09T06:58:57Z</time>
      </trkpt>
      <trkpt lat="42.76845" lon="1.3998">
        <ele>1844</ele>
        <time>2023-08-09T06:59:04Z</time>
      </trkpt>
      <trkpt lat="42.76844" lon="1.3999">
        <ele>1845</ele>
        <time>2023-08-09T06:59:11Z</time>
      </trkpt>
      <trkpt lat="42.76842" lon="1.39995">
        <ele>1846</ele>
        <time>2023-08-09T06:59:16Z</time>
      </trkpt>
      <trkpt lat="42.7684" lon="1.40008">
        <ele>1847</ele>
        <time>2023-08-09T06:59:30Z</time>
      </trkpt>
      <trkpt lat="42.76836" lon="1.40014">
        <ele>1848</ele>
        <time>2023-08-09T06:59:42Z</time>
      </trkpt>
      <trkpt lat="42.76839" lon="1.40021">
        <ele>1850</ele>
        <time>2023-08-09T06:59:55Z</time>
      </trkpt>
      <trkpt lat="42.76839" lon="1.40029">
        <ele>1852</ele>
        <time>2023-08-09T07:00:07Z</time>
      </trkpt>
      <trkpt lat="42.76841" lon="1.40043">
        <ele>1855</ele>
        <time>2023-08-09T07:00:23Z</time>
      </trkpt>
      <trkpt lat="42.76839" lon="1.40051">
        <ele>1856</ele>
        <time>2023-08-09T07:00:35Z</time>
      </trkpt>
      <trkpt lat="42.76838" lon="1.40064">
        <ele>1859</ele>
        <time>2023-08-09T07:00:53Z</time>
      </trkpt>
      <trkpt lat="42.76836" lon="1.40089">
        <ele>1865</ele>
        <time>2023-08-09T07:01:29Z</time>
      </trkpt>
      <trkpt lat="42.76835" lon="1.40096">
        <ele>1867</ele>
        <time>2023-08-09T07:01:41Z</time>
      </trkpt>
      <trkpt lat="42.76838" lon="1.40113">
        <ele>1871</ele>
        <time>2023-08-09T07:02:04Z</time>
      </trkpt>
      <trkpt lat="42.76838" lon="1.40135">
        <ele>1877</ele>
        <time>2023-08-09T07:02:36Z</time>
      </trkpt>
      <trkpt lat="42.76835" lon="1.40139">
        <ele>1878</ele>
        <time>2023-08-09T07:02:41Z</time>
      </trkpt>
      <trkpt lat="42.7683" lon="1.40158">
        <ele>1882</ele>
        <time>2023-08-09T07:03:06Z</time>
      </trkpt>
      <trkpt lat="42.7683" lon="1.40166">
        <ele>1884</ele>
        <time>2023-08-09T07:03:18Z</time>
      </trkpt>
      <trkpt lat="42.76828" lon="1.40175">
        <ele>1886</ele>
        <time>2023-08-09T07:03:30Z</time>
      </trkpt>
      <trkpt lat="42.76826" lon="1.40179">
        <ele>1887</ele>
        <time>2023-08-09T07:03:36Z</time>
      </trkpt>
      <trkpt lat="42.7682" lon="1.40208">
        <ele>1891</ele>
        <time>2023-08-09T07:04:08Z</time>
      </trkpt>
      <trkpt lat="42.76818" lon="1.40217">
        <ele>1893</ele>
        <time>2023-08-09T07:04:20Z</time>
      </trkpt>
      <trkpt lat="42.76818" lon="1.40234">
        <ele>1895</ele>
        <time>2023-08-09T07:04:38Z</time>
      </trkpt>
      <trkpt lat="42.76817" lon="1.40255">
        <ele>1898</ele>
        <time>2023-08-09T07:05:01Z</time>
      </trkpt>
      <trkpt lat="42.76815" lon="1.40261">
        <ele>1899</ele>
        <time>2023-08-09T07:05:08Z</time>
      </trkpt>
      <trkpt lat="42.76814" lon="1.40267">
        <ele>1900</ele>
        <time>2023-08-09T07:05:14Z</time>
      </trkpt>
      <trkpt lat="42.7681" lon="1.40276">
        <ele>1901</ele>
        <time>2023-08-09T07:05:27Z</time>
      </trkpt>
      <trkpt lat="42.76809" lon="1.40284">
        <ele>1902</ele>
        <time>2023-08-09T07:05:39Z</time>
      </trkpt>
      <trkpt lat="42.76806" lon="1.40288">
        <ele>1903</ele>
        <time>2023-08-09T07:05:45Z</time>
      </trkpt>
      <trkpt lat="42.76801" lon="1.40311">
        <ele>1907</ele>
        <time>2023-08-09T07:06:15Z</time>
      </trkpt>
      <trkpt lat="42.76797" lon="1.40312">
        <ele>1908</ele>
        <time>2023-08-09T07:06:21Z</time>
      </trkpt>
      <trkpt lat="42.76788" lon="1.40326">
        <ele>1912</ele>
        <time>2023-08-09T07:06:45Z</time>
      </trkpt>
      <trkpt lat="42.76784" lon="1.4033">
        <ele>1913</ele>
        <time>2023-08-09T07:06:57Z</time>
      </trkpt>
      <trkpt lat="42.76782" lon="1.40338">
        <ele>1916</ele>
        <time>2023-08-09T07:07:15Z</time>
      </trkpt>
      <trkpt lat="42.76782" lon="1.40347">
        <ele>1918</ele>
        <time>2023-08-09T07:07:27Z</time>
      </trkpt>
      <trkpt lat="42.76778" lon="1.40355">
        <ele>1919</ele>
        <time>2023-08-09T07:07:39Z</time>
      </trkpt>
      <trkpt lat="42.76776" lon="1.40362">
        <ele>1921</ele>
        <time>2023-08-09T07:07:51Z</time>
      </trkpt>
      <trkpt lat="42.7678" lon="1.40375">
        <ele>1924</ele>
        <time>2023-08-09T07:08:18Z</time>
      </trkpt>
      <trkpt lat="42.7678" lon="1.40384">
        <ele>1926</ele>
        <time>2023-08-09T07:08:30Z</time>
      </trkpt>
      <trkpt lat="42.76779" lon="1.40392">
        <ele>1927</ele>
        <time>2023-08-09T07:08:42Z</time>
      </trkpt>
      <trkpt lat="42.76776" lon="1.40399">
        <ele>1929</ele>
        <time>2023-08-09T07:08:54Z</time>
      </trkpt>
      <trkpt lat="42.76767" lon="1.40408">
        <ele>1933</ele>
        <time>2023-08-09T07:09:18Z</time>
      </trkpt>
      <trkpt lat="42.76765" lon="1.40413">
        <ele>1934</ele>
        <time>2023-08-09T07:09:25Z</time>
      </trkpt>
      <trkpt lat="42.76759" lon="1.40417">
        <ele>1937</ele>
        <time>2023-08-09T07:09:43Z</time>
      </trkpt>
      <trkpt lat="42.76754" lon="1.4042">
        <ele>1939</ele>
        <time>2023-08-09T07:09:55Z</time>
      </trkpt>
      <trkpt lat="42.76747" lon="1.40422">
        <ele>1941</ele>
        <time>2023-08-09T07:10:07Z</time>
      </trkpt>
      <trkpt lat="42.76743" lon="1.40419">
        <ele>1941</ele>
        <time>2023-08-09T07:10:11Z</time>
      </trkpt>
      <trkpt lat="42.76736" lon="1.40423">
        <ele>1943</ele>
        <time>2023-08-09T07:10:25Z</time>
      </trkpt>
      <trkpt lat="42.76722" lon="1.40422">
        <ele>1946</ele>
        <time>2023-08-09T07:10:49Z</time>
      </trkpt>
      <trkpt lat="42.76721" lon="1.40425">
        <ele>1945</ele>
        <time>2023-08-09T07:15:38Z</time>
      </trkpt>
      <trkpt lat="42.76711" lon="1.4042">
        <ele>1947</ele>
        <time>2023-08-09T07:18:30Z</time>
      </trkpt>
      <trkpt lat="42.76708" lon="1.40416">
        <ele>1948</ele>
        <time>2023-08-09T07:18:36Z</time>
      </trkpt>
      <trkpt lat="42.76702" lon="1.4041">
        <ele>1949</ele>
        <time>2023-08-09T07:18:48Z</time>
      </trkpt>
      <trkpt lat="42.76697" lon="1.404">
        <ele>1952</ele>
        <time>2023-08-09T07:19:06Z</time>
      </trkpt>
      <trkpt lat="42.76687" lon="1.4041">
        <ele>1956</ele>
        <time>2023-08-09T07:19:30Z</time>
      </trkpt>
      <trkpt lat="42.76683" lon="1.40406">
        <ele>1955</ele>
        <time>2023-08-09T07:19:50Z</time>
      </trkpt>
      <trkpt lat="42.76682" lon="1.404">
        <ele>1958</ele>
        <time>2023-08-09T07:20:02Z</time>
      </trkpt>
      <trkpt lat="42.76677" lon="1.40395">
        <ele>1960</ele>
        <time>2023-08-09T07:20:20Z</time>
      </trkpt>
      <trkpt lat="42.76675" lon="1.40389">
        <ele>1962</ele>
        <time>2023-08-09T07:20:32Z</time>
      </trkpt>
      <trkpt lat="42.76676" lon="1.40383">
        <ele>1963</ele>
        <time>2023-08-09T07:20:37Z</time>
      </trkpt>
      <trkpt lat="42.76672" lon="1.4038">
        <ele>1964</ele>
        <time>2023-08-09T07:20:46Z</time>
      </trkpt>
      <trkpt lat="42.76665" lon="1.40378">
        <ele>1965</ele>
        <time>2023-08-09T07:20:58Z</time>
      </trkpt>
      <trkpt lat="42.76663" lon="1.40373">
        <ele>1966</ele>
        <time>2023-08-09T07:21:04Z</time>
      </trkpt>
      <trkpt lat="42.76656" lon="1.40367">
        <ele>1968</ele>
        <time>2023-08-09T07:21:16Z</time>
      </trkpt>
      <trkpt lat="42.76652" lon="1.40361">
        <ele>1969</ele>
        <time>2023-08-09T07:21:29Z</time>
      </trkpt>
      <trkpt lat="42.76645" lon="1.40353">
        <ele>1971</ele>
        <time>2023-08-09T07:21:41Z</time>
      </trkpt>
      <trkpt lat="42.76637" lon="1.40349">
        <ele>1973</ele>
        <time>2023-08-09T07:21:54Z</time>
      </trkpt>
      <trkpt lat="42.76634" lon="1.40344">
        <ele>1974</ele>
        <time>2023-08-09T07:21:59Z</time>
      </trkpt>
      <trkpt lat="42.7663" lon="1.40341">
        <ele>1974</ele>
        <time>2023-08-09T07:22:03Z</time>
      </trkpt>
      <trkpt lat="42.76618" lon="1.40327">
        <ele>1975</ele>
        <time>2023-08-09T07:22:19Z</time>
      </trkpt>
      <trkpt lat="42.76614" lon="1.40319">
        <ele>1977</ele>
        <time>2023-08-09T07:22:28Z</time>
      </trkpt>
      <trkpt lat="42.76603" lon="1.40302">
        <ele>1982</ele>
        <time>2023-08-09T07:22:59Z</time>
      </trkpt>
      <trkpt lat="42.76598" lon="1.40297">
        <ele>1984</ele>
        <time>2023-08-09T07:23:11Z</time>
      </trkpt>
      <trkpt lat="42.7659" lon="1.40289">
        <ele>1987</ele>
        <time>2023-08-09T07:23:29Z</time>
      </trkpt>
      <trkpt lat="42.76585" lon="1.40281">
        <ele>1988</ele>
        <time>2023-08-09T07:23:40Z</time>
      </trkpt>
      <trkpt lat="42.76573" lon="1.40273">
        <ele>1989</ele>
        <time>2023-08-09T07:23:55Z</time>
      </trkpt>
      <trkpt lat="42.76568" lon="1.40264">
        <ele>1990</ele>
        <time>2023-08-09T07:24:07Z</time>
      </trkpt>
      <trkpt lat="42.76567" lon="1.40258">
        <ele>1991</ele>
        <time>2023-08-09T07:24:12Z</time>
      </trkpt>
      <trkpt lat="42.76562" lon="1.4025">
        <ele>1993</ele>
        <time>2023-08-09T07:24:23Z</time>
      </trkpt>
      <trkpt lat="42.76554" lon="1.40234">
        <ele>1996</ele>
        <time>2023-08-09T07:24:45Z</time>
      </trkpt>
      <trkpt lat="42.7655" lon="1.40226">
        <ele>1997</ele>
        <time>2023-08-09T07:24:57Z</time>
      </trkpt>
      <trkpt lat="42.76545" lon="1.4022">
        <ele>1999</ele>
        <time>2023-08-09T07:25:09Z</time>
      </trkpt>
      <trkpt lat="42.76541" lon="1.40213">
        <ele>2001</ele>
        <time>2023-08-09T07:25:21Z</time>
      </trkpt>
      <trkpt lat="42.76539" lon="1.40204">
        <ele>2003</ele>
        <time>2023-08-09T07:25:33Z</time>
      </trkpt>
      <trkpt lat="42.76534" lon="1.40194">
        <ele>2004</ele>
        <time>2023-08-09T07:25:43Z</time>
      </trkpt>
      <trkpt lat="42.76531" lon="1.40184">
        <ele>2006</ele>
        <time>2023-08-09T07:25:55Z</time>
      </trkpt>
      <trkpt lat="42.76529" lon="1.40179">
        <ele>2007</ele>
        <time>2023-08-09T07:26:00Z</time>
      </trkpt>
      <trkpt lat="42.76516" lon="1.40164">
        <ele>2008</ele>
        <time>2023-08-09T07:26:20Z</time>
      </trkpt>
      <trkpt lat="42.76514" lon="1.40158">
        <ele>2009</ele>
        <time>2023-08-09T07:26:28Z</time>
      </trkpt>
      <trkpt lat="42.76499" lon="1.40139">
        <ele>2014</ele>
        <time>2023-08-09T07:27:04Z</time>
      </trkpt>
      <trkpt lat="42.76497" lon="1.40133">
        <ele>2016</ele>
        <time>2023-08-09T07:27:16Z</time>
      </trkpt>
      <trkpt lat="42.76496" lon="1.40124">
        <ele>2019</ele>
        <time>2023-08-09T07:27:34Z</time>
      </trkpt>
      <trkpt lat="42.76497" lon="1.40119">
        <ele>2022</ele>
        <time>2023-08-09T07:27:52Z</time>
      </trkpt>
      <trkpt lat="42.76499" lon="1.4011">
        <ele>2024</ele>
        <time>2023-08-09T07:28:10Z</time>
      </trkpt>
      <trkpt lat="42.76499" lon="1.40104">
        <ele>2025</ele>
        <time>2023-08-09T07:28:22Z</time>
      </trkpt>
      <trkpt lat="42.76496" lon="1.40101">
        <ele>2027</ele>
        <time>2023-08-09T07:28:34Z</time>
      </trkpt>
      <trkpt lat="42.76492" lon="1.40096">
        <ele>2029</ele>
        <time>2023-08-09T07:28:46Z</time>
      </trkpt>
      <trkpt lat="42.7649" lon="1.40089">
        <ele>2031</ele>
        <time>2023-08-09T07:28:58Z</time>
      </trkpt>
      <trkpt lat="42.76485" lon="1.40084">
        <ele>2032</ele>
        <time>2023-08-09T07:29:10Z</time>
      </trkpt>
      <trkpt lat="42.76482" lon="1.40079">
        <ele>2034</ele>
        <time>2023-08-09T07:29:22Z</time>
      </trkpt>
      <trkpt lat="42.76475" lon="1.40077">
        <ele>2036</ele>
        <time>2023-08-09T07:29:34Z</time>
      </trkpt>
      <trkpt lat="42.76474" lon="1.40067">
        <ele>2037</ele>
        <time>2023-08-09T07:29:46Z</time>
      </trkpt>
      <trkpt lat="42.76472" lon="1.40058">
        <ele>2038</ele>
        <time>2023-08-09T07:30:00Z</time>
      </trkpt>
      <trkpt lat="42.76473" lon="1.40052">
        <ele>2041</ele>
        <time>2023-08-09T07:30:12Z</time>
      </trkpt>
      <trkpt lat="42.7647" lon="1.40036">
        <ele>2044</ele>
        <time>2023-08-09T07:30:37Z</time>
      </trkpt>
      <trkpt lat="42.76465" lon="1.40029">
        <ele>2046</ele>
        <time>2023-08-09T07:30:55Z</time>
      </trkpt>
      <trkpt lat="42.76462" lon="1.40022">
        <ele>2048</ele>
        <time>2023-08-09T07:31:07Z</time>
      </trkpt>
      <trkpt lat="42.76463" lon="1.40014">
        <ele>2049</ele>
        <time>2023-08-09T07:31:18Z</time>
      </trkpt>
      <trkpt lat="42.76462" lon="1.40007">
        <ele>2051</ele>
        <time>2023-08-09T07:31:30Z</time>
      </trkpt>
      <trkpt lat="42.76455" lon="1.39997">
        <ele>2054</ele>
        <time>2023-08-09T07:31:54Z</time>
      </trkpt>
      <trkpt lat="42.76449" lon="1.3999">
        <ele>2056</ele>
        <time>2023-08-09T07:32:07Z</time>
      </trkpt>
      <trkpt lat="42.76446" lon="1.39977">
        <ele>2058</ele>
        <time>2023-08-09T07:32:22Z</time>
      </trkpt>
      <trkpt lat="42.76441" lon="1.39973">
        <ele>2057</ele>
        <time>2023-08-09T07:32:34Z</time>
      </trkpt>
      <trkpt lat="42.76437" lon="1.3998">
        <ele>2054</ele>
        <time>2023-08-09T07:32:46Z</time>
      </trkpt>
      <trkpt lat="42.76433" lon="1.39986">
        <ele>2052</ele>
        <time>2023-08-09T07:32:58Z</time>
      </trkpt>
      <trkpt lat="42.76414" lon="1.3999">
        <ele>2047</ele>
        <time>2023-08-09T07:33:21Z</time>
      </trkpt>
      <trkpt lat="42.76404" lon="1.39989">
        <ele>2045</ele>
        <time>2023-08-09T07:33:31Z</time>
      </trkpt>
      <trkpt lat="42.76398" lon="1.3999">
        <ele>2044</ele>
        <time>2023-08-09T07:33:35Z</time>
      </trkpt>
      <trkpt lat="42.76393" lon="1.39989">
        <ele>2044</ele>
        <time>2023-08-09T07:33:39Z</time>
      </trkpt>
      <trkpt lat="42.76388" lon="1.3999">
        <ele>2044</ele>
        <time>2023-08-09T07:33:43Z</time>
      </trkpt>
      <trkpt lat="42.76383" lon="1.39991">
        <ele>2043</ele>
        <time>2023-08-09T07:33:50Z</time>
      </trkpt>
      <trkpt lat="42.76374" lon="1.39987">
        <ele>2043</ele>
        <time>2023-08-09T07:33:58Z</time>
      </trkpt>
      <trkpt lat="42.76371" lon="1.39984">
        <ele>2043</ele>
        <time>2023-08-09T07:34:02Z</time>
      </trkpt>
      <trkpt lat="42.76365" lon="1.39982">
        <ele>2043</ele>
        <time>2023-08-09T07:34:09Z</time>
      </trkpt>
      <trkpt lat="42.7636" lon="1.3998">
        <ele>2044</ele>
        <time>2023-08-09T07:34:14Z</time>
      </trkpt>
      <trkpt lat="42.76354" lon="1.39981">
        <ele>2045</ele>
        <time>2023-08-09T07:34:22Z</time>
      </trkpt>
      <trkpt lat="42.7635" lon="1.39982">
        <ele>2045</ele>
        <time>2023-08-09T07:34:27Z</time>
      </trkpt>
      <trkpt lat="42.76346" lon="1.3998">
        <ele>2044</ele>
        <time>2023-08-09T07:34:32Z</time>
      </trkpt>
      <trkpt lat="42.76338" lon="1.39981">
        <ele>2043</ele>
        <time>2023-08-09T07:34:44Z</time>
      </trkpt>
      <trkpt lat="42.76334" lon="1.39978">
        <ele>2042</ele>
        <time>2023-08-09T07:34:49Z</time>
      </trkpt>
      <trkpt lat="42.76329" lon="1.39979">
        <ele>2042</ele>
        <time>2023-08-09T07:34:54Z</time>
      </trkpt>
      <trkpt lat="42.76323" lon="1.39978">
        <ele>2041</ele>
        <time>2023-08-09T07:35:02Z</time>
      </trkpt>
      <trkpt lat="42.76318" lon="1.3998">
        <ele>2040</ele>
        <time>2023-08-09T07:35:07Z</time>
      </trkpt>
      <trkpt lat="42.76314" lon="1.3998">
        <ele>2040</ele>
        <time>2023-08-09T07:35:11Z</time>
      </trkpt>
      <trkpt lat="42.7631" lon="1.39983">
        <ele>2040</ele>
        <time>2023-08-09T07:35:19Z</time>
      </trkpt>
      <trkpt lat="42.76303" lon="1.39984">
        <ele>2036</ele>
        <time>2023-08-09T07:35:37Z</time>
      </trkpt>
      <trkpt lat="42.76291" lon="1.39981">
        <ele>2035</ele>
        <time>2023-08-09T07:35:51Z</time>
      </trkpt>
      <trkpt lat="42.76286" lon="1.39978">
        <ele>2035</ele>
        <time>2023-08-09T07:35:57Z</time>
      </trkpt>
      <trkpt lat="42.76277" lon="1.39974">
        <ele>2034</ele>
        <time>2023-08-09T07:36:09Z</time>
      </trkpt>
      <trkpt lat="42.76271" lon="1.39972">
        <ele>2034</ele>
        <time>2023-08-09T07:36:16Z</time>
      </trkpt>
      <trkpt lat="42.76266" lon="1.39972">
        <ele>2034</ele>
        <time>2023-08-09T07:36:21Z</time>
      </trkpt>
      <trkpt lat="42.7626" lon="1.3997">
        <ele>2034</ele>
        <time>2023-08-09T07:36:30Z</time>
      </trkpt>
      <trkpt lat="42.76255" lon="1.39971">
        <ele>2033</ele>
        <time>2023-08-09T07:36:36Z</time>
      </trkpt>
      <trkpt lat="42.76251" lon="1.3997">
        <ele>2033</ele>
        <time>2023-08-09T07:36:41Z</time>
      </trkpt>
      <trkpt lat="42.76245" lon="1.3997">
        <ele>2033</ele>
        <time>2023-08-09T07:36:50Z</time>
      </trkpt>
      <trkpt lat="42.7624" lon="1.39969">
        <ele>2031</ele>
        <time>2023-08-09T07:36:56Z</time>
      </trkpt>
      <trkpt lat="42.76236" lon="1.39968">
        <ele>2030</ele>
        <time>2023-08-09T07:37:04Z</time>
      </trkpt>
      <trkpt lat="42.76232" lon="1.39972">
        <ele>2029</ele>
        <time>2023-08-09T07:37:10Z</time>
      </trkpt>
      <trkpt lat="42.76227" lon="1.39971">
        <ele>2029</ele>
        <time>2023-08-09T07:37:15Z</time>
      </trkpt>
      <trkpt lat="42.7622" lon="1.39973">
        <ele>2027</ele>
        <time>2023-08-09T07:37:24Z</time>
      </trkpt>
      <trkpt lat="42.76216" lon="1.3997">
        <ele>2027</ele>
        <time>2023-08-09T07:37:28Z</time>
      </trkpt>
      <trkpt lat="42.76212" lon="1.39967">
        <ele>2027</ele>
        <time>2023-08-09T07:37:32Z</time>
      </trkpt>
      <trkpt lat="42.76208" lon="1.39969">
        <ele>2027</ele>
        <time>2023-08-09T07:37:37Z</time>
      </trkpt>
      <trkpt lat="42.76198" lon="1.39971">
        <ele>2026</ele>
        <time>2023-08-09T07:37:50Z</time>
      </trkpt>
      <trkpt lat="42.76186" lon="1.39967">
        <ele>2023</ele>
        <time>2023-08-09T07:38:08Z</time>
      </trkpt>
      <trkpt lat="42.76172" lon="1.39967">
        <ele>2021</ele>
        <time>2023-08-09T07:38:22Z</time>
      </trkpt>
      <trkpt lat="42.76165" lon="1.39967">
        <ele>2021</ele>
        <time>2023-08-09T07:38:29Z</time>
      </trkpt>
      <trkpt lat="42.76161" lon="1.39969">
        <ele>2021</ele>
        <time>2023-08-09T07:38:34Z</time>
      </trkpt>
      <trkpt lat="42.76152" lon="1.39967">
        <ele>2021</ele>
        <time>2023-08-09T07:38:42Z</time>
      </trkpt>
      <trkpt lat="42.76148" lon="1.39963">
        <ele>2021</ele>
        <time>2023-08-09T07:38:46Z</time>
      </trkpt>
      <trkpt lat="42.76142" lon="1.39963">
        <ele>2021</ele>
        <time>2023-08-09T07:38:52Z</time>
      </trkpt>
      <trkpt lat="42.76137" lon="1.39961">
        <ele>2021</ele>
        <time>2023-08-09T07:38:57Z</time>
      </trkpt>
      <trkpt lat="42.76116" lon="1.39951">
        <ele>2025</ele>
        <time>2023-08-09T07:39:29Z</time>
      </trkpt>
      <trkpt lat="42.761" lon="1.39947">
        <ele>2027</ele>
        <time>2023-08-09T07:39:50Z</time>
      </trkpt>
      <trkpt lat="42.76093" lon="1.39946">
        <ele>2027</ele>
        <time>2023-08-09T07:39:58Z</time>
      </trkpt>
      <trkpt lat="42.76081" lon="1.39944">
        <ele>2028</ele>
        <time>2023-08-09T07:40:12Z</time>
      </trkpt>
      <trkpt lat="42.76077" lon="1.39943">
        <ele>2028</ele>
        <time>2023-08-09T07:40:17Z</time>
      </trkpt>
      <trkpt lat="42.76047" lon="1.39939">
        <ele>2031</ele>
        <time>2023-08-09T07:40:52Z</time>
      </trkpt>
      <trkpt lat="42.76031" lon="1.39937">
        <ele>2034</ele>
        <time>2023-08-09T07:41:14Z</time>
      </trkpt>
      <trkpt lat="42.76025" lon="1.39937">
        <ele>2035</ele>
        <time>2023-08-09T07:41:26Z</time>
      </trkpt>
      <trkpt lat="42.76016" lon="1.39936">
        <ele>2037</ele>
        <time>2023-08-09T07:41:38Z</time>
      </trkpt>
      <trkpt lat="42.75997" lon="1.39932">
        <ele>2041</ele>
        <time>2023-08-09T07:42:07Z</time>
      </trkpt>
      <trkpt lat="42.75989" lon="1.39933">
        <ele>2043</ele>
        <time>2023-08-09T07:42:19Z</time>
      </trkpt>
      <trkpt lat="42.75983" lon="1.39931">
        <ele>2044</ele>
        <time>2023-08-09T07:42:27Z</time>
      </trkpt>
      <trkpt lat="42.75959" lon="1.39932">
        <ele>2049</ele>
        <time>2023-08-09T07:43:04Z</time>
      </trkpt>
      <trkpt lat="42.75942" lon="1.3993">
        <ele>2051</ele>
        <time>2023-08-09T07:43:28Z</time>
      </trkpt>
      <trkpt lat="42.75937" lon="1.39929">
        <ele>2052</ele>
        <time>2023-08-09T07:43:37Z</time>
      </trkpt>
      <trkpt lat="42.75929" lon="1.39926">
        <ele>2053</ele>
        <time>2023-08-09T07:43:48Z</time>
      </trkpt>
      <trkpt lat="42.75903" lon="1.39916">
        <ele>2055</ele>
        <time>2023-08-09T07:44:26Z</time>
      </trkpt>
      <trkpt lat="42.7589" lon="1.39906">
        <ele>2057</ele>
        <time>2023-08-09T07:44:45Z</time>
      </trkpt>
      <trkpt lat="42.75887" lon="1.39902">
        <ele>2057</ele>
        <time>2023-08-09T07:44:49Z</time>
      </trkpt>
      <trkpt lat="42.75882" lon="1.39899">
        <ele>2058</ele>
        <time>2023-08-09T07:44:57Z</time>
      </trkpt>
      <trkpt lat="42.75875" lon="1.39897">
        <ele>2060</ele>
        <time>2023-08-09T07:45:10Z</time>
      </trkpt>
      <trkpt lat="42.75871" lon="1.39894">
        <ele>2061</ele>
        <time>2023-08-09T07:45:17Z</time>
      </trkpt>
      <trkpt lat="42.75867" lon="1.39891">
        <ele>2061</ele>
        <time>2023-08-09T07:45:23Z</time>
      </trkpt>
      <trkpt lat="42.75863" lon="1.39887">
        <ele>2061</ele>
        <time>2023-08-09T07:45:29Z</time>
      </trkpt>
      <trkpt lat="42.75845" lon="1.39875">
        <ele>2064</ele>
        <time>2023-08-09T07:45:59Z</time>
      </trkpt>
      <trkpt lat="42.75842" lon="1.39871">
        <ele>2064</ele>
        <time>2023-08-09T07:46:05Z</time>
      </trkpt>
      <trkpt lat="42.75835" lon="1.39865">
        <ele>2065</ele>
        <time>2023-08-09T07:46:17Z</time>
      </trkpt>
      <trkpt lat="42.75831" lon="1.39861">
        <ele>2066</ele>
        <time>2023-08-09T07:46:23Z</time>
      </trkpt>
      <trkpt lat="42.75821" lon="1.39852">
        <ele>2067</ele>
        <time>2023-08-09T07:46:41Z</time>
      </trkpt>
      <trkpt lat="42.75818" lon="1.39848">
        <ele>2069</ele>
        <time>2023-08-09T07:46:47Z</time>
      </trkpt>
      <trkpt lat="42.75811" lon="1.39839">
        <ele>2069</ele>
        <time>2023-08-09T07:46:58Z</time>
      </trkpt>
      <trkpt lat="42.75803" lon="1.39822">
        <ele>2071</ele>
        <time>2023-08-09T07:47:22Z</time>
      </trkpt>
      <trkpt lat="42.75799" lon="1.39815">
        <ele>2072</ele>
        <time>2023-08-09T07:47:34Z</time>
      </trkpt>
      <trkpt lat="42.75798" lon="1.39808">
        <ele>2074</ele>
        <time>2023-08-09T07:47:46Z</time>
      </trkpt>
      <trkpt lat="42.75798" lon="1.39798">
        <ele>2076</ele>
        <time>2023-08-09T07:47:58Z</time>
      </trkpt>
      <trkpt lat="42.75793" lon="1.39795">
        <ele>2078</ele>
        <time>2023-08-09T07:48:10Z</time>
      </trkpt>
      <trkpt lat="42.75791" lon="1.398">
        <ele>2080</ele>
        <time>2023-08-09T07:48:16Z</time>
      </trkpt>
      <trkpt lat="42.75786" lon="1.39798">
        <ele>2080</ele>
        <time>2023-08-09T07:48:24Z</time>
      </trkpt>
      <trkpt lat="42.75782" lon="1.39799">
        <ele>2080</ele>
        <time>2023-08-09T07:48:29Z</time>
      </trkpt>
      <trkpt lat="42.75777" lon="1.39791">
        <ele>2082</ele>
        <time>2023-08-09T07:48:42Z</time>
      </trkpt>
      <trkpt lat="42.75769" lon="1.39787">
        <ele>2083</ele>
        <time>2023-08-09T07:48:52Z</time>
      </trkpt>
      <trkpt lat="42.75765" lon="1.39781">
        <ele>2084</ele>
        <time>2023-08-09T07:49:00Z</time>
      </trkpt>
      <trkpt lat="42.75762" lon="1.39777">
        <ele>2085</ele>
        <time>2023-08-09T07:49:08Z</time>
      </trkpt>
      <trkpt lat="42.75761" lon="1.39768">
        <ele>2086</ele>
        <time>2023-08-09T07:49:20Z</time>
      </trkpt>
      <trkpt lat="42.75755" lon="1.39768">
        <ele>2088</ele>
        <time>2023-08-09T07:49:32Z</time>
      </trkpt>
      <trkpt lat="42.75743" lon="1.39759">
        <ele>2091</ele>
        <time>2023-08-09T07:50:03Z</time>
      </trkpt>
      <trkpt lat="42.75738" lon="1.39752">
        <ele>2092</ele>
        <time>2023-08-09T07:50:15Z</time>
      </trkpt>
      <trkpt lat="42.75732" lon="1.39746">
        <ele>2094</ele>
        <time>2023-08-09T07:50:27Z</time>
      </trkpt>
      <trkpt lat="42.75725" lon="1.39735">
        <ele>2096</ele>
        <time>2023-08-09T07:50:51Z</time>
      </trkpt>
      <trkpt lat="42.75719" lon="1.39723">
        <ele>2099</ele>
        <time>2023-08-09T07:51:15Z</time>
      </trkpt>
      <trkpt lat="42.75714" lon="1.39712">
        <ele>2103</ele>
        <time>2023-08-09T07:51:45Z</time>
      </trkpt>
      <trkpt lat="42.75711" lon="1.39708">
        <ele>2105</ele>
        <time>2023-08-09T07:51:57Z</time>
      </trkpt>
      <trkpt lat="42.75707" lon="1.39704">
        <ele>2107</ele>
        <time>2023-08-09T07:52:09Z</time>
      </trkpt>
      <trkpt lat="42.75703" lon="1.39701">
        <ele>2108</ele>
        <time>2023-08-09T07:52:20Z</time>
      </trkpt>
      <trkpt lat="42.757" lon="1.39695">
        <ele>2110</ele>
        <time>2023-08-09T07:52:32Z</time>
      </trkpt>
      <trkpt lat="42.75696" lon="1.39691">
        <ele>2113</ele>
        <time>2023-08-09T07:52:50Z</time>
      </trkpt>
      <trkpt lat="42.75695" lon="1.39684">
        <ele>2116</ele>
        <time>2023-08-09T07:53:08Z</time>
      </trkpt>
      <trkpt lat="42.75693" lon="1.39677">
        <ele>2118</ele>
        <time>2023-08-09T07:53:26Z</time>
      </trkpt>
      <trkpt lat="42.75695" lon="1.39669">
        <ele>2121</ele>
        <time>2023-08-09T07:53:44Z</time>
      </trkpt>
      <trkpt lat="42.75692" lon="1.39664">
        <ele>2122</ele>
        <time>2023-08-09T07:53:56Z</time>
      </trkpt>
      <trkpt lat="42.75687" lon="1.3966">
        <ele>2124</ele>
        <time>2023-08-09T07:54:08Z</time>
      </trkpt>
      <trkpt lat="42.75681" lon="1.39656">
        <ele>2126</ele>
        <time>2023-08-09T07:54:25Z</time>
      </trkpt>
      <trkpt lat="42.75675" lon="1.39659">
        <ele>2127</ele>
        <time>2023-08-09T07:54:37Z</time>
      </trkpt>
      <trkpt lat="42.75664" lon="1.39657">
        <ele>2131</ele>
        <time>2023-08-09T07:55:01Z</time>
      </trkpt>
      <trkpt lat="42.7565" lon="1.39654">
        <ele>2132</ele>
        <time>2023-08-09T07:55:19Z</time>
      </trkpt>
      <trkpt lat="42.75645" lon="1.39653">
        <ele>2131</ele>
        <time>2023-08-09T07:55:27Z</time>
      </trkpt>
      <trkpt lat="42.7564" lon="1.39652">
        <ele>2132</ele>
        <time>2023-08-09T07:55:33Z</time>
      </trkpt>
      <trkpt lat="42.75635" lon="1.39654">
        <ele>2131</ele>
        <time>2023-08-09T07:55:41Z</time>
      </trkpt>
      <trkpt lat="42.75627" lon="1.39655">
        <ele>2130</ele>
        <time>2023-08-09T07:55:53Z</time>
      </trkpt>
      <trkpt lat="42.75611" lon="1.39664">
        <ele>2126</ele>
        <time>2023-08-09T07:56:18Z</time>
      </trkpt>
      <trkpt lat="42.75606" lon="1.39662">
        <ele>2126</ele>
        <time>2023-08-09T07:56:25Z</time>
      </trkpt>
      <trkpt lat="42.75598" lon="1.39663">
        <ele>2127</ele>
        <time>2023-08-09T07:56:37Z</time>
      </trkpt>
      <trkpt lat="42.75593" lon="1.39665">
        <ele>2126</ele>
        <time>2023-08-09T07:56:42Z</time>
      </trkpt>
      <trkpt lat="42.75589" lon="1.39666">
        <ele>2126</ele>
        <time>2023-08-09T07:56:47Z</time>
      </trkpt>
      <trkpt lat="42.75585" lon="1.3967">
        <ele>2126</ele>
        <time>2023-08-09T07:56:51Z</time>
      </trkpt>
      <trkpt lat="42.7558" lon="1.39671">
        <ele>2126</ele>
        <time>2023-08-09T07:56:56Z</time>
      </trkpt>
      <trkpt lat="42.75574" lon="1.39673">
        <ele>2127</ele>
        <time>2023-08-09T07:57:04Z</time>
      </trkpt>
      <trkpt lat="42.75565" lon="1.39671">
        <ele>2130</ele>
        <time>2023-08-09T07:57:22Z</time>
      </trkpt>
      <trkpt lat="42.75559" lon="1.39673">
        <ele>2132</ele>
        <time>2023-08-09T07:57:34Z</time>
      </trkpt>
      <trkpt lat="42.75548" lon="1.39672">
        <ele>2137</ele>
        <time>2023-08-09T07:58:04Z</time>
      </trkpt>
      <trkpt lat="42.75544" lon="1.39675">
        <ele>2137</ele>
        <time>2023-08-09T07:58:10Z</time>
      </trkpt>
      <trkpt lat="42.75537" lon="1.39677">
        <ele>2138</ele>
        <time>2023-08-09T07:58:24Z</time>
      </trkpt>
      <trkpt lat="42.75531" lon="1.39676">
        <ele>2140</ele>
        <time>2023-08-09T07:58:36Z</time>
      </trkpt>
      <trkpt lat="42.7552" lon="1.3967">
        <ele>2141</ele>
        <time>2023-08-09T07:58:54Z</time>
      </trkpt>
      <trkpt lat="42.75517" lon="1.39665">
        <ele>2142</ele>
        <time>2023-08-09T07:59:00Z</time>
      </trkpt>
      <trkpt lat="42.75511" lon="1.39665">
        <ele>2143</ele>
        <time>2023-08-09T07:59:12Z</time>
      </trkpt>
      <trkpt lat="42.75507" lon="1.39664">
        <ele>2144</ele>
        <time>2023-08-09T07:59:18Z</time>
      </trkpt>
      <trkpt lat="42.75501" lon="1.39664">
        <ele>2145</ele>
        <time>2023-08-09T07:59:30Z</time>
      </trkpt>
      <trkpt lat="42.75495" lon="1.39662">
        <ele>2146</ele>
        <time>2023-08-09T07:59:42Z</time>
      </trkpt>
      <trkpt lat="42.75487" lon="1.39663">
        <ele>2147</ele>
        <time>2023-08-09T07:59:53Z</time>
      </trkpt>
      <trkpt lat="42.7548" lon="1.39669">
        <ele>2147</ele>
        <time>2023-08-09T08:00:05Z</time>
      </trkpt>
      <trkpt lat="42.75473" lon="1.39668">
        <ele>2149</ele>
        <time>2023-08-09T08:00:17Z</time>
      </trkpt>
      <trkpt lat="42.75466" lon="1.39671">
        <ele>2150</ele>
        <time>2023-08-09T08:00:28Z</time>
      </trkpt>
      <trkpt lat="42.75462" lon="1.3967">
        <ele>2151</ele>
        <time>2023-08-09T08:00:35Z</time>
      </trkpt>
      <trkpt lat="42.75456" lon="1.39674">
        <ele>2151</ele>
        <time>2023-08-09T08:00:47Z</time>
      </trkpt>
      <trkpt lat="42.75451" lon="1.39673">
        <ele>2153</ele>
        <time>2023-08-09T08:00:59Z</time>
      </trkpt>
      <trkpt lat="42.75432" lon="1.39679">
        <ele>2157</ele>
        <time>2023-08-09T08:01:35Z</time>
      </trkpt>
      <trkpt lat="42.75426" lon="1.39681">
        <ele>2158</ele>
        <time>2023-08-09T08:01:47Z</time>
      </trkpt>
      <trkpt lat="42.7542" lon="1.39678">
        <ele>2160</ele>
        <time>2023-08-09T08:01:59Z</time>
      </trkpt>
      <trkpt lat="42.75414" lon="1.39675">
        <ele>2161</ele>
        <time>2023-08-09T08:02:11Z</time>
      </trkpt>
      <trkpt lat="42.75405" lon="1.39668">
        <ele>2165</ele>
        <time>2023-08-09T08:02:35Z</time>
      </trkpt>
      <trkpt lat="42.754" lon="1.39668">
        <ele>2167</ele>
        <time>2023-08-09T08:02:46Z</time>
      </trkpt>
      <trkpt lat="42.75395" lon="1.39666">
        <ele>2169</ele>
        <time>2023-08-09T08:02:58Z</time>
      </trkpt>
      <trkpt lat="42.75389" lon="1.39663">
        <ele>2171</ele>
        <time>2023-08-09T08:03:10Z</time>
      </trkpt>
      <trkpt lat="42.75388" lon="1.39657">
        <ele>2172</ele>
        <time>2023-08-09T08:03:22Z</time>
      </trkpt>
      <trkpt lat="42.75382" lon="1.39656">
        <ele>2174</ele>
        <time>2023-08-09T08:03:34Z</time>
      </trkpt>
      <trkpt lat="42.75376" lon="1.39651">
        <ele>2175</ele>
        <time>2023-08-09T08:03:46Z</time>
      </trkpt>
      <trkpt lat="42.75372" lon="1.39646">
        <ele>2177</ele>
        <time>2023-08-09T08:03:59Z</time>
      </trkpt>
      <trkpt lat="42.75365" lon="1.39643">
        <ele>2180</ele>
        <time>2023-08-09T08:04:23Z</time>
      </trkpt>
      <trkpt lat="42.75357" lon="1.3964">
        <ele>2181</ele>
        <time>2023-08-09T08:04:36Z</time>
      </trkpt>
      <trkpt lat="42.75353" lon="1.39637">
        <ele>2183</ele>
        <time>2023-08-09T08:04:48Z</time>
      </trkpt>
      <trkpt lat="42.75347" lon="1.39632">
        <ele>2184</ele>
        <time>2023-08-09T08:05:00Z</time>
      </trkpt>
      <trkpt lat="42.75336" lon="1.39622">
        <ele>2186</ele>
        <time>2023-08-09T08:05:20Z</time>
      </trkpt>
      <trkpt lat="42.75332" lon="1.39624">
        <ele>2186</ele>
        <time>2023-08-09T08:05:25Z</time>
      </trkpt>
      <trkpt lat="42.75328" lon="1.39621">
        <ele>2186</ele>
        <time>2023-08-09T08:05:31Z</time>
      </trkpt>
      <trkpt lat="42.75322" lon="1.39616">
        <ele>2187</ele>
        <time>2023-08-09T08:05:41Z</time>
      </trkpt>
      <trkpt lat="42.75316" lon="1.39612">
        <ele>2188</ele>
        <time>2023-08-09T08:05:54Z</time>
      </trkpt>
      <trkpt lat="42.75313" lon="1.39608">
        <ele>2188</ele>
        <time>2023-08-09T08:06:02Z</time>
      </trkpt>
      <trkpt lat="42.75309" lon="1.39604">
        <ele>2190</ele>
        <time>2023-08-09T08:06:14Z</time>
      </trkpt>
      <trkpt lat="42.75304" lon="1.396">
        <ele>2192</ele>
        <time>2023-08-09T08:06:26Z</time>
      </trkpt>
      <trkpt lat="42.75297" lon="1.39596">
        <ele>2193</ele>
        <time>2023-08-09T08:06:38Z</time>
      </trkpt>
      <trkpt lat="42.75289" lon="1.39595">
        <ele>2193</ele>
        <time>2023-08-09T08:06:49Z</time>
      </trkpt>
      <trkpt lat="42.75284" lon="1.39591">
        <ele>2194</ele>
        <time>2023-08-09T08:07:00Z</time>
      </trkpt>
      <trkpt lat="42.7528" lon="1.3959">
        <ele>2195</ele>
        <time>2023-08-09T08:07:06Z</time>
      </trkpt>
      <trkpt lat="42.75274" lon="1.39588">
        <ele>2196</ele>
        <time>2023-08-09T08:07:18Z</time>
      </trkpt>
      <trkpt lat="42.7527" lon="1.39588">
        <ele>2196</ele>
        <time>2023-08-09T08:07:24Z</time>
      </trkpt>
      <trkpt lat="42.75257" lon="1.39587">
        <ele>2200</ele>
        <time>2023-08-09T08:07:48Z</time>
      </trkpt>
      <trkpt lat="42.75252" lon="1.39583">
        <ele>2201</ele>
        <time>2023-08-09T08:08:00Z</time>
      </trkpt>
      <trkpt lat="42.75241" lon="1.3958">
        <ele>2205</ele>
        <time>2023-08-09T08:08:24Z</time>
      </trkpt>
      <trkpt lat="42.75235" lon="1.39576">
        <ele>2206</ele>
        <time>2023-08-09T08:08:36Z</time>
      </trkpt>
      <trkpt lat="42.75226" lon="1.39575">
        <ele>2205</ele>
        <time>2023-08-09T08:08:46Z</time>
      </trkpt>
      <trkpt lat="42.7522" lon="1.39572">
        <ele>2206</ele>
        <time>2023-08-09T08:08:55Z</time>
      </trkpt>
      <trkpt lat="42.75214" lon="1.39566">
        <ele>2207</ele>
        <time>2023-08-09T08:09:06Z</time>
      </trkpt>
      <trkpt lat="42.7521" lon="1.39565">
        <ele>2207</ele>
        <time>2023-08-09T08:09:12Z</time>
      </trkpt>
      <trkpt lat="42.75205" lon="1.39564">
        <ele>2207</ele>
        <time>2023-08-09T08:09:19Z</time>
      </trkpt>
      <trkpt lat="42.75199" lon="1.3956">
        <ele>2208</ele>
        <time>2023-08-09T08:09:31Z</time>
      </trkpt>
      <trkpt lat="42.7519" lon="1.39549">
        <ele>2210</ele>
        <time>2023-08-09T08:09:50Z</time>
      </trkpt>
      <trkpt lat="42.7519" lon="1.39543">
        <ele>2211</ele>
        <time>2023-08-09T08:09:56Z</time>
      </trkpt>
      <trkpt lat="42.75184" lon="1.39538">
        <ele>2212</ele>
        <time>2023-08-09T08:10:08Z</time>
      </trkpt>
      <trkpt lat="42.7518" lon="1.39535">
        <ele>2212</ele>
        <time>2023-08-09T08:10:14Z</time>
      </trkpt>
      <trkpt lat="42.7517" lon="1.39526">
        <ele>2217</ele>
        <time>2023-08-09T08:10:44Z</time>
      </trkpt>
      <trkpt lat="42.75168" lon="1.39518">
        <ele>2218</ele>
        <time>2023-08-09T08:10:56Z</time>
      </trkpt>
      <trkpt lat="42.75167" lon="1.39512">
        <ele>2221</ele>
        <time>2023-08-09T08:11:07Z</time>
      </trkpt>
      <trkpt lat="42.75162" lon="1.3951">
        <ele>2223</ele>
        <time>2023-08-09T08:11:25Z</time>
      </trkpt>
      <trkpt lat="42.75156" lon="1.39509">
        <ele>2224</ele>
        <time>2023-08-09T08:11:37Z</time>
      </trkpt>
      <trkpt lat="42.75152" lon="1.39506">
        <ele>2226</ele>
        <time>2023-08-09T08:11:55Z</time>
      </trkpt>
      <trkpt lat="42.75148" lon="1.39504">
        <ele>2229</ele>
        <time>2023-08-09T08:12:13Z</time>
      </trkpt>
      <trkpt lat="42.75139" lon="1.39494">
        <ele>2234</ele>
        <time>2023-08-09T08:12:43Z</time>
      </trkpt>
      <trkpt lat="42.75134" lon="1.39488">
        <ele>2235</ele>
        <time>2023-08-09T08:12:55Z</time>
      </trkpt>
      <trkpt lat="42.75123" lon="1.39479">
        <ele>2235</ele>
        <time>2023-08-09T08:13:11Z</time>
      </trkpt>
      <trkpt lat="42.75119" lon="1.39473">
        <ele>2235</ele>
        <time>2023-08-09T08:13:23Z</time>
      </trkpt>
      <trkpt lat="42.7511" lon="1.3947">
        <ele>2235</ele>
        <time>2023-08-09T08:13:36Z</time>
      </trkpt>
      <trkpt lat="42.75103" lon="1.39469">
        <ele>2235</ele>
        <time>2023-08-09T08:13:48Z</time>
      </trkpt>
      <trkpt lat="42.75091" lon="1.3947">
        <ele>2237</ele>
        <time>2023-08-09T08:14:12Z</time>
      </trkpt>
      <trkpt lat="42.75082" lon="1.39466">
        <ele>2238</ele>
        <time>2023-08-09T08:14:26Z</time>
      </trkpt>
      <trkpt lat="42.75075" lon="1.39464">
        <ele>2238</ele>
        <time>2023-08-09T08:14:39Z</time>
      </trkpt>
      <trkpt lat="42.7507" lon="1.3946">
        <ele>2242</ele>
        <time>2023-08-09T08:14:51Z</time>
      </trkpt>
      <trkpt lat="42.75064" lon="1.39457">
        <ele>2243</ele>
        <time>2023-08-09T08:15:03Z</time>
      </trkpt>
      <trkpt lat="42.7506" lon="1.39454">
        <ele>2243</ele>
        <time>2023-08-09T08:15:09Z</time>
      </trkpt>
      <trkpt lat="42.75056" lon="1.39448">
        <ele>2244</ele>
        <time>2023-08-09T08:15:20Z</time>
      </trkpt>
      <trkpt lat="42.75034" lon="1.39436">
        <ele>2248</ele>
        <time>2023-08-09T08:15:57Z</time>
      </trkpt>
      <trkpt lat="42.7503" lon="1.39429">
        <ele>2248</ele>
        <time>2023-08-09T08:16:09Z</time>
      </trkpt>
      <trkpt lat="42.75029" lon="1.39422">
        <ele>2250</ele>
        <time>2023-08-09T08:16:21Z</time>
      </trkpt>
      <trkpt lat="42.75028" lon="1.39415">
        <ele>2252</ele>
        <time>2023-08-09T08:16:33Z</time>
      </trkpt>
      <trkpt lat="42.75021" lon="1.39407">
        <ele>2254</ele>
        <time>2023-08-09T08:16:52Z</time>
      </trkpt>
      <trkpt lat="42.75014" lon="1.39405">
        <ele>2255</ele>
        <time>2023-08-09T08:17:05Z</time>
      </trkpt>
      <trkpt lat="42.75009" lon="1.39399">
        <ele>2255</ele>
        <time>2023-08-09T08:17:12Z</time>
      </trkpt>
      <trkpt lat="42.75006" lon="1.39394">
        <ele>2256</ele>
        <time>2023-08-09T08:17:21Z</time>
      </trkpt>
      <trkpt lat="42.75004" lon="1.39386">
        <ele>2257</ele>
        <time>2023-08-09T08:17:32Z</time>
      </trkpt>
      <trkpt lat="42.75" lon="1.39378">
        <ele>2260</ele>
        <time>2023-08-09T08:17:51Z</time>
      </trkpt>
      <trkpt lat="42.74996" lon="1.39374">
        <ele>2260</ele>
        <time>2023-08-09T08:17:57Z</time>
      </trkpt>
      <trkpt lat="42.74986" lon="1.39359">
        <ele>2263</ele>
        <time>2023-08-09T08:18:22Z</time>
      </trkpt>
      <trkpt lat="42.74976" lon="1.39348">
        <ele>2265</ele>
        <time>2023-08-09T08:18:46Z</time>
      </trkpt>
      <trkpt lat="42.7497" lon="1.39345">
        <ele>2264</ele>
        <time>2023-08-09T08:18:58Z</time>
      </trkpt>
      <trkpt lat="42.74964" lon="1.39341">
        <ele>2265</ele>
        <time>2023-08-09T08:19:10Z</time>
      </trkpt>
      <trkpt lat="42.74961" lon="1.39335">
        <ele>2267</ele>
        <time>2023-08-09T08:19:21Z</time>
      </trkpt>
      <trkpt lat="42.74955" lon="1.39331">
        <ele>2268</ele>
        <time>2023-08-09T08:19:32Z</time>
      </trkpt>
      <trkpt lat="42.74949" lon="1.39325">
        <ele>2269</ele>
        <time>2023-08-09T08:19:45Z</time>
      </trkpt>
      <trkpt lat="42.74945" lon="1.39322">
        <ele>2269</ele>
        <time>2023-08-09T08:19:49Z</time>
      </trkpt>
      <trkpt lat="42.74939" lon="1.39323">
        <ele>2269</ele>
        <time>2023-08-09T08:19:57Z</time>
      </trkpt>
      <trkpt lat="42.74932" lon="1.39315">
        <ele>2269</ele>
        <time>2023-08-09T08:20:07Z</time>
      </trkpt>
      <trkpt lat="42.74925" lon="1.39312">
        <ele>2270</ele>
        <time>2023-08-09T08:20:20Z</time>
      </trkpt>
      <trkpt lat="42.7492" lon="1.39311">
        <ele>2270</ele>
        <time>2023-08-09T08:20:32Z</time>
      </trkpt>
      <trkpt lat="42.7492" lon="1.39306">
        <ele>2270</ele>
        <time>2023-08-09T08:20:37Z</time>
      </trkpt>
      <trkpt lat="42.74914" lon="1.39302">
        <ele>2272</ele>
        <time>2023-08-09T08:20:49Z</time>
      </trkpt>
      <trkpt lat="42.7491" lon="1.39299">
        <ele>2271</ele>
        <time>2023-08-09T08:20:54Z</time>
      </trkpt>
      <trkpt lat="42.74904" lon="1.39294">
        <ele>2272</ele>
        <time>2023-08-09T08:21:06Z</time>
      </trkpt>
      <trkpt lat="42.74899" lon="1.39291">
        <ele>2273</ele>
        <time>2023-08-09T08:21:18Z</time>
      </trkpt>
      <trkpt lat="42.74895" lon="1.39289">
        <ele>2272</ele>
        <time>2023-08-09T08:21:23Z</time>
      </trkpt>
      <trkpt lat="42.74892" lon="1.39285">
        <ele>2272</ele>
        <time>2023-08-09T08:21:27Z</time>
      </trkpt>
      <trkpt lat="42.74884" lon="1.39284">
        <ele>2273</ele>
        <time>2023-08-09T08:21:41Z</time>
      </trkpt>
      <trkpt lat="42.74882" lon="1.39279">
        <ele>2273</ele>
        <time>2023-08-09T08:21:47Z</time>
      </trkpt>
      <trkpt lat="42.74877" lon="1.39277">
        <ele>2273</ele>
        <time>2023-08-09T08:21:54Z</time>
      </trkpt>
      <trkpt lat="42.74873" lon="1.39275">
        <ele>2274</ele>
        <time>2023-08-09T08:22:06Z</time>
      </trkpt>
      <trkpt lat="42.74859" lon="1.3927">
        <ele>2277</ele>
        <time>2023-08-09T08:22:27Z</time>
      </trkpt>
      <trkpt lat="42.74855" lon="1.39262">
        <ele>2278</ele>
        <time>2023-08-09T08:22:38Z</time>
      </trkpt>
      <trkpt lat="42.74851" lon="1.39257">
        <ele>2280</ele>
        <time>2023-08-09T08:22:50Z</time>
      </trkpt>
      <trkpt lat="42.74847" lon="1.39251">
        <ele>2282</ele>
        <time>2023-08-09T08:23:02Z</time>
      </trkpt>
      <trkpt lat="42.74843" lon="1.39247">
        <ele>2284</ele>
        <time>2023-08-09T08:23:14Z</time>
      </trkpt>
      <trkpt lat="42.74838" lon="1.39243">
        <ele>2285</ele>
        <time>2023-08-09T08:23:26Z</time>
      </trkpt>
      <trkpt lat="42.74834" lon="1.39242">
        <ele>2285</ele>
        <time>2023-08-09T08:23:32Z</time>
      </trkpt>
      <trkpt lat="42.74829" lon="1.39243">
        <ele>2286</ele>
        <time>2023-08-09T08:23:39Z</time>
      </trkpt>
      <trkpt lat="42.74824" lon="1.39241">
        <ele>2286</ele>
        <time>2023-08-09T08:23:47Z</time>
      </trkpt>
      <trkpt lat="42.7482" lon="1.39239">
        <ele>2286</ele>
        <time>2023-08-09T08:23:53Z</time>
      </trkpt>
      <trkpt lat="42.74813" lon="1.39237">
        <ele>2286</ele>
        <time>2023-08-09T08:24:05Z</time>
      </trkpt>
      <trkpt lat="42.74803" lon="1.39239">
        <ele>2289</ele>
        <time>2023-08-09T08:24:28Z</time>
      </trkpt>
      <trkpt lat="42.74799" lon="1.39236">
        <ele>2288</ele>
        <time>2023-08-09T08:24:41Z</time>
      </trkpt>
      <trkpt lat="42.74795" lon="1.39232">
        <ele>2289</ele>
        <time>2023-08-09T08:24:56Z</time>
      </trkpt>
      <trkpt lat="42.7479" lon="1.3923">
        <ele>2292</ele>
        <time>2023-08-09T08:25:08Z</time>
      </trkpt>
      <trkpt lat="42.74786" lon="1.39224">
        <ele>2294</ele>
        <time>2023-08-09T08:25:20Z</time>
      </trkpt>
      <trkpt lat="42.74781" lon="1.39221">
        <ele>2295</ele>
        <time>2023-08-09T08:25:32Z</time>
      </trkpt>
      <trkpt lat="42.74774" lon="1.3922">
        <ele>2295</ele>
        <time>2023-08-09T08:25:45Z</time>
      </trkpt>
      <trkpt lat="42.74768" lon="1.39216">
        <ele>2297</ele>
        <time>2023-08-09T08:25:57Z</time>
      </trkpt>
      <trkpt lat="42.74759" lon="1.39213">
        <ele>2300</ele>
        <time>2023-08-09T08:26:21Z</time>
      </trkpt>
      <trkpt lat="42.74754" lon="1.39208">
        <ele>2302</ele>
        <time>2023-08-09T08:26:33Z</time>
      </trkpt>
      <trkpt lat="42.74738" lon="1.39203">
        <ele>2307</ele>
        <time>2023-08-09T08:27:09Z</time>
      </trkpt>
      <trkpt lat="42.74726" lon="1.39198">
        <ele>2306</ele>
        <time>2023-08-09T08:27:29Z</time>
      </trkpt>
      <trkpt lat="42.74717" lon="1.39197">
        <ele>2305</ele>
        <time>2023-08-09T08:27:40Z</time>
      </trkpt>
      <trkpt lat="42.74712" lon="1.39196">
        <ele>2305</ele>
        <time>2023-08-09T08:27:48Z</time>
      </trkpt>
      <trkpt lat="42.74708" lon="1.39195">
        <ele>2305</ele>
        <time>2023-08-09T08:27:54Z</time>
      </trkpt>
      <trkpt lat="42.74702" lon="1.39191">
        <ele>2305</ele>
        <time>2023-08-09T08:28:01Z</time>
      </trkpt>
      <trkpt lat="42.74697" lon="1.39193">
        <ele>2307</ele>
        <time>2023-08-09T08:28:14Z</time>
      </trkpt>
      <trkpt lat="42.74692" lon="1.39191">
        <ele>2308</ele>
        <time>2023-08-09T08:28:26Z</time>
      </trkpt>
      <trkpt lat="42.74689" lon="1.39187">
        <ele>2311</ele>
        <time>2023-08-09T08:28:44Z</time>
      </trkpt>
      <trkpt lat="42.74684" lon="1.39182">
        <ele>2314</ele>
        <time>2023-08-09T08:28:56Z</time>
      </trkpt>
      <trkpt lat="42.74679" lon="1.39187">
        <ele>2316</ele>
        <time>2023-08-09T08:29:14Z</time>
      </trkpt>
      <trkpt lat="42.74673" lon="1.39186">
        <ele>2318</ele>
        <time>2023-08-09T08:29:27Z</time>
      </trkpt>
      <trkpt lat="42.74669" lon="1.39185">
        <ele>2321</ele>
        <time>2023-08-09T08:29:45Z</time>
      </trkpt>
      <trkpt lat="42.74663" lon="1.39187">
        <ele>2324</ele>
        <time>2023-08-09T08:30:07Z</time>
      </trkpt>
      <trkpt lat="42.74661" lon="1.39182">
        <ele>2326</ele>
        <time>2023-08-09T08:30:19Z</time>
      </trkpt>
      <trkpt lat="42.74657" lon="1.39179">
        <ele>2330</ele>
        <time>2023-08-09T08:30:43Z</time>
      </trkpt>
      <trkpt lat="42.74651" lon="1.39178">
        <ele>2332</ele>
        <time>2023-08-09T08:30:56Z</time>
      </trkpt>
      <trkpt lat="42.74647" lon="1.39181">
        <ele>2332</ele>
        <time>2023-08-09T08:31:03Z</time>
      </trkpt>
      <trkpt lat="42.74643" lon="1.39183">
        <ele>2333</ele>
        <time>2023-08-09T08:31:15Z</time>
      </trkpt>
      <trkpt lat="42.74637" lon="1.39181">
        <ele>2336</ele>
        <time>2023-08-09T08:31:33Z</time>
      </trkpt>
      <trkpt lat="42.74632" lon="1.39181">
        <ele>2339</ele>
        <time>2023-08-09T08:31:51Z</time>
      </trkpt>
      <trkpt lat="42.74628" lon="1.3918">
        <ele>2341</ele>
        <time>2023-08-09T08:32:04Z</time>
      </trkpt>
      <trkpt lat="42.74623" lon="1.39179">
        <ele>2343</ele>
        <time>2023-08-09T08:32:18Z</time>
      </trkpt>
      <trkpt lat="42.74619" lon="1.39177">
        <ele>2345</ele>
        <time>2023-08-09T08:32:30Z</time>
      </trkpt>
      <trkpt lat="42.74615" lon="1.39174">
        <ele>2347</ele>
        <time>2023-08-09T08:32:42Z</time>
      </trkpt>
      <trkpt lat="42.74608" lon="1.39174">
        <ele>2351</ele>
        <time>2023-08-09T08:32:54Z</time>
      </trkpt>
      <trkpt lat="42.74604" lon="1.39177">
        <ele>2351</ele>
        <time>2023-08-09T08:33:01Z</time>
      </trkpt>
      <trkpt lat="42.74598" lon="1.39184">
        <ele>2354</ele>
        <time>2023-08-09T08:33:16Z</time>
      </trkpt>
      <trkpt lat="42.74593" lon="1.39186">
        <ele>2359</ele>
        <time>2023-08-09T08:33:28Z</time>
      </trkpt>
      <trkpt lat="42.74588" lon="1.39189">
        <ele>2357</ele>
        <time>2023-08-09T08:33:34Z</time>
      </trkpt>
      <trkpt lat="42.74584" lon="1.39191">
        <ele>2357</ele>
        <time>2023-08-09T08:33:39Z</time>
      </trkpt>
      <trkpt lat="42.7458" lon="1.39193">
        <ele>2357</ele>
        <time>2023-08-09T08:33:43Z</time>
      </trkpt>
      <trkpt lat="42.74575" lon="1.39195">
        <ele>2356</ele>
        <time>2023-08-09T08:33:47Z</time>
      </trkpt>
      <trkpt lat="42.74563" lon="1.39194">
        <ele>2360</ele>
        <time>2023-08-09T08:33:59Z</time>
      </trkpt>
      <trkpt lat="42.74559" lon="1.39197">
        <ele>2359</ele>
        <time>2023-08-09T08:34:03Z</time>
      </trkpt>
      <trkpt lat="42.74555" lon="1.39198">
        <ele>2358</ele>
        <time>2023-08-09T08:34:24Z</time>
      </trkpt>
      <trkpt lat="42.74554" lon="1.39203">
        <ele>2355</ele>
        <time>2023-08-09T08:37:36Z</time>
      </trkpt>
      <trkpt lat="42.74551" lon="1.39197">
        <ele>2359</ele>
        <time>2023-08-09T08:39:18Z</time>
      </trkpt>
      <trkpt lat="42.74552" lon="1.39196">
        <ele>2359</ele>
        <time>2023-08-09T08:41:17Z</time>
      </trkpt>
      <trkpt lat="42.74548" lon="1.39198">
        <ele>2362</ele>
        <time>2023-08-09T08:45:40Z</time>
      </trkpt>
      <trkpt lat="42.74543" lon="1.39198">
        <ele>2360</ele>
        <time>2023-08-09T08:45:45Z</time>
      </trkpt>
      <trkpt lat="42.74534" lon="1.39199">
        <ele>2364</ele>
        <time>2023-08-09T08:46:03Z</time>
      </trkpt>
      <trkpt lat="42.74527" lon="1.392">
        <ele>2367</ele>
        <time>2023-08-09T08:46:15Z</time>
      </trkpt>
      <trkpt lat="42.74525" lon="1.39196">
        <ele>2367</ele>
        <time>2023-08-09T08:46:21Z</time>
      </trkpt>
      <trkpt lat="42.74515" lon="1.392">
        <ele>2371</ele>
        <time>2023-08-09T08:46:50Z</time>
      </trkpt>
      <trkpt lat="42.74509" lon="1.39198">
        <ele>2369</ele>
        <time>2023-08-09T08:47:02Z</time>
      </trkpt>
      <trkpt lat="42.74504" lon="1.39198">
        <ele>2371</ele>
        <time>2023-08-09T08:47:19Z</time>
      </trkpt>
      <trkpt lat="42.74499" lon="1.39197">
        <ele>2373</ele>
        <time>2023-08-09T08:47:31Z</time>
      </trkpt>
      <trkpt lat="42.74493" lon="1.39195">
        <ele>2374</ele>
        <time>2023-08-09T08:47:43Z</time>
      </trkpt>
      <trkpt lat="42.74486" lon="1.39196">
        <ele>2377</ele>
        <time>2023-08-09T08:48:01Z</time>
      </trkpt>
      <trkpt lat="42.7448" lon="1.39199">
        <ele>2379</ele>
        <time>2023-08-09T08:48:13Z</time>
      </trkpt>
      <trkpt lat="42.74468" lon="1.39199">
        <ele>2383</ele>
        <time>2023-08-09T08:48:44Z</time>
      </trkpt>
      <trkpt lat="42.74461" lon="1.39202">
        <ele>2384</ele>
        <time>2023-08-09T08:48:56Z</time>
      </trkpt>
      <trkpt lat="42.74454" lon="1.39204">
        <ele>2384</ele>
        <time>2023-08-09T08:49:08Z</time>
      </trkpt>
      <trkpt lat="42.74447" lon="1.39205">
        <ele>2387</ele>
        <time>2023-08-09T08:49:20Z</time>
      </trkpt>
      <trkpt lat="42.74436" lon="1.39214">
        <ele>2384</ele>
        <time>2023-08-09T08:49:50Z</time>
      </trkpt>
      <trkpt lat="42.74436" lon="1.39221">
        <ele>2384</ele>
        <time>2023-08-09T08:50:03Z</time>
      </trkpt>
      <trkpt lat="42.74428" lon="1.39228">
        <ele>2383</ele>
        <time>2023-08-09T08:50:13Z</time>
      </trkpt>
      <trkpt lat="42.74424" lon="1.39226">
        <ele>2383</ele>
        <time>2023-08-09T08:50:17Z</time>
      </trkpt>
      <trkpt lat="42.74418" lon="1.39228">
        <ele>2385</ele>
        <time>2023-08-09T08:50:24Z</time>
      </trkpt>
      <trkpt lat="42.74413" lon="1.39227">
        <ele>2387</ele>
        <time>2023-08-09T08:50:32Z</time>
      </trkpt>
      <trkpt lat="42.74408" lon="1.3922">
        <ele>2387</ele>
        <time>2023-08-09T08:50:43Z</time>
      </trkpt>
      <trkpt lat="42.74403" lon="1.39217">
        <ele>2387</ele>
        <time>2023-08-09T08:50:51Z</time>
      </trkpt>
      <trkpt lat="42.74398" lon="1.39214">
        <ele>2387</ele>
        <time>2023-08-09T08:51:02Z</time>
      </trkpt>
      <trkpt lat="42.74393" lon="1.39212">
        <ele>2388</ele>
        <time>2023-08-09T08:51:14Z</time>
      </trkpt>
      <trkpt lat="42.74395" lon="1.39206">
        <ele>2388</ele>
        <time>2023-08-09T08:51:18Z</time>
      </trkpt>
      <trkpt lat="42.74392" lon="1.392">
        <ele>2389</ele>
        <time>2023-08-09T08:51:31Z</time>
      </trkpt>
      <trkpt lat="42.74388" lon="1.39199">
        <ele>2389</ele>
        <time>2023-08-09T08:51:43Z</time>
      </trkpt>
      <trkpt lat="42.74382" lon="1.39195">
        <ele>2388</ele>
        <time>2023-08-09T08:51:55Z</time>
      </trkpt>
      <trkpt lat="42.74377" lon="1.3919">
        <ele>2388</ele>
        <time>2023-08-09T08:52:07Z</time>
      </trkpt>
      <trkpt lat="42.74372" lon="1.39188">
        <ele>2390</ele>
        <time>2023-08-09T08:52:19Z</time>
      </trkpt>
      <trkpt lat="42.74368" lon="1.39184">
        <ele>2391</ele>
        <time>2023-08-09T08:52:25Z</time>
      </trkpt>
      <trkpt lat="42.74364" lon="1.39185">
        <ele>2392</ele>
        <time>2023-08-09T08:52:33Z</time>
      </trkpt>
      <trkpt lat="42.74358" lon="1.39183">
        <ele>2392</ele>
        <time>2023-08-09T08:52:45Z</time>
      </trkpt>
      <trkpt lat="42.74353" lon="1.3918">
        <ele>2393</ele>
        <time>2023-08-09T08:52:56Z</time>
      </trkpt>
      <trkpt lat="42.74346" lon="1.39175">
        <ele>2393</ele>
        <time>2023-08-09T08:53:38Z</time>
      </trkpt>
      <trkpt lat="42.74342" lon="1.39177">
        <ele>2392</ele>
        <time>2023-08-09T08:53:50Z</time>
      </trkpt>
      <trkpt lat="42.74336" lon="1.39171">
        <ele>2393</ele>
        <time>2023-08-09T08:54:01Z</time>
      </trkpt>
      <trkpt lat="42.74332" lon="1.39166">
        <ele>2393</ele>
        <time>2023-08-09T08:54:15Z</time>
      </trkpt>
      <trkpt lat="42.74328" lon="1.39166">
        <ele>2395</ele>
        <time>2023-08-09T08:54:27Z</time>
      </trkpt>
      <trkpt lat="42.74322" lon="1.39169">
        <ele>2396</ele>
        <time>2023-08-09T08:54:39Z</time>
      </trkpt>
      <trkpt lat="42.74314" lon="1.39166">
        <ele>2398</ele>
        <time>2023-08-09T08:54:51Z</time>
      </trkpt>
      <trkpt lat="42.74312" lon="1.39161">
        <ele>2398</ele>
        <time>2023-08-09T08:54:56Z</time>
      </trkpt>
      <trkpt lat="42.74305" lon="1.39158">
        <ele>2397</ele>
        <time>2023-08-09T08:55:15Z</time>
      </trkpt>
      <trkpt lat="42.743" lon="1.39158">
        <ele>2396</ele>
        <time>2023-08-09T08:55:19Z</time>
      </trkpt>
      <trkpt lat="42.74304" lon="1.39148">
        <ele>2398</ele>
        <time>2023-08-09T08:55:36Z</time>
      </trkpt>
      <trkpt lat="42.74298" lon="1.39147">
        <ele>2399</ele>
        <time>2023-08-09T08:55:55Z</time>
      </trkpt>
      <trkpt lat="42.74296" lon="1.3914">
        <ele>2399</ele>
        <time>2023-08-09T08:56:07Z</time>
      </trkpt>
      <trkpt lat="42.74295" lon="1.39127">
        <ele>2403</ele>
        <time>2023-08-09T08:56:31Z</time>
      </trkpt>
      <trkpt lat="42.74293" lon="1.39121">
        <ele>2403</ele>
        <time>2023-08-09T08:56:36Z</time>
      </trkpt>
      <trkpt lat="42.74289" lon="1.39118">
        <ele>2406</ele>
        <time>2023-08-09T08:56:51Z</time>
      </trkpt>
      <trkpt lat="42.74287" lon="1.39111">
        <ele>2407</ele>
        <time>2023-08-09T08:57:03Z</time>
      </trkpt>
      <trkpt lat="42.74283" lon="1.39106">
        <ele>2409</ele>
        <time>2023-08-09T08:57:15Z</time>
      </trkpt>
      <trkpt lat="42.74272" lon="1.39102">
        <ele>2411</ele>
        <time>2023-08-09T08:57:32Z</time>
      </trkpt>
      <trkpt lat="42.74264" lon="1.391">
        <ele>2411</ele>
        <time>2023-08-09T08:57:42Z</time>
      </trkpt>
      <trkpt lat="42.74259" lon="1.39101">
        <ele>2410</ele>
        <time>2023-08-09T08:57:49Z</time>
      </trkpt>
      <trkpt lat="42.74254" lon="1.391">
        <ele>2410</ele>
        <time>2023-08-09T08:57:55Z</time>
      </trkpt>
      <trkpt lat="42.74245" lon="1.39097">
        <ele>2412</ele>
        <time>2023-08-09T08:58:09Z</time>
      </trkpt>
      <trkpt lat="42.74238" lon="1.39098">
        <ele>2413</ele>
        <time>2023-08-09T08:58:18Z</time>
      </trkpt>
      <trkpt lat="42.74234" lon="1.39095">
        <ele>2413</ele>
        <time>2023-08-09T08:58:26Z</time>
      </trkpt>
      <trkpt lat="42.74227" lon="1.39089">
        <ele>2414</ele>
        <time>2023-08-09T08:58:36Z</time>
      </trkpt>
      <trkpt lat="42.74222" lon="1.39083">
        <ele>2416</ele>
        <time>2023-08-09T08:58:48Z</time>
      </trkpt>
      <trkpt lat="42.74218" lon="1.39077">
        <ele>2416</ele>
        <time>2023-08-09T08:59:00Z</time>
      </trkpt>
      <trkpt lat="42.74213" lon="1.39072">
        <ele>2418</ele>
        <time>2023-08-09T08:59:12Z</time>
      </trkpt>
      <trkpt lat="42.74208" lon="1.3907">
        <ele>2417</ele>
        <time>2023-08-09T08:59:24Z</time>
      </trkpt>
      <trkpt lat="42.74197" lon="1.39059">
        <ele>2421</ele>
        <time>2023-08-09T08:59:48Z</time>
      </trkpt>
      <trkpt lat="42.74194" lon="1.39052">
        <ele>2421</ele>
        <time>2023-08-09T08:59:56Z</time>
      </trkpt>
      <trkpt lat="42.74191" lon="1.39048">
        <ele>2421</ele>
        <time>2023-08-09T09:00:02Z</time>
      </trkpt>
      <trkpt lat="42.74186" lon="1.39051">
        <ele>2422</ele>
        <time>2023-08-09T09:00:14Z</time>
      </trkpt>
      <trkpt lat="42.74165" lon="1.39055">
        <ele>2427</ele>
        <time>2023-08-09T09:00:53Z</time>
      </trkpt>
      <trkpt lat="42.74162" lon="1.39049">
        <ele>2428</ele>
        <time>2023-08-09T09:00:57Z</time>
      </trkpt>
      <trkpt lat="42.74157" lon="1.39048">
        <ele>2431</ele>
        <time>2023-08-09T09:01:12Z</time>
      </trkpt>
      <trkpt lat="42.74152" lon="1.39048">
        <ele>2431</ele>
        <time>2023-08-09T09:01:18Z</time>
      </trkpt>
      <trkpt lat="42.74145" lon="1.3905">
        <ele>2434</ele>
        <time>2023-08-09T09:01:30Z</time>
      </trkpt>
      <trkpt lat="42.74138" lon="1.39053">
        <ele>2435</ele>
        <time>2023-08-09T09:01:42Z</time>
      </trkpt>
      <trkpt lat="42.74128" lon="1.3905">
        <ele>2438</ele>
        <time>2023-08-09T09:02:00Z</time>
      </trkpt>
      <trkpt lat="42.74114" lon="1.39051">
        <ele>2441</ele>
        <time>2023-08-09T09:02:25Z</time>
      </trkpt>
      <trkpt lat="42.7411" lon="1.39052">
        <ele>2443</ele>
        <time>2023-08-09T09:02:37Z</time>
      </trkpt>
      <trkpt lat="42.74105" lon="1.3905">
        <ele>2445</ele>
        <time>2023-08-09T09:02:49Z</time>
      </trkpt>
      <trkpt lat="42.74101" lon="1.39051">
        <ele>2447</ele>
        <time>2023-08-09T09:03:01Z</time>
      </trkpt>
      <trkpt lat="42.74092" lon="1.3905">
        <ele>2449</ele>
        <time>2023-08-09T09:03:20Z</time>
      </trkpt>
      <trkpt lat="42.74082" lon="1.39057">
        <ele>2452</ele>
        <time>2023-08-09T09:03:39Z</time>
      </trkpt>
      <trkpt lat="42.74071" lon="1.39057">
        <ele>2456</ele>
        <time>2023-08-09T09:04:09Z</time>
      </trkpt>
      <trkpt lat="42.74065" lon="1.39059">
        <ele>2458</ele>
        <time>2023-08-09T09:04:21Z</time>
      </trkpt>
      <trkpt lat="42.74059" lon="1.39062">
        <ele>2459</ele>
        <time>2023-08-09T09:04:34Z</time>
      </trkpt>
      <trkpt lat="42.74053" lon="1.39061">
        <ele>2464</ele>
        <time>2023-08-09T09:04:52Z</time>
      </trkpt>
      <trkpt lat="42.74039" lon="1.39067">
        <ele>2466</ele>
        <time>2023-08-09T09:05:18Z</time>
      </trkpt>
      <trkpt lat="42.74028" lon="1.3907">
        <ele>2470</ele>
        <time>2023-08-09T09:05:42Z</time>
      </trkpt>
      <trkpt lat="42.74024" lon="1.39068">
        <ele>2472</ele>
        <time>2023-08-09T09:05:54Z</time>
      </trkpt>
      <trkpt lat="42.74007" lon="1.39067">
        <ele>2477</ele>
        <time>2023-08-09T09:06:32Z</time>
      </trkpt>
      <trkpt lat="42.73996" lon="1.39069">
        <ele>2479</ele>
        <time>2023-08-09T09:06:50Z</time>
      </trkpt>
      <trkpt lat="42.7399" lon="1.3907">
        <ele>2481</ele>
        <time>2023-08-09T09:07:02Z</time>
      </trkpt>
      <trkpt lat="42.73981" lon="1.3907">
        <ele>2482</ele>
        <time>2023-08-09T09:07:14Z</time>
      </trkpt>
      <trkpt lat="42.73973" lon="1.39073">
        <ele>2481</ele>
        <time>2023-08-09T09:07:28Z</time>
      </trkpt>
      <trkpt lat="42.73969" lon="1.39074">
        <ele>2482</ele>
        <time>2023-08-09T09:07:34Z</time>
      </trkpt>
      <trkpt lat="42.73964" lon="1.39076">
        <ele>2481</ele>
        <time>2023-08-09T09:07:39Z</time>
      </trkpt>
      <trkpt lat="42.7396" lon="1.39076">
        <ele>2481</ele>
        <time>2023-08-09T09:07:43Z</time>
      </trkpt>
      <trkpt lat="42.73955" lon="1.39075">
        <ele>2481</ele>
        <time>2023-08-09T09:07:48Z</time>
      </trkpt>
      <trkpt lat="42.73947" lon="1.39075">
        <ele>2483</ele>
        <time>2023-08-09T09:08:01Z</time>
      </trkpt>
      <trkpt lat="42.73939" lon="1.39073">
        <ele>2484</ele>
        <time>2023-08-09T09:08:13Z</time>
      </trkpt>
      <trkpt lat="42.73935" lon="1.39067">
        <ele>2485</ele>
        <time>2023-08-09T09:08:25Z</time>
      </trkpt>
      <trkpt lat="42.7393" lon="1.39066">
        <ele>2487</ele>
        <time>2023-08-09T09:08:37Z</time>
      </trkpt>
      <trkpt lat="42.73925" lon="1.39062">
        <ele>2489</ele>
        <time>2023-08-09T09:08:49Z</time>
      </trkpt>
      <trkpt lat="42.73919" lon="1.39061">
        <ele>2490</ele>
        <time>2023-08-09T09:09:02Z</time>
      </trkpt>
      <trkpt lat="42.73915" lon="1.39059">
        <ele>2490</ele>
        <time>2023-08-09T09:09:10Z</time>
      </trkpt>
      <trkpt lat="42.73908" lon="1.3906">
        <ele>2492</ele>
        <time>2023-08-09T09:09:22Z</time>
      </trkpt>
      <trkpt lat="42.73899" lon="1.39065">
        <ele>2494</ele>
        <time>2023-08-09T09:09:45Z</time>
      </trkpt>
      <trkpt lat="42.73895" lon="1.39063">
        <ele>2495</ele>
        <time>2023-08-09T09:09:49Z</time>
      </trkpt>
      <trkpt lat="42.73889" lon="1.39066">
        <ele>2497</ele>
        <time>2023-08-09T09:10:02Z</time>
      </trkpt>
      <trkpt lat="42.73862" lon="1.39072">
        <ele>2502</ele>
        <time>2023-08-09T09:10:45Z</time>
      </trkpt>
      <trkpt lat="42.73856" lon="1.39072">
        <ele>2503</ele>
        <time>2023-08-09T09:10:57Z</time>
      </trkpt>
      <trkpt lat="42.7385" lon="1.39074">
        <ele>2505</ele>
        <time>2023-08-09T09:11:09Z</time>
      </trkpt>
      <trkpt lat="42.73842" lon="1.39074">
        <ele>2508</ele>
        <time>2023-08-09T09:11:28Z</time>
      </trkpt>
      <trkpt lat="42.73837" lon="1.39074">
        <ele>2508</ele>
        <time>2023-08-09T09:11:35Z</time>
      </trkpt>
      <trkpt lat="42.73827" lon="1.3907">
        <ele>2508</ele>
        <time>2023-08-09T09:11:49Z</time>
      </trkpt>
      <trkpt lat="42.73821" lon="1.3907">
        <ele>2509</ele>
        <time>2023-08-09T09:11:56Z</time>
      </trkpt>
      <trkpt lat="42.73817" lon="1.39066">
        <ele>2509</ele>
        <time>2023-08-09T09:12:05Z</time>
      </trkpt>
      <trkpt lat="42.73808" lon="1.39062">
        <ele>2510</ele>
        <time>2023-08-09T09:12:14Z</time>
      </trkpt>
      <trkpt lat="42.73804" lon="1.39062">
        <ele>2510</ele>
        <time>2023-08-09T09:12:18Z</time>
      </trkpt>
      <trkpt lat="42.73791" lon="1.39057">
        <ele>2514</ele>
        <time>2023-08-09T09:12:52Z</time>
      </trkpt>
      <trkpt lat="42.73784" lon="1.39059">
        <ele>2514</ele>
        <time>2023-08-09T09:13:11Z</time>
      </trkpt>
      <trkpt lat="42.73779" lon="1.39058">
        <ele>2516</ele>
        <time>2023-08-09T09:13:23Z</time>
      </trkpt>
      <trkpt lat="42.73775" lon="1.39059">
        <ele>2518</ele>
        <time>2023-08-09T09:13:35Z</time>
      </trkpt>
      <trkpt lat="42.73769" lon="1.39059">
        <ele>2520</ele>
        <time>2023-08-09T09:13:47Z</time>
      </trkpt>
      <trkpt lat="42.73764" lon="1.39061">
        <ele>2522</ele>
        <time>2023-08-09T09:14:03Z</time>
      </trkpt>
      <trkpt lat="42.73759" lon="1.39059">
        <ele>2524</ele>
        <time>2023-08-09T09:14:15Z</time>
      </trkpt>
      <trkpt lat="42.73756" lon="1.39052">
        <ele>2528</ele>
        <time>2023-08-09T09:14:39Z</time>
      </trkpt>
      <trkpt lat="42.73751" lon="1.39054">
        <ele>2529</ele>
        <time>2023-08-09T09:14:51Z</time>
      </trkpt>
      <trkpt lat="42.73746" lon="1.39054">
        <ele>2531</ele>
        <time>2023-08-09T09:15:09Z</time>
      </trkpt>
      <trkpt lat="42.73744" lon="1.39059">
        <ele>2533</ele>
        <time>2023-08-09T09:15:21Z</time>
      </trkpt>
      <trkpt lat="42.73738" lon="1.39064">
        <ele>2536</ele>
        <time>2023-08-09T09:15:40Z</time>
      </trkpt>
      <trkpt lat="42.73733" lon="1.39064">
        <ele>2538</ele>
        <time>2023-08-09T09:15:52Z</time>
      </trkpt>
      <trkpt lat="42.73724" lon="1.39074">
        <ele>2544</ele>
        <time>2023-08-09T09:16:27Z</time>
      </trkpt>
      <trkpt lat="42.7372" lon="1.39079">
        <ele>2546</ele>
        <time>2023-08-09T09:16:39Z</time>
      </trkpt>
      <trkpt lat="42.73717" lon="1.39088">
        <ele>2546</ele>
        <time>2023-08-09T09:16:51Z</time>
      </trkpt>
      <trkpt lat="42.73718" lon="1.39096">
        <ele>2547</ele>
        <time>2023-08-09T09:17:03Z</time>
      </trkpt>
      <trkpt lat="42.73712" lon="1.39103">
        <ele>2548</ele>
        <time>2023-08-09T09:17:16Z</time>
      </trkpt>
      <trkpt lat="42.73706" lon="1.39106">
        <ele>2552</ele>
        <time>2023-08-09T09:17:40Z</time>
      </trkpt>
      <trkpt lat="42.73702" lon="1.3911">
        <ele>2554</ele>
        <time>2023-08-09T09:17:52Z</time>
      </trkpt>
      <trkpt lat="42.73697" lon="1.39112">
        <ele>2560</ele>
        <time>2023-08-09T09:18:11Z</time>
      </trkpt>
      <trkpt lat="42.73693" lon="1.39106">
        <ele>2564</ele>
        <time>2023-08-09T09:18:35Z</time>
      </trkpt>
      <trkpt lat="42.73692" lon="1.39098">
        <ele>2567</ele>
        <time>2023-08-09T09:19:05Z</time>
      </trkpt>
      <trkpt lat="42.73689" lon="1.39102">
        <ele>2569</ele>
        <time>2023-08-09T09:19:17Z</time>
      </trkpt>
      <trkpt lat="42.73683" lon="1.39102">
        <ele>2570</ele>
        <time>2023-08-09T09:19:29Z</time>
      </trkpt>
      <trkpt lat="42.73679" lon="1.39105">
        <ele>2573</ele>
        <time>2023-08-09T09:19:41Z</time>
      </trkpt>
      <trkpt lat="42.73678" lon="1.3911">
        <ele>2574</ele>
        <time>2023-08-09T09:19:53Z</time>
      </trkpt>
      <trkpt lat="42.73673" lon="1.39109">
        <ele>2577</ele>
        <time>2023-08-09T09:20:16Z</time>
      </trkpt>
      <trkpt lat="42.73668" lon="1.39114">
        <ele>2579</ele>
        <time>2023-08-09T09:20:28Z</time>
      </trkpt>
      <trkpt lat="42.73666" lon="1.39109">
        <ele>2584</ele>
        <time>2023-08-09T09:20:46Z</time>
      </trkpt>
      <trkpt lat="42.73661" lon="1.3911">
        <ele>2585</ele>
        <time>2023-08-09T09:20:58Z</time>
      </trkpt>
      <trkpt lat="42.73656" lon="1.39116">
        <ele>2586</ele>
        <time>2023-08-09T09:21:16Z</time>
      </trkpt>
      <trkpt lat="42.73653" lon="1.39122">
        <ele>2587</ele>
        <time>2023-08-09T09:21:28Z</time>
      </trkpt>
      <trkpt lat="42.73648" lon="1.39123">
        <ele>2590</ele>
        <time>2023-08-09T09:21:52Z</time>
      </trkpt>
      <trkpt lat="42.73641" lon="1.39134">
        <ele>2594</ele>
        <time>2023-08-09T09:22:16Z</time>
      </trkpt>
      <trkpt lat="42.73636" lon="1.39137">
        <ele>2597</ele>
        <time>2023-08-09T09:22:38Z</time>
      </trkpt>
      <trkpt lat="42.73633" lon="1.3914">
        <ele>2599</ele>
        <time>2023-08-09T09:22:50Z</time>
      </trkpt>
      <trkpt lat="42.73629" lon="1.39144">
        <ele>2602</ele>
        <time>2023-08-09T09:23:02Z</time>
      </trkpt>
      <trkpt lat="42.73623" lon="1.39147">
        <ele>2604</ele>
        <time>2023-08-09T09:23:20Z</time>
      </trkpt>
      <trkpt lat="42.73615" lon="1.39142">
        <ele>2610</ele>
        <time>2023-08-09T09:23:50Z</time>
      </trkpt>
      <trkpt lat="42.73611" lon="1.39145">
        <ele>2612</ele>
        <time>2023-08-09T09:24:02Z</time>
      </trkpt>
      <trkpt lat="42.73607" lon="1.39145">
        <ele>2613</ele>
        <time>2023-08-09T09:24:15Z</time>
      </trkpt>
      <trkpt lat="42.73602" lon="1.39149">
        <ele>2615</ele>
        <time>2023-08-09T09:24:27Z</time>
      </trkpt>
      <trkpt lat="42.73599" lon="1.39144">
        <ele>2618</ele>
        <time>2023-08-09T09:24:43Z</time>
      </trkpt>
      <trkpt lat="42.73593" lon="1.39144">
        <ele>2619</ele>
        <time>2023-08-09T09:24:55Z</time>
      </trkpt>
      <trkpt lat="42.73589" lon="1.39142">
        <ele>2620</ele>
        <time>2023-08-09T09:25:07Z</time>
      </trkpt>
      <trkpt lat="42.73585" lon="1.39149">
        <ele>2621</ele>
        <time>2023-08-09T09:25:20Z</time>
      </trkpt>
      <trkpt lat="42.73583" lon="1.39157">
        <ele>2624</ele>
        <time>2023-08-09T09:25:35Z</time>
      </trkpt>
      <trkpt lat="42.73579" lon="1.3916">
        <ele>2625</ele>
        <time>2023-08-09T09:25:47Z</time>
      </trkpt>
      <trkpt lat="42.73578" lon="1.39166">
        <ele>2626</ele>
        <time>2023-08-09T09:25:59Z</time>
      </trkpt>
      <trkpt lat="42.73574" lon="1.39162">
        <ele>2629</ele>
        <time>2023-08-09T09:26:11Z</time>
      </trkpt>
      <trkpt lat="42.7357" lon="1.39164">
        <ele>2631</ele>
        <time>2023-08-09T09:26:23Z</time>
      </trkpt>
      <trkpt lat="42.73566" lon="1.39168">
        <ele>2631</ele>
        <time>2023-08-09T09:26:34Z</time>
      </trkpt>
      <trkpt lat="42.73563" lon="1.39174">
        <ele>2633</ele>
        <time>2023-08-09T09:26:46Z</time>
      </trkpt>
      <trkpt lat="42.73558" lon="1.39174">
        <ele>2635</ele>
        <time>2023-08-09T09:27:04Z</time>
      </trkpt>
      <trkpt lat="42.73553" lon="1.39174">
        <ele>2638</ele>
        <time>2023-08-09T09:27:22Z</time>
      </trkpt>
      <trkpt lat="42.73549" lon="1.39169">
        <ele>2640</ele>
        <time>2023-08-09T09:27:34Z</time>
      </trkpt>
      <trkpt lat="42.73545" lon="1.39173">
        <ele>2641</ele>
        <time>2023-08-09T09:27:46Z</time>
      </trkpt>
      <trkpt lat="42.7354" lon="1.39174">
        <ele>2643</ele>
        <time>2023-08-09T09:27:58Z</time>
      </trkpt>
      <trkpt lat="42.73535" lon="1.39169">
        <ele>2644</ele>
        <time>2023-08-09T09:28:10Z</time>
      </trkpt>
      <trkpt lat="42.73529" lon="1.39171">
        <ele>2645</ele>
        <time>2023-08-09T09:28:22Z</time>
      </trkpt>
      <trkpt lat="42.73524" lon="1.39172">
        <ele>2648</ele>
        <time>2023-08-09T09:28:39Z</time>
      </trkpt>
      <trkpt lat="42.73511" lon="1.39164">
        <ele>2652</ele>
        <time>2023-08-09T09:29:15Z</time>
      </trkpt>
      <trkpt lat="42.73507" lon="1.3916">
        <ele>2654</ele>
        <time>2023-08-09T09:29:27Z</time>
      </trkpt>
      <trkpt lat="42.73503" lon="1.3916">
        <ele>2655</ele>
        <time>2023-08-09T09:29:39Z</time>
      </trkpt>
      <trkpt lat="42.73497" lon="1.39158">
        <ele>2656</ele>
        <time>2023-08-09T09:29:51Z</time>
      </trkpt>
      <trkpt lat="42.73492" lon="1.39161">
        <ele>2658</ele>
        <time>2023-08-09T09:30:03Z</time>
      </trkpt>
      <trkpt lat="42.73487" lon="1.39163">
        <ele>2662</ele>
        <time>2023-08-09T09:30:21Z</time>
      </trkpt>
      <trkpt lat="42.73482" lon="1.39167">
        <ele>2663</ele>
        <time>2023-08-09T09:30:33Z</time>
      </trkpt>
      <trkpt lat="42.73481" lon="1.39176">
        <ele>2664</ele>
        <time>2023-08-09T09:30:50Z</time>
      </trkpt>
      <trkpt lat="42.73481" lon="1.39173">
        <ele>2654</ele>
        <time>2023-08-09T10:24:54Z</time>
      </trkpt>
      <trkpt lat="42.73486" lon="1.39168">
        <ele>2653</ele>
        <time>2023-08-09T10:25:41Z</time>
      </trkpt>
      <trkpt lat="42.73488" lon="1.39164">
        <ele>2651</ele>
        <time>2023-08-09T10:25:47Z</time>
      </trkpt>
      <trkpt lat="42.73492" lon="1.39161">
        <ele>2650</ele>
        <time>2023-08-09T10:25:53Z</time>
      </trkpt>
      <trkpt lat="42.73499" lon="1.39162">
        <ele>2649</ele>
        <time>2023-08-09T10:26:05Z</time>
      </trkpt>
      <trkpt lat="42.73502" lon="1.39156">
        <ele>2646</ele>
        <time>2023-08-09T10:26:11Z</time>
      </trkpt>
      <trkpt lat="42.73508" lon="1.39161">
        <ele>2646</ele>
        <time>2023-08-09T10:26:17Z</time>
      </trkpt>
      <trkpt lat="42.73512" lon="1.39158">
        <ele>2643</ele>
        <time>2023-08-09T10:26:25Z</time>
      </trkpt>
      <trkpt lat="42.73516" lon="1.39162">
        <ele>2642</ele>
        <time>2023-08-09T10:26:30Z</time>
      </trkpt>
      <trkpt lat="42.73527" lon="1.39166">
        <ele>2637</ele>
        <time>2023-08-09T10:26:50Z</time>
      </trkpt>
      <trkpt lat="42.7353" lon="1.3917">
        <ele>2636</ele>
        <time>2023-08-09T10:26:54Z</time>
      </trkpt>
      <trkpt lat="42.73543" lon="1.39171">
        <ele>2633</ele>
        <time>2023-08-09T10:27:13Z</time>
      </trkpt>
      <trkpt lat="42.73547" lon="1.39174">
        <ele>2632</ele>
        <time>2023-08-09T10:27:17Z</time>
      </trkpt>
      <trkpt lat="42.7355" lon="1.3917">
        <ele>2629</ele>
        <time>2023-08-09T10:27:23Z</time>
      </trkpt>
      <trkpt lat="42.73564" lon="1.39173">
        <ele>2624</ele>
        <time>2023-08-09T10:27:46Z</time>
      </trkpt>
      <trkpt lat="42.73569" lon="1.39174">
        <ele>2622</ele>
        <time>2023-08-09T10:27:54Z</time>
      </trkpt>
      <trkpt lat="42.73572" lon="1.39167">
        <ele>2620</ele>
        <time>2023-08-09T10:28:06Z</time>
      </trkpt>
      <trkpt lat="42.73578" lon="1.39163">
        <ele>2617</ele>
        <time>2023-08-09T10:28:18Z</time>
      </trkpt>
      <trkpt lat="42.73581" lon="1.39167">
        <ele>2616</ele>
        <time>2023-08-09T10:28:23Z</time>
      </trkpt>
      <trkpt lat="42.73586" lon="1.39156">
        <ele>2614</ele>
        <time>2023-08-09T10:28:34Z</time>
      </trkpt>
      <trkpt lat="42.73588" lon="1.39152">
        <ele>2612</ele>
        <time>2023-08-09T10:28:39Z</time>
      </trkpt>
      <trkpt lat="42.73594" lon="1.39141">
        <ele>2609</ele>
        <time>2023-08-09T10:28:50Z</time>
      </trkpt>
      <trkpt lat="42.73599" lon="1.39145">
        <ele>2607</ele>
        <time>2023-08-09T10:28:55Z</time>
      </trkpt>
      <trkpt lat="42.73602" lon="1.3914">
        <ele>2605</ele>
        <time>2023-08-09T10:29:02Z</time>
      </trkpt>
      <trkpt lat="42.73606" lon="1.39145">
        <ele>2604</ele>
        <time>2023-08-09T10:29:07Z</time>
      </trkpt>
      <trkpt lat="42.7361" lon="1.39146">
        <ele>2603</ele>
        <time>2023-08-09T10:29:21Z</time>
      </trkpt>
      <trkpt lat="42.73615" lon="1.39143">
        <ele>2600</ele>
        <time>2023-08-09T10:29:33Z</time>
      </trkpt>
      <trkpt lat="42.73621" lon="1.39143">
        <ele>2597</ele>
        <time>2023-08-09T10:29:45Z</time>
      </trkpt>
      <trkpt lat="42.73626" lon="1.39141">
        <ele>2596</ele>
        <time>2023-08-09T10:29:57Z</time>
      </trkpt>
      <trkpt lat="42.73631" lon="1.39144">
        <ele>2595</ele>
        <time>2023-08-09T10:30:02Z</time>
      </trkpt>
      <trkpt lat="42.73636" lon="1.39141">
        <ele>2592</ele>
        <time>2023-08-09T10:30:16Z</time>
      </trkpt>
      <trkpt lat="42.73641" lon="1.39136">
        <ele>2589</ele>
        <time>2023-08-09T10:30:28Z</time>
      </trkpt>
      <trkpt lat="42.73651" lon="1.39124">
        <ele>2587</ele>
        <time>2023-08-09T10:30:46Z</time>
      </trkpt>
      <trkpt lat="42.73654" lon="1.39122">
        <ele>2585</ele>
        <time>2023-08-09T10:30:52Z</time>
      </trkpt>
      <trkpt lat="42.73661" lon="1.39119">
        <ele>2581</ele>
        <time>2023-08-09T10:31:04Z</time>
      </trkpt>
      <trkpt lat="42.73663" lon="1.39112">
        <ele>2579</ele>
        <time>2023-08-09T10:31:12Z</time>
      </trkpt>
      <trkpt lat="42.73667" lon="1.39109">
        <ele>2578</ele>
        <time>2023-08-09T10:31:17Z</time>
      </trkpt>
      <trkpt lat="42.73671" lon="1.39108">
        <ele>2576</ele>
        <time>2023-08-09T10:31:23Z</time>
      </trkpt>
      <trkpt lat="42.73675" lon="1.39112">
        <ele>2574</ele>
        <time>2023-08-09T10:31:28Z</time>
      </trkpt>
      <trkpt lat="42.73678" lon="1.3911">
        <ele>2571</ele>
        <time>2023-08-09T10:31:36Z</time>
      </trkpt>
      <trkpt lat="42.73683" lon="1.39107">
        <ele>2568</ele>
        <time>2023-08-09T10:31:48Z</time>
      </trkpt>
      <trkpt lat="42.73687" lon="1.39102">
        <ele>2566</ele>
        <time>2023-08-09T10:31:55Z</time>
      </trkpt>
      <trkpt lat="42.73693" lon="1.39101">
        <ele>2562</ele>
        <time>2023-08-09T10:32:07Z</time>
      </trkpt>
      <trkpt lat="42.73696" lon="1.39096">
        <ele>2561</ele>
        <time>2023-08-09T10:32:13Z</time>
      </trkpt>
      <trkpt lat="42.73699" lon="1.391">
        <ele>2559</ele>
        <time>2023-08-09T10:32:20Z</time>
      </trkpt>
      <trkpt lat="42.73706" lon="1.39113">
        <ele>2555</ele>
        <time>2023-08-09T10:32:37Z</time>
      </trkpt>
      <trkpt lat="42.7371" lon="1.39108">
        <ele>2551</ele>
        <time>2023-08-09T10:32:49Z</time>
      </trkpt>
      <trkpt lat="42.73713" lon="1.39105">
        <ele>2550</ele>
        <time>2023-08-09T10:32:54Z</time>
      </trkpt>
      <trkpt lat="42.73715" lon="1.391">
        <ele>2547</ele>
        <time>2023-08-09T10:32:59Z</time>
      </trkpt>
      <trkpt lat="42.73722" lon="1.39102">
        <ele>2541</ele>
        <time>2023-08-09T10:33:19Z</time>
      </trkpt>
      <trkpt lat="42.73726" lon="1.39105">
        <ele>2539</ele>
        <time>2023-08-09T10:33:24Z</time>
      </trkpt>
      <trkpt lat="42.73731" lon="1.39103">
        <ele>2536</ele>
        <time>2023-08-09T10:33:49Z</time>
      </trkpt>
      <trkpt lat="42.73731" lon="1.39098">
        <ele>2536</ele>
        <time>2023-08-09T10:33:54Z</time>
      </trkpt>
      <trkpt lat="42.73735" lon="1.39096">
        <ele>2533</ele>
        <time>2023-08-09T10:34:06Z</time>
      </trkpt>
      <trkpt lat="42.73739" lon="1.39091">
        <ele>2533</ele>
        <time>2023-08-09T10:34:18Z</time>
      </trkpt>
      <trkpt lat="42.73741" lon="1.39074">
        <ele>2532</ele>
        <time>2023-08-09T10:34:38Z</time>
      </trkpt>
      <trkpt lat="42.73742" lon="1.39063">
        <ele>2534</ele>
        <time>2023-08-09T10:35:09Z</time>
      </trkpt>
      <trkpt lat="42.73749" lon="1.39058">
        <ele>2532</ele>
        <time>2023-08-09T10:35:20Z</time>
      </trkpt>
      <trkpt lat="42.73749" lon="1.39053">
        <ele>2531</ele>
        <time>2023-08-09T10:35:24Z</time>
      </trkpt>
      <trkpt lat="42.73754" lon="1.39052">
        <ele>2529</ele>
        <time>2023-08-09T10:35:32Z</time>
      </trkpt>
      <trkpt lat="42.73757" lon="1.39048">
        <ele>2528</ele>
        <time>2023-08-09T10:35:36Z</time>
      </trkpt>
      <trkpt lat="42.73759" lon="1.39054">
        <ele>2526</ele>
        <time>2023-08-09T10:35:42Z</time>
      </trkpt>
      <trkpt lat="42.73764" lon="1.39055">
        <ele>2524</ele>
        <time>2023-08-09T10:35:47Z</time>
      </trkpt>
      <trkpt lat="42.73783" lon="1.39053">
        <ele>2516</ele>
        <time>2023-08-09T10:36:13Z</time>
      </trkpt>
      <trkpt lat="42.73794" lon="1.39054">
        <ele>2512</ele>
        <time>2023-08-09T10:36:49Z</time>
      </trkpt>
      <trkpt lat="42.73799" lon="1.39056">
        <ele>2511</ele>
        <time>2023-08-09T10:37:01Z</time>
      </trkpt>
      <trkpt lat="42.73799" lon="1.39063">
        <ele>2511</ele>
        <time>2023-08-09T10:37:19Z</time>
      </trkpt>
      <trkpt lat="42.73799" lon="1.39064">
        <ele>2514</ele>
        <time>2023-08-09T10:38:23Z</time>
      </trkpt>
      <trkpt lat="42.73806" lon="1.39058">
        <ele>2512</ele>
        <time>2023-08-09T10:38:59Z</time>
      </trkpt>
      <trkpt lat="42.7381" lon="1.39057">
        <ele>2512</ele>
        <time>2023-08-09T10:39:03Z</time>
      </trkpt>
      <trkpt lat="42.73814" lon="1.39058">
        <ele>2511</ele>
        <time>2023-08-09T10:39:06Z</time>
      </trkpt>
      <trkpt lat="42.73819" lon="1.39058">
        <ele>2511</ele>
        <time>2023-08-09T10:39:10Z</time>
      </trkpt>
      <trkpt lat="42.73826" lon="1.3906">
        <ele>2512</ele>
        <time>2023-08-09T10:39:17Z</time>
      </trkpt>
      <trkpt lat="42.73831" lon="1.39065">
        <ele>2512</ele>
        <time>2023-08-09T10:39:24Z</time>
      </trkpt>
      <trkpt lat="42.73841" lon="1.3907">
        <ele>2510</ele>
        <time>2023-08-09T10:39:36Z</time>
      </trkpt>
      <trkpt lat="42.73851" lon="1.39071">
        <ele>2510</ele>
        <time>2023-08-09T10:39:49Z</time>
      </trkpt>
      <trkpt lat="42.73859" lon="1.3907">
        <ele>2508</ele>
        <time>2023-08-09T10:40:01Z</time>
      </trkpt>
      <trkpt lat="42.73863" lon="1.39068">
        <ele>2507</ele>
        <time>2023-08-09T10:40:08Z</time>
      </trkpt>
      <trkpt lat="42.73867" lon="1.39064">
        <ele>2506</ele>
        <time>2023-08-09T10:40:14Z</time>
      </trkpt>
      <trkpt lat="42.73872" lon="1.39062">
        <ele>2505</ele>
        <time>2023-08-09T10:40:22Z</time>
      </trkpt>
      <trkpt lat="42.73878" lon="1.39063">
        <ele>2503</ele>
        <time>2023-08-09T10:40:27Z</time>
      </trkpt>
      <trkpt lat="42.73882" lon="1.39063">
        <ele>2501</ele>
        <time>2023-08-09T10:40:37Z</time>
      </trkpt>
      <trkpt lat="42.7389" lon="1.39062">
        <ele>2499</ele>
        <time>2023-08-09T10:40:49Z</time>
      </trkpt>
      <trkpt lat="42.73896" lon="1.39051">
        <ele>2501</ele>
        <time>2023-08-09T10:41:07Z</time>
      </trkpt>
      <trkpt lat="42.73898" lon="1.39045">
        <ele>2501</ele>
        <time>2023-08-09T10:41:12Z</time>
      </trkpt>
      <trkpt lat="42.7391" lon="1.39046">
        <ele>2494</ele>
        <time>2023-08-09T10:41:43Z</time>
      </trkpt>
      <trkpt lat="42.73916" lon="1.3905">
        <ele>2494</ele>
        <time>2023-08-09T10:41:55Z</time>
      </trkpt>
      <trkpt lat="42.73923" lon="1.39049">
        <ele>2494</ele>
        <time>2023-08-09T10:42:07Z</time>
      </trkpt>
      <trkpt lat="42.73928" lon="1.39049">
        <ele>2494</ele>
        <time>2023-08-09T10:42:13Z</time>
      </trkpt>
      <trkpt lat="42.73936" lon="1.39055">
        <ele>2491</ele>
        <time>2023-08-09T10:42:24Z</time>
      </trkpt>
      <trkpt lat="42.7394" lon="1.3906">
        <ele>2491</ele>
        <time>2023-08-09T10:42:31Z</time>
      </trkpt>
      <trkpt lat="42.73962" lon="1.39068">
        <ele>2486</ele>
        <time>2023-08-09T10:42:58Z</time>
      </trkpt>
      <trkpt lat="42.73969" lon="1.39072">
        <ele>2485</ele>
        <time>2023-08-09T10:43:06Z</time>
      </trkpt>
      <trkpt lat="42.73973" lon="1.39074">
        <ele>2485</ele>
        <time>2023-08-09T10:43:10Z</time>
      </trkpt>
      <trkpt lat="42.7398" lon="1.39071">
        <ele>2485</ele>
        <time>2023-08-09T10:43:19Z</time>
      </trkpt>
      <trkpt lat="42.73983" lon="1.39068">
        <ele>2486</ele>
        <time>2023-08-09T10:43:25Z</time>
      </trkpt>
      <trkpt lat="42.73993" lon="1.39065">
        <ele>2486</ele>
        <time>2023-08-09T10:43:36Z</time>
      </trkpt>
      <trkpt lat="42.74008" lon="1.39065">
        <ele>2483</ele>
        <time>2023-08-09T10:43:59Z</time>
      </trkpt>
      <trkpt lat="42.74012" lon="1.39064">
        <ele>2483</ele>
        <time>2023-08-09T10:44:02Z</time>
      </trkpt>
      <trkpt lat="42.74021" lon="1.39063">
        <ele>2481</ele>
        <time>2023-08-09T10:44:14Z</time>
      </trkpt>
      <trkpt lat="42.74025" lon="1.39061">
        <ele>2479</ele>
        <time>2023-08-09T10:44:20Z</time>
      </trkpt>
      <trkpt lat="42.74039" lon="1.3906">
        <ele>2475</ele>
        <time>2023-08-09T10:44:45Z</time>
      </trkpt>
      <trkpt lat="42.74043" lon="1.39061">
        <ele>2474</ele>
        <time>2023-08-09T10:44:49Z</time>
      </trkpt>
      <trkpt lat="42.74049" lon="1.3906">
        <ele>2472</ele>
        <time>2023-08-09T10:44:58Z</time>
      </trkpt>
      <trkpt lat="42.74054" lon="1.3906">
        <ele>2471</ele>
        <time>2023-08-09T10:45:04Z</time>
      </trkpt>
      <trkpt lat="42.74058" lon="1.39057">
        <ele>2470</ele>
        <time>2023-08-09T10:45:11Z</time>
      </trkpt>
      <trkpt lat="42.74064" lon="1.39058">
        <ele>2467</ele>
        <time>2023-08-09T10:45:23Z</time>
      </trkpt>
      <trkpt lat="42.74071" lon="1.39053">
        <ele>2465</ele>
        <time>2023-08-09T10:45:35Z</time>
      </trkpt>
      <trkpt lat="42.74086" lon="1.3905">
        <ele>2459</ele>
        <time>2023-08-09T10:46:05Z</time>
      </trkpt>
      <trkpt lat="42.74091" lon="1.39053">
        <ele>2456</ele>
        <time>2023-08-09T10:46:15Z</time>
      </trkpt>
      <trkpt lat="42.74097" lon="1.39047">
        <ele>2455</ele>
        <time>2023-08-09T10:46:28Z</time>
      </trkpt>
      <trkpt lat="42.74105" lon="1.39045">
        <ele>2452</ele>
        <time>2023-08-09T10:46:41Z</time>
      </trkpt>
      <trkpt lat="42.7411" lon="1.39043">
        <ele>2450</ele>
        <time>2023-08-09T10:46:50Z</time>
      </trkpt>
      <trkpt lat="42.74117" lon="1.39042">
        <ele>2448</ele>
        <time>2023-08-09T10:47:03Z</time>
      </trkpt>
      <trkpt lat="42.74128" lon="1.39041">
        <ele>2444</ele>
        <time>2023-08-09T10:47:28Z</time>
      </trkpt>
      <trkpt lat="42.74133" lon="1.39039">
        <ele>2443</ele>
        <time>2023-08-09T10:47:33Z</time>
      </trkpt>
      <trkpt lat="42.74142" lon="1.39041">
        <ele>2441</ele>
        <time>2023-08-09T10:47:49Z</time>
      </trkpt>
      <trkpt lat="42.74154" lon="1.39035">
        <ele>2439</ele>
        <time>2023-08-09T10:48:05Z</time>
      </trkpt>
      <trkpt lat="42.74159" lon="1.39036">
        <ele>2438</ele>
        <time>2023-08-09T10:48:11Z</time>
      </trkpt>
      <trkpt lat="42.74165" lon="1.39035">
        <ele>2437</ele>
        <time>2023-08-09T10:48:40Z</time>
      </trkpt>
      <trkpt lat="42.7418" lon="1.3904">
        <ele>2430</ele>
        <time>2023-08-09T10:49:22Z</time>
      </trkpt>
      <trkpt lat="42.74188" lon="1.39046">
        <ele>2428</ele>
        <time>2023-08-09T10:49:34Z</time>
      </trkpt>
      <trkpt lat="42.74192" lon="1.39046">
        <ele>2427</ele>
        <time>2023-08-09T10:49:42Z</time>
      </trkpt>
      <trkpt lat="42.74197" lon="1.39051">
        <ele>2428</ele>
        <time>2023-08-09T10:49:54Z</time>
      </trkpt>
      <trkpt lat="42.74202" lon="1.39055">
        <ele>2427</ele>
        <time>2023-08-09T10:50:05Z</time>
      </trkpt>
      <trkpt lat="42.74205" lon="1.39059">
        <ele>2425</ele>
        <time>2023-08-09T10:50:17Z</time>
      </trkpt>
      <trkpt lat="42.74209" lon="1.39061">
        <ele>2424</ele>
        <time>2023-08-09T10:50:21Z</time>
      </trkpt>
      <trkpt lat="42.74216" lon="1.39063">
        <ele>2425</ele>
        <time>2023-08-09T10:50:29Z</time>
      </trkpt>
      <trkpt lat="42.74219" lon="1.39071">
        <ele>2423</ele>
        <time>2023-08-09T10:50:38Z</time>
      </trkpt>
      <trkpt lat="42.74227" lon="1.39081">
        <ele>2423</ele>
        <time>2023-08-09T10:50:52Z</time>
      </trkpt>
      <trkpt lat="42.74244" lon="1.39088">
        <ele>2419</ele>
        <time>2023-08-09T10:51:11Z</time>
      </trkpt>
      <trkpt lat="42.74248" lon="1.39092">
        <ele>2419</ele>
        <time>2023-08-09T10:51:15Z</time>
      </trkpt>
      <trkpt lat="42.74255" lon="1.39093">
        <ele>2418</ele>
        <time>2023-08-09T10:51:22Z</time>
      </trkpt>
      <trkpt lat="42.74259" lon="1.39093">
        <ele>2418</ele>
        <time>2023-08-09T10:51:25Z</time>
      </trkpt>
      <trkpt lat="42.74265" lon="1.39092">
        <ele>2418</ele>
        <time>2023-08-09T10:51:32Z</time>
      </trkpt>
      <trkpt lat="42.74269" lon="1.39093">
        <ele>2418</ele>
        <time>2023-08-09T10:51:38Z</time>
      </trkpt>
      <trkpt lat="42.74292" lon="1.39109">
        <ele>2415</ele>
        <time>2023-08-09T10:52:05Z</time>
      </trkpt>
      <trkpt lat="42.74297" lon="1.39111">
        <ele>2414</ele>
        <time>2023-08-09T10:52:17Z</time>
      </trkpt>
      <trkpt lat="42.74303" lon="1.39118">
        <ele>2414</ele>
        <time>2023-08-09T10:52:28Z</time>
      </trkpt>
      <trkpt lat="42.74308" lon="1.39124">
        <ele>2414</ele>
        <time>2023-08-09T10:52:38Z</time>
      </trkpt>
      <trkpt lat="42.74313" lon="1.39131">
        <ele>2412</ele>
        <time>2023-08-09T10:52:49Z</time>
      </trkpt>
      <trkpt lat="42.74319" lon="1.39133">
        <ele>2411</ele>
        <time>2023-08-09T10:52:56Z</time>
      </trkpt>
      <trkpt lat="42.74323" lon="1.3914">
        <ele>2409</ele>
        <time>2023-08-09T10:53:06Z</time>
      </trkpt>
      <trkpt lat="42.74325" lon="1.39146">
        <ele>2407</ele>
        <time>2023-08-09T10:53:20Z</time>
      </trkpt>
      <trkpt lat="42.7433" lon="1.39151">
        <ele>2404</ele>
        <time>2023-08-09T10:53:32Z</time>
      </trkpt>
      <trkpt lat="42.74335" lon="1.39162">
        <ele>2400</ele>
        <time>2023-08-09T10:53:53Z</time>
      </trkpt>
      <trkpt lat="42.74336" lon="1.39168">
        <ele>2400</ele>
        <time>2023-08-09T10:53:57Z</time>
      </trkpt>
      <trkpt lat="42.74341" lon="1.39168">
        <ele>2400</ele>
        <time>2023-08-09T10:54:05Z</time>
      </trkpt>
      <trkpt lat="42.74344" lon="1.39173">
        <ele>2399</ele>
        <time>2023-08-09T10:54:17Z</time>
      </trkpt>
      <trkpt lat="42.74349" lon="1.39176">
        <ele>2400</ele>
        <time>2023-08-09T10:54:29Z</time>
      </trkpt>
      <trkpt lat="42.74354" lon="1.39176">
        <ele>2399</ele>
        <time>2023-08-09T10:54:39Z</time>
      </trkpt>
      <trkpt lat="42.74358" lon="1.39175">
        <ele>2398</ele>
        <time>2023-08-09T10:54:42Z</time>
      </trkpt>
      <trkpt lat="42.74362" lon="1.39173">
        <ele>2399</ele>
        <time>2023-08-09T10:54:47Z</time>
      </trkpt>
      <trkpt lat="42.74367" lon="1.39175">
        <ele>2399</ele>
        <time>2023-08-09T10:54:55Z</time>
      </trkpt>
      <trkpt lat="42.74377" lon="1.39188">
        <ele>2396</ele>
        <time>2023-08-09T10:55:19Z</time>
      </trkpt>
      <trkpt lat="42.74384" lon="1.39192">
        <ele>2398</ele>
        <time>2023-08-09T10:55:31Z</time>
      </trkpt>
      <trkpt lat="42.7439" lon="1.39193">
        <ele>2398</ele>
        <time>2023-08-09T10:55:38Z</time>
      </trkpt>
      <trkpt lat="42.74401" lon="1.39203">
        <ele>2397</ele>
        <time>2023-08-09T10:55:58Z</time>
      </trkpt>
      <trkpt lat="42.74405" lon="1.39207">
        <ele>2395</ele>
        <time>2023-08-09T10:56:11Z</time>
      </trkpt>
      <trkpt lat="42.74407" lon="1.39211">
        <ele>2394</ele>
        <time>2023-08-09T10:56:15Z</time>
      </trkpt>
      <trkpt lat="42.74413" lon="1.39217">
        <ele>2393</ele>
        <time>2023-08-09T10:56:21Z</time>
      </trkpt>
      <trkpt lat="42.74417" lon="1.39219">
        <ele>2392</ele>
        <time>2023-08-09T10:56:26Z</time>
      </trkpt>
      <trkpt lat="42.74422" lon="1.39218">
        <ele>2391</ele>
        <time>2023-08-09T10:56:30Z</time>
      </trkpt>
      <trkpt lat="42.74427" lon="1.39219">
        <ele>2391</ele>
        <time>2023-08-09T10:56:35Z</time>
      </trkpt>
      <trkpt lat="42.74433" lon="1.39216">
        <ele>2391</ele>
        <time>2023-08-09T10:56:47Z</time>
      </trkpt>
      <trkpt lat="42.74437" lon="1.39213">
        <ele>2392</ele>
        <time>2023-08-09T10:57:04Z</time>
      </trkpt>
      <trkpt lat="42.7444" lon="1.39208">
        <ele>2394</ele>
        <time>2023-08-09T10:57:16Z</time>
      </trkpt>
      <trkpt lat="42.74447" lon="1.39205">
        <ele>2394</ele>
        <time>2023-08-09T10:57:28Z</time>
      </trkpt>
      <trkpt lat="42.74452" lon="1.39201">
        <ele>2393</ele>
        <time>2023-08-09T10:57:40Z</time>
      </trkpt>
      <trkpt lat="42.74455" lon="1.39197">
        <ele>2393</ele>
        <time>2023-08-09T10:57:46Z</time>
      </trkpt>
      <trkpt lat="42.7446" lon="1.39196">
        <ele>2393</ele>
        <time>2023-08-09T10:57:51Z</time>
      </trkpt>
      <trkpt lat="42.74468" lon="1.39196">
        <ele>2393</ele>
        <time>2023-08-09T10:58:01Z</time>
      </trkpt>
      <trkpt lat="42.74475" lon="1.39197">
        <ele>2393</ele>
        <time>2023-08-09T10:58:10Z</time>
      </trkpt>
      <trkpt lat="42.74479" lon="1.39194">
        <ele>2392</ele>
        <time>2023-08-09T10:58:15Z</time>
      </trkpt>
      <trkpt lat="42.74483" lon="1.39195">
        <ele>2391</ele>
        <time>2023-08-09T10:58:21Z</time>
      </trkpt>
      <trkpt lat="42.74488" lon="1.39193">
        <ele>2390</ele>
        <time>2023-08-09T10:58:26Z</time>
      </trkpt>
      <trkpt lat="42.74491" lon="1.39193">
        <ele>2388</ele>
        <time>2023-08-09T10:58:30Z</time>
      </trkpt>
      <trkpt lat="42.74495" lon="1.39194">
        <ele>2388</ele>
        <time>2023-08-09T10:58:34Z</time>
      </trkpt>
      <trkpt lat="42.74502" lon="1.39197">
        <ele>2383</ele>
        <time>2023-08-09T10:58:47Z</time>
      </trkpt>
      <trkpt lat="42.74506" lon="1.39194">
        <ele>2384</ele>
        <time>2023-08-09T10:58:55Z</time>
      </trkpt>
      <trkpt lat="42.74513" lon="1.39194">
        <ele>2382</ele>
        <time>2023-08-09T10:59:05Z</time>
      </trkpt>
      <trkpt lat="42.7452" lon="1.39197">
        <ele>2378</ele>
        <time>2023-08-09T10:59:16Z</time>
      </trkpt>
      <trkpt lat="42.74525" lon="1.39197">
        <ele>2374</ele>
        <time>2023-08-09T10:59:24Z</time>
      </trkpt>
      <trkpt lat="42.74531" lon="1.39197">
        <ele>2375</ele>
        <time>2023-08-09T10:59:31Z</time>
      </trkpt>
      <trkpt lat="42.74536" lon="1.39199">
        <ele>2372</ele>
        <time>2023-08-09T10:59:35Z</time>
      </trkpt>
      <trkpt lat="42.7454" lon="1.39199">
        <ele>2371</ele>
        <time>2023-08-09T10:59:39Z</time>
      </trkpt>
      <trkpt lat="42.74544" lon="1.392">
        <ele>2373</ele>
        <time>2023-08-09T10:59:43Z</time>
      </trkpt>
      <trkpt lat="42.74548" lon="1.39199">
        <ele>2372</ele>
        <time>2023-08-09T10:59:46Z</time>
      </trkpt>
      <trkpt lat="42.74556" lon="1.39193">
        <ele>2367</ele>
        <time>2023-08-09T10:59:53Z</time>
      </trkpt>
      <trkpt lat="42.74559" lon="1.39191">
        <ele>2367</ele>
        <time>2023-08-09T10:59:57Z</time>
      </trkpt>
      <trkpt lat="42.74568" lon="1.39192">
        <ele>2368</ele>
        <time>2023-08-09T11:00:06Z</time>
      </trkpt>
      <trkpt lat="42.74576" lon="1.39191">
        <ele>2364</ele>
        <time>2023-08-09T11:00:13Z</time>
      </trkpt>
      <trkpt lat="42.74581" lon="1.3919">
        <ele>2364</ele>
        <time>2023-08-09T11:00:19Z</time>
      </trkpt>
      <trkpt lat="42.74585" lon="1.3919">
        <ele>2365</ele>
        <time>2023-08-09T11:00:23Z</time>
      </trkpt>
      <trkpt lat="42.74589" lon="1.39188">
        <ele>2363</ele>
        <time>2023-08-09T11:00:28Z</time>
      </trkpt>
      <trkpt lat="42.74592" lon="1.39184">
        <ele>2362</ele>
        <time>2023-08-09T11:00:33Z</time>
      </trkpt>
      <trkpt lat="42.74605" lon="1.39178">
        <ele>2358</ele>
        <time>2023-08-09T11:00:50Z</time>
      </trkpt>
      <trkpt lat="42.74613" lon="1.39172">
        <ele>2356</ele>
        <time>2023-08-09T11:01:03Z</time>
      </trkpt>
      <trkpt lat="42.74624" lon="1.39174">
        <ele>2351</ele>
        <time>2023-08-09T11:01:21Z</time>
      </trkpt>
      <trkpt lat="42.74629" lon="1.39175">
        <ele>2346</ele>
        <time>2023-08-09T11:01:34Z</time>
      </trkpt>
      <trkpt lat="42.74636" lon="1.39174">
        <ele>2344</ele>
        <time>2023-08-09T11:01:46Z</time>
      </trkpt>
      <trkpt lat="42.74647" lon="1.3918">
        <ele>2339</ele>
        <time>2023-08-09T11:02:10Z</time>
      </trkpt>
      <trkpt lat="42.74651" lon="1.39179">
        <ele>2338</ele>
        <time>2023-08-09T11:02:14Z</time>
      </trkpt>
      <trkpt lat="42.74656" lon="1.39176">
        <ele>2337</ele>
        <time>2023-08-09T11:02:22Z</time>
      </trkpt>
      <trkpt lat="42.74665" lon="1.39181">
        <ele>2329</ele>
        <time>2023-08-09T11:02:52Z</time>
      </trkpt>
      <trkpt lat="42.7467" lon="1.39182">
        <ele>2327</ele>
        <time>2023-08-09T11:03:04Z</time>
      </trkpt>
      <trkpt lat="42.74676" lon="1.39182">
        <ele>2325</ele>
        <time>2023-08-09T11:03:15Z</time>
      </trkpt>
      <trkpt lat="42.74682" lon="1.39181">
        <ele>2322</ele>
        <time>2023-08-09T11:03:26Z</time>
      </trkpt>
      <trkpt lat="42.74687" lon="1.39183">
        <ele>2320</ele>
        <time>2023-08-09T11:03:38Z</time>
      </trkpt>
      <trkpt lat="42.7469" lon="1.39188">
        <ele>2317</ele>
        <time>2023-08-09T11:03:50Z</time>
      </trkpt>
      <trkpt lat="42.74694" lon="1.3919">
        <ele>2314</ele>
        <time>2023-08-09T11:04:02Z</time>
      </trkpt>
      <trkpt lat="42.74699" lon="1.39193">
        <ele>2314</ele>
        <time>2023-08-09T11:04:20Z</time>
      </trkpt>
      <trkpt lat="42.74702" lon="1.3919">
        <ele>2313</ele>
        <time>2023-08-09T11:04:50Z</time>
      </trkpt>
      <trkpt lat="42.74709" lon="1.3919">
        <ele>2312</ele>
        <time>2023-08-09T11:05:01Z</time>
      </trkpt>
      <trkpt lat="42.74717" lon="1.39192">
        <ele>2312</ele>
        <time>2023-08-09T11:05:12Z</time>
      </trkpt>
      <trkpt lat="42.74727" lon="1.39192">
        <ele>2313</ele>
        <time>2023-08-09T11:05:23Z</time>
      </trkpt>
      <trkpt lat="42.74733" lon="1.39194">
        <ele>2314</ele>
        <time>2023-08-09T11:05:30Z</time>
      </trkpt>
      <trkpt lat="42.74739" lon="1.39195">
        <ele>2314</ele>
        <time>2023-08-09T11:05:37Z</time>
      </trkpt>
      <trkpt lat="42.74749" lon="1.39199">
        <ele>2311</ele>
        <time>2023-08-09T11:05:53Z</time>
      </trkpt>
      <trkpt lat="42.7477" lon="1.3921">
        <ele>2303</ele>
        <time>2023-08-09T11:06:27Z</time>
      </trkpt>
      <trkpt lat="42.74774" lon="1.39213">
        <ele>2302</ele>
        <time>2023-08-09T11:06:33Z</time>
      </trkpt>
      <trkpt lat="42.7478" lon="1.39216">
        <ele>2302</ele>
        <time>2023-08-09T11:06:40Z</time>
      </trkpt>
      <trkpt lat="42.74783" lon="1.39219">
        <ele>2300</ele>
        <time>2023-08-09T11:06:48Z</time>
      </trkpt>
      <trkpt lat="42.74787" lon="1.3922">
        <ele>2300</ele>
        <time>2023-08-09T11:06:54Z</time>
      </trkpt>
      <trkpt lat="42.7479" lon="1.39226">
        <ele>2298</ele>
        <time>2023-08-09T11:07:06Z</time>
      </trkpt>
      <trkpt lat="42.74795" lon="1.39232">
        <ele>2295</ele>
        <time>2023-08-09T11:07:24Z</time>
      </trkpt>
      <trkpt lat="42.748" lon="1.39236">
        <ele>2295</ele>
        <time>2023-08-09T11:07:41Z</time>
      </trkpt>
      <trkpt lat="42.74805" lon="1.39236">
        <ele>2294</ele>
        <time>2023-08-09T11:07:48Z</time>
      </trkpt>
      <trkpt lat="42.7481" lon="1.39235">
        <ele>2294</ele>
        <time>2023-08-09T11:07:57Z</time>
      </trkpt>
      <trkpt lat="42.74823" lon="1.39237">
        <ele>2292</ele>
        <time>2023-08-09T11:08:14Z</time>
      </trkpt>
      <trkpt lat="42.74829" lon="1.39237">
        <ele>2291</ele>
        <time>2023-08-09T11:08:22Z</time>
      </trkpt>
      <trkpt lat="42.74833" lon="1.39237">
        <ele>2291</ele>
        <time>2023-08-09T11:08:30Z</time>
      </trkpt>
      <trkpt lat="42.74837" lon="1.3924">
        <ele>2290</ele>
        <time>2023-08-09T11:08:36Z</time>
      </trkpt>
      <trkpt lat="42.74842" lon="1.39242">
        <ele>2290</ele>
        <time>2023-08-09T11:08:44Z</time>
      </trkpt>
      <trkpt lat="42.74848" lon="1.39249">
        <ele>2288</ele>
        <time>2023-08-09T11:08:57Z</time>
      </trkpt>
      <trkpt lat="42.74854" lon="1.39255">
        <ele>2285</ele>
        <time>2023-08-09T11:09:09Z</time>
      </trkpt>
      <trkpt lat="42.74859" lon="1.39257">
        <ele>2285</ele>
        <time>2023-08-09T11:09:17Z</time>
      </trkpt>
      <trkpt lat="42.74861" lon="1.39264">
        <ele>2284</ele>
        <time>2023-08-09T11:09:24Z</time>
      </trkpt>
      <trkpt lat="42.74866" lon="1.39266">
        <ele>2282</ele>
        <time>2023-08-09T11:09:36Z</time>
      </trkpt>
      <trkpt lat="42.74871" lon="1.39268">
        <ele>2282</ele>
        <time>2023-08-09T11:09:41Z</time>
      </trkpt>
      <trkpt lat="42.74878" lon="1.39273">
        <ele>2280</ele>
        <time>2023-08-09T11:09:54Z</time>
      </trkpt>
      <trkpt lat="42.74883" lon="1.39278">
        <ele>2280</ele>
        <time>2023-08-09T11:10:06Z</time>
      </trkpt>
      <trkpt lat="42.7489" lon="1.39284">
        <ele>2280</ele>
        <time>2023-08-09T11:10:17Z</time>
      </trkpt>
      <trkpt lat="42.74894" lon="1.39285">
        <ele>2280</ele>
        <time>2023-08-09T11:10:25Z</time>
      </trkpt>
      <trkpt lat="42.74899" lon="1.3929">
        <ele>2281</ele>
        <time>2023-08-09T11:10:37Z</time>
      </trkpt>
      <trkpt lat="42.74904" lon="1.39292">
        <ele>2280</ele>
        <time>2023-08-09T11:10:43Z</time>
      </trkpt>
      <trkpt lat="42.74912" lon="1.39294">
        <ele>2279</ele>
        <time>2023-08-09T11:10:51Z</time>
      </trkpt>
      <trkpt lat="42.74916" lon="1.39298">
        <ele>2279</ele>
        <time>2023-08-09T11:10:59Z</time>
      </trkpt>
      <trkpt lat="42.7492" lon="1.393">
        <ele>2279</ele>
        <time>2023-08-09T11:11:04Z</time>
      </trkpt>
      <trkpt lat="42.74928" lon="1.39307">
        <ele>2278</ele>
        <time>2023-08-09T11:11:15Z</time>
      </trkpt>
      <trkpt lat="42.74931" lon="1.39312">
        <ele>2278</ele>
        <time>2023-08-09T11:11:19Z</time>
      </trkpt>
      <trkpt lat="42.74935" lon="1.39317">
        <ele>2278</ele>
        <time>2023-08-09T11:11:25Z</time>
      </trkpt>
      <trkpt lat="42.7494" lon="1.39318">
        <ele>2278</ele>
        <time>2023-08-09T11:11:29Z</time>
      </trkpt>
      <trkpt lat="42.74945" lon="1.39319">
        <ele>2278</ele>
        <time>2023-08-09T11:11:34Z</time>
      </trkpt>
      <trkpt lat="42.74949" lon="1.39325">
        <ele>2279</ele>
        <time>2023-08-09T11:11:41Z</time>
      </trkpt>
      <trkpt lat="42.74955" lon="1.39327">
        <ele>2277</ele>
        <time>2023-08-09T11:11:49Z</time>
      </trkpt>
      <trkpt lat="42.7496" lon="1.39332">
        <ele>2277</ele>
        <time>2023-08-09T11:11:56Z</time>
      </trkpt>
      <trkpt lat="42.74969" lon="1.39341">
        <ele>2274</ele>
        <time>2023-08-09T11:12:16Z</time>
      </trkpt>
      <trkpt lat="42.74973" lon="1.39347">
        <ele>2273</ele>
        <time>2023-08-09T11:12:24Z</time>
      </trkpt>
      <trkpt lat="42.74977" lon="1.3935">
        <ele>2273</ele>
        <time>2023-08-09T11:12:29Z</time>
      </trkpt>
      <trkpt lat="42.74986" lon="1.3936">
        <ele>2273</ele>
        <time>2023-08-09T11:12:46Z</time>
      </trkpt>
      <trkpt lat="42.74991" lon="1.39362">
        <ele>2272</ele>
        <time>2023-08-09T11:12:51Z</time>
      </trkpt>
      <trkpt lat="42.75" lon="1.39372">
        <ele>2271</ele>
        <time>2023-08-09T11:13:01Z</time>
      </trkpt>
      <trkpt lat="42.75002" lon="1.3938">
        <ele>2271</ele>
        <time>2023-08-09T11:13:08Z</time>
      </trkpt>
      <trkpt lat="42.75007" lon="1.39391">
        <ele>2265</ele>
        <time>2023-08-09T11:13:26Z</time>
      </trkpt>
      <trkpt lat="42.75011" lon="1.39396">
        <ele>2263</ele>
        <time>2023-08-09T11:13:32Z</time>
      </trkpt>
      <trkpt lat="42.75029" lon="1.39413">
        <ele>2262</ele>
        <time>2023-08-09T11:13:59Z</time>
      </trkpt>
      <trkpt lat="42.75034" lon="1.39417">
        <ele>2261</ele>
        <time>2023-08-09T11:14:12Z</time>
      </trkpt>
      <trkpt lat="42.75034" lon="1.39424">
        <ele>2259</ele>
        <time>2023-08-09T11:14:36Z</time>
      </trkpt>
      <trkpt lat="42.75041" lon="1.39431">
        <ele>2256</ele>
        <time>2023-08-09T11:14:50Z</time>
      </trkpt>
      <trkpt lat="42.75047" lon="1.39436">
        <ele>2254</ele>
        <time>2023-08-09T11:15:01Z</time>
      </trkpt>
      <trkpt lat="42.7505" lon="1.3944">
        <ele>2254</ele>
        <time>2023-08-09T11:15:08Z</time>
      </trkpt>
      <trkpt lat="42.75054" lon="1.39443">
        <ele>2253</ele>
        <time>2023-08-09T11:15:11Z</time>
      </trkpt>
      <trkpt lat="42.7506" lon="1.39446">
        <ele>2252</ele>
        <time>2023-08-09T11:15:20Z</time>
      </trkpt>
      <trkpt lat="42.75065" lon="1.39449">
        <ele>2251</ele>
        <time>2023-08-09T11:15:26Z</time>
      </trkpt>
      <trkpt lat="42.7507" lon="1.39452">
        <ele>2251</ele>
        <time>2023-08-09T11:15:33Z</time>
      </trkpt>
      <trkpt lat="42.75074" lon="1.39456">
        <ele>2249</ele>
        <time>2023-08-09T11:15:45Z</time>
      </trkpt>
      <trkpt lat="42.75078" lon="1.39458">
        <ele>2248</ele>
        <time>2023-08-09T11:15:51Z</time>
      </trkpt>
      <trkpt lat="42.75082" lon="1.39458">
        <ele>2247</ele>
        <time>2023-08-09T11:15:54Z</time>
      </trkpt>
      <trkpt lat="42.75086" lon="1.3946">
        <ele>2247</ele>
        <time>2023-08-09T11:15:58Z</time>
      </trkpt>
      <trkpt lat="42.75091" lon="1.39459">
        <ele>2248</ele>
        <time>2023-08-09T11:16:06Z</time>
      </trkpt>
      <trkpt lat="42.75097" lon="1.39463">
        <ele>2246</ele>
        <time>2023-08-09T11:16:24Z</time>
      </trkpt>
      <trkpt lat="42.75104" lon="1.39462">
        <ele>2244</ele>
        <time>2023-08-09T11:16:34Z</time>
      </trkpt>
      <trkpt lat="42.75107" lon="1.39469">
        <ele>2244</ele>
        <time>2023-08-09T11:17:35Z</time>
      </trkpt>
      <trkpt lat="42.75107" lon="1.39467">
        <ele>2244</ele>
        <time>2023-08-09T11:18:04Z</time>
      </trkpt>
      <trkpt lat="42.75113" lon="1.39468">
        <ele>2244</ele>
        <time>2023-08-09T11:19:04Z</time>
      </trkpt>
      <trkpt lat="42.75117" lon="1.39475">
        <ele>2242</ele>
        <time>2023-08-09T11:21:02Z</time>
      </trkpt>
      <trkpt lat="42.75122" lon="1.39475">
        <ele>2243</ele>
        <time>2023-08-09T11:21:08Z</time>
      </trkpt>
      <trkpt lat="42.75126" lon="1.39478">
        <ele>2243</ele>
        <time>2023-08-09T11:21:12Z</time>
      </trkpt>
      <trkpt lat="42.75131" lon="1.39483">
        <ele>2243</ele>
        <time>2023-08-09T11:21:16Z</time>
      </trkpt>
      <trkpt lat="42.75135" lon="1.39488">
        <ele>2244</ele>
        <time>2023-08-09T11:21:24Z</time>
      </trkpt>
      <trkpt lat="42.7514" lon="1.39489">
        <ele>2243</ele>
        <time>2023-08-09T11:21:30Z</time>
      </trkpt>
      <trkpt lat="42.75144" lon="1.39495">
        <ele>2242</ele>
        <time>2023-08-09T11:21:40Z</time>
      </trkpt>
      <trkpt lat="42.75149" lon="1.39501">
        <ele>2238</ele>
        <time>2023-08-09T11:21:52Z</time>
      </trkpt>
      <trkpt lat="42.75155" lon="1.39502">
        <ele>2236</ele>
        <time>2023-08-09T11:22:04Z</time>
      </trkpt>
      <trkpt lat="42.75158" lon="1.39507">
        <ele>2234</ele>
        <time>2023-08-09T11:22:10Z</time>
      </trkpt>
      <trkpt lat="42.75163" lon="1.39509">
        <ele>2232</ele>
        <time>2023-08-09T11:22:16Z</time>
      </trkpt>
      <trkpt lat="42.75168" lon="1.39513">
        <ele>2229</ele>
        <time>2023-08-09T11:22:31Z</time>
      </trkpt>
      <trkpt lat="42.75173" lon="1.39521">
        <ele>2227</ele>
        <time>2023-08-09T11:22:43Z</time>
      </trkpt>
      <trkpt lat="42.75178" lon="1.39528">
        <ele>2223</ele>
        <time>2023-08-09T11:22:56Z</time>
      </trkpt>
      <trkpt lat="42.75183" lon="1.39532">
        <ele>2222</ele>
        <time>2023-08-09T11:23:02Z</time>
      </trkpt>
      <trkpt lat="42.75188" lon="1.3954">
        <ele>2221</ele>
        <time>2023-08-09T11:23:09Z</time>
      </trkpt>
      <trkpt lat="42.75198" lon="1.39553">
        <ele>2218</ele>
        <time>2023-08-09T11:23:25Z</time>
      </trkpt>
      <trkpt lat="42.75219" lon="1.39563">
        <ele>2216</ele>
        <time>2023-08-09T11:23:49Z</time>
      </trkpt>
      <trkpt lat="42.75223" lon="1.39567">
        <ele>2215</ele>
        <time>2023-08-09T11:23:54Z</time>
      </trkpt>
      <trkpt lat="42.75233" lon="1.39571">
        <ele>2214</ele>
        <time>2023-08-09T11:24:03Z</time>
      </trkpt>
      <trkpt lat="42.75237" lon="1.39571">
        <ele>2214</ele>
        <time>2023-08-09T11:24:07Z</time>
      </trkpt>
      <trkpt lat="42.75243" lon="1.3957">
        <ele>2214</ele>
        <time>2023-08-09T11:24:14Z</time>
      </trkpt>
      <trkpt lat="42.75248" lon="1.39572">
        <ele>2214</ele>
        <time>2023-08-09T11:24:22Z</time>
      </trkpt>
      <trkpt lat="42.75255" lon="1.39578">
        <ele>2212</ele>
        <time>2023-08-09T11:24:35Z</time>
      </trkpt>
      <trkpt lat="42.7526" lon="1.39578">
        <ele>2211</ele>
        <time>2023-08-09T11:24:40Z</time>
      </trkpt>
      <trkpt lat="42.75265" lon="1.39583">
        <ele>2209</ele>
        <time>2023-08-09T11:24:48Z</time>
      </trkpt>
      <trkpt lat="42.75273" lon="1.39581">
        <ele>2207</ele>
        <time>2023-08-09T11:24:58Z</time>
      </trkpt>
      <trkpt lat="42.75281" lon="1.39586">
        <ele>2205</ele>
        <time>2023-08-09T11:25:07Z</time>
      </trkpt>
      <trkpt lat="42.75286" lon="1.39587">
        <ele>2204</ele>
        <time>2023-08-09T11:25:11Z</time>
      </trkpt>
      <trkpt lat="42.75292" lon="1.39591">
        <ele>2202</ele>
        <time>2023-08-09T11:25:20Z</time>
      </trkpt>
      <trkpt lat="42.75298" lon="1.39592">
        <ele>2202</ele>
        <time>2023-08-09T11:25:27Z</time>
      </trkpt>
      <trkpt lat="42.75301" lon="1.39598">
        <ele>2202</ele>
        <time>2023-08-09T11:25:34Z</time>
      </trkpt>
      <trkpt lat="42.75308" lon="1.39602">
        <ele>2202</ele>
        <time>2023-08-09T11:25:43Z</time>
      </trkpt>
      <trkpt lat="42.75312" lon="1.39608">
        <ele>2198</ele>
        <time>2023-08-09T11:25:57Z</time>
      </trkpt>
      <trkpt lat="42.75316" lon="1.39611">
        <ele>2197</ele>
        <time>2023-08-09T11:26:03Z</time>
      </trkpt>
      <trkpt lat="42.75323" lon="1.39616">
        <ele>2196</ele>
        <time>2023-08-09T11:26:13Z</time>
      </trkpt>
      <trkpt lat="42.75328" lon="1.39618">
        <ele>2196</ele>
        <time>2023-08-09T11:26:21Z</time>
      </trkpt>
      <trkpt lat="42.75332" lon="1.39619">
        <ele>2195</ele>
        <time>2023-08-09T11:26:26Z</time>
      </trkpt>
      <trkpt lat="42.75336" lon="1.39619">
        <ele>2195</ele>
        <time>2023-08-09T11:26:30Z</time>
      </trkpt>
      <trkpt lat="42.75342" lon="1.39622">
        <ele>2195</ele>
        <time>2023-08-09T11:26:37Z</time>
      </trkpt>
      <trkpt lat="42.75348" lon="1.39623">
        <ele>2194</ele>
        <time>2023-08-09T11:26:44Z</time>
      </trkpt>
      <trkpt lat="42.75352" lon="1.3963">
        <ele>2193</ele>
        <time>2023-08-09T11:26:50Z</time>
      </trkpt>
      <trkpt lat="42.75357" lon="1.39633">
        <ele>2192</ele>
        <time>2023-08-09T11:27:01Z</time>
      </trkpt>
      <trkpt lat="42.75367" lon="1.39637">
        <ele>2190</ele>
        <time>2023-08-09T11:27:12Z</time>
      </trkpt>
      <trkpt lat="42.75373" lon="1.39639">
        <ele>2189</ele>
        <time>2023-08-09T11:27:23Z</time>
      </trkpt>
      <trkpt lat="42.75382" lon="1.39649">
        <ele>2185</ele>
        <time>2023-08-09T11:27:38Z</time>
      </trkpt>
      <trkpt lat="42.75387" lon="1.39651">
        <ele>2184</ele>
        <time>2023-08-09T11:27:45Z</time>
      </trkpt>
      <trkpt lat="42.75393" lon="1.39659">
        <ele>2181</ele>
        <time>2023-08-09T11:27:56Z</time>
      </trkpt>
      <trkpt lat="42.75414" lon="1.3967">
        <ele>2174</ele>
        <time>2023-08-09T11:28:28Z</time>
      </trkpt>
      <trkpt lat="42.75418" lon="1.39675">
        <ele>2172</ele>
        <time>2023-08-09T11:28:34Z</time>
      </trkpt>
      <trkpt lat="42.75423" lon="1.39674">
        <ele>2171</ele>
        <time>2023-08-09T11:28:38Z</time>
      </trkpt>
      <trkpt lat="42.75427" lon="1.3968">
        <ele>2170</ele>
        <time>2023-08-09T11:28:45Z</time>
      </trkpt>
      <trkpt lat="42.75432" lon="1.39679">
        <ele>2169</ele>
        <time>2023-08-09T11:28:49Z</time>
      </trkpt>
      <trkpt lat="42.75435" lon="1.39674">
        <ele>2168</ele>
        <time>2023-08-09T11:28:54Z</time>
      </trkpt>
      <trkpt lat="42.75441" lon="1.39672">
        <ele>2166</ele>
        <time>2023-08-09T11:29:00Z</time>
      </trkpt>
      <trkpt lat="42.75445" lon="1.39669">
        <ele>2166</ele>
        <time>2023-08-09T11:29:05Z</time>
      </trkpt>
      <trkpt lat="42.75455" lon="1.39664">
        <ele>2164</ele>
        <time>2023-08-09T11:29:20Z</time>
      </trkpt>
      <trkpt lat="42.75462" lon="1.39667">
        <ele>2161</ele>
        <time>2023-08-09T11:29:32Z</time>
      </trkpt>
      <trkpt lat="42.75467" lon="1.39666">
        <ele>2161</ele>
        <time>2023-08-09T11:29:38Z</time>
      </trkpt>
      <trkpt lat="42.75473" lon="1.39666">
        <ele>2165</ele>
        <time>2023-08-09T11:29:45Z</time>
      </trkpt>
      <trkpt lat="42.75482" lon="1.39665">
        <ele>2161</ele>
        <time>2023-08-09T11:30:00Z</time>
      </trkpt>
      <trkpt lat="42.75487" lon="1.39661">
        <ele>2161</ele>
        <time>2023-08-09T11:30:07Z</time>
      </trkpt>
      <trkpt lat="42.75494" lon="1.39661">
        <ele>2158</ele>
        <time>2023-08-09T11:30:14Z</time>
      </trkpt>
      <trkpt lat="42.75499" lon="1.3966">
        <ele>2157</ele>
        <time>2023-08-09T11:30:22Z</time>
      </trkpt>
      <trkpt lat="42.75505" lon="1.39658">
        <ele>2156</ele>
        <time>2023-08-09T11:30:32Z</time>
      </trkpt>
      <trkpt lat="42.75509" lon="1.39662">
        <ele>2156</ele>
        <time>2023-08-09T11:30:37Z</time>
      </trkpt>
      <trkpt lat="42.75513" lon="1.39663">
        <ele>2155</ele>
        <time>2023-08-09T11:30:42Z</time>
      </trkpt>
      <trkpt lat="42.75519" lon="1.39663">
        <ele>2154</ele>
        <time>2023-08-09T11:30:51Z</time>
      </trkpt>
      <trkpt lat="42.75523" lon="1.39667">
        <ele>2154</ele>
        <time>2023-08-09T11:30:56Z</time>
      </trkpt>
      <trkpt lat="42.75527" lon="1.39668">
        <ele>2152</ele>
        <time>2023-08-09T11:31:01Z</time>
      </trkpt>
      <trkpt lat="42.75536" lon="1.39674">
        <ele>2151</ele>
        <time>2023-08-09T11:31:14Z</time>
      </trkpt>
      <trkpt lat="42.75541" lon="1.39673">
        <ele>2150</ele>
        <time>2023-08-09T11:31:20Z</time>
      </trkpt>
      <trkpt lat="42.75545" lon="1.39671">
        <ele>2149</ele>
        <time>2023-08-09T11:31:26Z</time>
      </trkpt>
      <trkpt lat="42.75551" lon="1.39669">
        <ele>2148</ele>
        <time>2023-08-09T11:31:35Z</time>
      </trkpt>
      <trkpt lat="42.75562" lon="1.3967">
        <ele>2144</ele>
        <time>2023-08-09T11:31:52Z</time>
      </trkpt>
      <trkpt lat="42.75568" lon="1.39668">
        <ele>2141</ele>
        <time>2023-08-09T11:32:01Z</time>
      </trkpt>
      <trkpt lat="42.75573" lon="1.39669">
        <ele>2139</ele>
        <time>2023-08-09T11:32:06Z</time>
      </trkpt>
      <trkpt lat="42.75577" lon="1.39667">
        <ele>2139</ele>
        <time>2023-08-09T11:32:11Z</time>
      </trkpt>
      <trkpt lat="42.75583" lon="1.39669">
        <ele>2137</ele>
        <time>2023-08-09T11:32:15Z</time>
      </trkpt>
      <trkpt lat="42.75587" lon="1.39667">
        <ele>2136</ele>
        <time>2023-08-09T11:32:19Z</time>
      </trkpt>
      <trkpt lat="42.75591" lon="1.39663">
        <ele>2135</ele>
        <time>2023-08-09T11:32:22Z</time>
      </trkpt>
      <trkpt lat="42.75595" lon="1.39666">
        <ele>2136</ele>
        <time>2023-08-09T11:32:26Z</time>
      </trkpt>
      <trkpt lat="42.756" lon="1.39666">
        <ele>2136</ele>
        <time>2023-08-09T11:32:30Z</time>
      </trkpt>
      <trkpt lat="42.75608" lon="1.39663">
        <ele>2137</ele>
        <time>2023-08-09T11:32:40Z</time>
      </trkpt>
      <trkpt lat="42.75614" lon="1.39663">
        <ele>2136</ele>
        <time>2023-08-09T11:32:48Z</time>
      </trkpt>
      <trkpt lat="42.7562" lon="1.39661">
        <ele>2136</ele>
        <time>2023-08-09T11:32:55Z</time>
      </trkpt>
      <trkpt lat="42.75624" lon="1.39656">
        <ele>2137</ele>
        <time>2023-08-09T11:33:04Z</time>
      </trkpt>
      <trkpt lat="42.7564" lon="1.3965">
        <ele>2140</ele>
        <time>2023-08-09T11:33:28Z</time>
      </trkpt>
      <trkpt lat="42.75644" lon="1.39649">
        <ele>2141</ele>
        <time>2023-08-09T11:33:33Z</time>
      </trkpt>
      <trkpt lat="42.75653" lon="1.39652">
        <ele>2141</ele>
        <time>2023-08-09T11:33:42Z</time>
      </trkpt>
      <trkpt lat="42.75664" lon="1.39655">
        <ele>2141</ele>
        <time>2023-08-09T11:33:54Z</time>
      </trkpt>
      <trkpt lat="42.7567" lon="1.39654">
        <ele>2141</ele>
        <time>2023-08-09T11:34:01Z</time>
      </trkpt>
      <trkpt lat="42.75677" lon="1.39657">
        <ele>2139</ele>
        <time>2023-08-09T11:34:10Z</time>
      </trkpt>
      <trkpt lat="42.75684" lon="1.39654">
        <ele>2137</ele>
        <time>2023-08-09T11:34:22Z</time>
      </trkpt>
      <trkpt lat="42.75687" lon="1.39658">
        <ele>2135</ele>
        <time>2023-08-09T11:34:28Z</time>
      </trkpt>
      <trkpt lat="42.75692" lon="1.3966">
        <ele>2134</ele>
        <time>2023-08-09T11:34:33Z</time>
      </trkpt>
      <trkpt lat="42.75695" lon="1.39667">
        <ele>2133</ele>
        <time>2023-08-09T11:34:42Z</time>
      </trkpt>
      <trkpt lat="42.75694" lon="1.39681">
        <ele>2128</ele>
        <time>2023-08-09T11:35:01Z</time>
      </trkpt>
      <trkpt lat="42.75698" lon="1.39687">
        <ele>2125</ele>
        <time>2023-08-09T11:35:13Z</time>
      </trkpt>
      <trkpt lat="42.757" lon="1.39694">
        <ele>2122</ele>
        <time>2023-08-09T11:35:25Z</time>
      </trkpt>
      <trkpt lat="42.75711" lon="1.39703">
        <ele>2117</ele>
        <time>2023-08-09T11:35:43Z</time>
      </trkpt>
      <trkpt lat="42.75716" lon="1.39714">
        <ele>2113</ele>
        <time>2023-08-09T11:35:56Z</time>
      </trkpt>
      <trkpt lat="42.75723" lon="1.3973">
        <ele>2107</ele>
        <time>2023-08-09T11:36:16Z</time>
      </trkpt>
      <trkpt lat="42.75726" lon="1.39736">
        <ele>2106</ele>
        <time>2023-08-09T11:36:22Z</time>
      </trkpt>
      <trkpt lat="42.75736" lon="1.39745">
        <ele>2102</ele>
        <time>2023-08-09T11:36:36Z</time>
      </trkpt>
      <trkpt lat="42.75744" lon="1.39756">
        <ele>2100</ele>
        <time>2023-08-09T11:36:45Z</time>
      </trkpt>
      <trkpt lat="42.75748" lon="1.3976">
        <ele>2100</ele>
        <time>2023-08-09T11:36:49Z</time>
      </trkpt>
      <trkpt lat="42.75767" lon="1.39769">
        <ele>2095</ele>
        <time>2023-08-09T11:37:12Z</time>
      </trkpt>
      <trkpt lat="42.75768" lon="1.39775">
        <ele>2094</ele>
        <time>2023-08-09T11:37:16Z</time>
      </trkpt>
      <trkpt lat="42.75775" lon="1.39789">
        <ele>2091</ele>
        <time>2023-08-09T11:37:31Z</time>
      </trkpt>
      <trkpt lat="42.7578" lon="1.3979">
        <ele>2091</ele>
        <time>2023-08-09T11:37:35Z</time>
      </trkpt>
      <trkpt lat="42.75793" lon="1.39799">
        <ele>2088</ele>
        <time>2023-08-09T11:37:53Z</time>
      </trkpt>
      <trkpt lat="42.75799" lon="1.39793">
        <ele>2086</ele>
        <time>2023-08-09T11:38:05Z</time>
      </trkpt>
      <trkpt lat="42.758" lon="1.39799">
        <ele>2085</ele>
        <time>2023-08-09T11:38:12Z</time>
      </trkpt>
      <trkpt lat="42.75799" lon="1.39805">
        <ele>2083</ele>
        <time>2023-08-09T11:38:18Z</time>
      </trkpt>
      <trkpt lat="42.758" lon="1.39811">
        <ele>2082</ele>
        <time>2023-08-09T11:38:23Z</time>
      </trkpt>
      <trkpt lat="42.75803" lon="1.39817">
        <ele>2080</ele>
        <time>2023-08-09T11:38:30Z</time>
      </trkpt>
      <trkpt lat="42.75804" lon="1.39826">
        <ele>2079</ele>
        <time>2023-08-09T11:38:37Z</time>
      </trkpt>
      <trkpt lat="42.75809" lon="1.39829">
        <ele>2078</ele>
        <time>2023-08-09T11:38:42Z</time>
      </trkpt>
      <trkpt lat="42.7581" lon="1.39836">
        <ele>2077</ele>
        <time>2023-08-09T11:38:46Z</time>
      </trkpt>
      <trkpt lat="42.75817" lon="1.39845">
        <ele>2076</ele>
        <time>2023-08-09T11:38:54Z</time>
      </trkpt>
      <trkpt lat="42.75821" lon="1.39849">
        <ele>2076</ele>
        <time>2023-08-09T11:38:58Z</time>
      </trkpt>
      <trkpt lat="42.75837" lon="1.39866">
        <ele>2073</ele>
        <time>2023-08-09T11:39:14Z</time>
      </trkpt>
      <trkpt lat="42.75846" lon="1.39871">
        <ele>2072</ele>
        <time>2023-08-09T11:39:22Z</time>
      </trkpt>
      <trkpt lat="42.7585" lon="1.39876">
        <ele>2071</ele>
        <time>2023-08-09T11:39:26Z</time>
      </trkpt>
      <trkpt lat="42.75854" lon="1.39877">
        <ele>2071</ele>
        <time>2023-08-09T11:39:30Z</time>
      </trkpt>
      <trkpt lat="42.75858" lon="1.39881">
        <ele>2070</ele>
        <time>2023-08-09T11:39:34Z</time>
      </trkpt>
      <trkpt lat="42.75862" lon="1.39884">
        <ele>2070</ele>
        <time>2023-08-09T11:39:38Z</time>
      </trkpt>
      <trkpt lat="42.7587" lon="1.39892">
        <ele>2069</ele>
        <time>2023-08-09T11:39:46Z</time>
      </trkpt>
      <trkpt lat="42.75874" lon="1.39894">
        <ele>2068</ele>
        <time>2023-08-09T11:39:50Z</time>
      </trkpt>
      <trkpt lat="42.75878" lon="1.39896">
        <ele>2068</ele>
        <time>2023-08-09T11:39:54Z</time>
      </trkpt>
      <trkpt lat="42.75887" lon="1.39898">
        <ele>2066</ele>
        <time>2023-08-09T11:40:03Z</time>
      </trkpt>
      <trkpt lat="42.75893" lon="1.39906">
        <ele>2065</ele>
        <time>2023-08-09T11:40:11Z</time>
      </trkpt>
      <trkpt lat="42.75926" lon="1.39923">
        <ele>2062</ele>
        <time>2023-08-09T11:40:41Z</time>
      </trkpt>
      <trkpt lat="42.75931" lon="1.39923">
        <ele>2061</ele>
        <time>2023-08-09T11:40:45Z</time>
      </trkpt>
      <trkpt lat="42.75936" lon="1.39923">
        <ele>2061</ele>
        <time>2023-08-09T11:40:49Z</time>
      </trkpt>
      <trkpt lat="42.75941" lon="1.39925">
        <ele>2060</ele>
        <time>2023-08-09T11:40:53Z</time>
      </trkpt>
      <trkpt lat="42.75945" lon="1.39927">
        <ele>2060</ele>
        <time>2023-08-09T11:40:58Z</time>
      </trkpt>
      <trkpt lat="42.75963" lon="1.39931">
        <ele>2057</ele>
        <time>2023-08-09T11:41:15Z</time>
      </trkpt>
      <trkpt lat="42.75976" lon="1.3993">
        <ele>2055</ele>
        <time>2023-08-09T11:41:29Z</time>
      </trkpt>
      <trkpt lat="42.75981" lon="1.39929">
        <ele>2055</ele>
        <time>2023-08-09T11:41:33Z</time>
      </trkpt>
      <trkpt lat="42.76011" lon="1.3993">
        <ele>2048</ele>
        <time>2023-08-09T11:42:05Z</time>
      </trkpt>
      <trkpt lat="42.76022" lon="1.39934">
        <ele>2046</ele>
        <time>2023-08-09T11:42:17Z</time>
      </trkpt>
      <trkpt lat="42.76029" lon="1.39934">
        <ele>2045</ele>
        <time>2023-08-09T11:42:24Z</time>
      </trkpt>
      <trkpt lat="42.76034" lon="1.39934">
        <ele>2044</ele>
        <time>2023-08-09T11:42:28Z</time>
      </trkpt>
      <trkpt lat="42.76038" lon="1.39935">
        <ele>2043</ele>
        <time>2023-08-09T11:42:32Z</time>
      </trkpt>
      <trkpt lat="42.76059" lon="1.39938">
        <ele>2040</ele>
        <time>2023-08-09T11:42:50Z</time>
      </trkpt>
      <trkpt lat="42.76064" lon="1.3994">
        <ele>2039</ele>
        <time>2023-08-09T11:42:55Z</time>
      </trkpt>
      <trkpt lat="42.76079" lon="1.39941">
        <ele>2038</ele>
        <time>2023-08-09T11:43:07Z</time>
      </trkpt>
      <trkpt lat="42.76084" lon="1.39943">
        <ele>2038</ele>
        <time>2023-08-09T11:43:12Z</time>
      </trkpt>
      <trkpt lat="42.76099" lon="1.39944">
        <ele>2038</ele>
        <time>2023-08-09T11:43:23Z</time>
      </trkpt>
      <trkpt lat="42.76109" lon="1.39948">
        <ele>2036</ele>
        <time>2023-08-09T11:43:32Z</time>
      </trkpt>
      <trkpt lat="42.76114" lon="1.39949">
        <ele>2036</ele>
        <time>2023-08-09T11:43:36Z</time>
      </trkpt>
      <trkpt lat="42.76118" lon="1.39949">
        <ele>2036</ele>
        <time>2023-08-09T11:43:41Z</time>
      </trkpt>
      <trkpt lat="42.76127" lon="1.39955">
        <ele>2033</ele>
        <time>2023-08-09T11:43:52Z</time>
      </trkpt>
      <trkpt lat="42.76131" lon="1.39955">
        <ele>2032</ele>
        <time>2023-08-09T11:43:57Z</time>
      </trkpt>
      <trkpt lat="42.76137" lon="1.39961">
        <ele>2031</ele>
        <time>2023-08-09T11:44:14Z</time>
      </trkpt>
      <trkpt lat="42.76141" lon="1.39961">
        <ele>2030</ele>
        <time>2023-08-09T11:44:18Z</time>
      </trkpt>
      <trkpt lat="42.76146" lon="1.3996">
        <ele>2030</ele>
        <time>2023-08-09T11:44:22Z</time>
      </trkpt>
      <trkpt lat="42.76151" lon="1.39964">
        <ele>2030</ele>
        <time>2023-08-09T11:44:26Z</time>
      </trkpt>
      <trkpt lat="42.76156" lon="1.39965">
        <ele>2029</ele>
        <time>2023-08-09T11:44:30Z</time>
      </trkpt>
      <trkpt lat="42.76161" lon="1.39965">
        <ele>2029</ele>
        <time>2023-08-09T11:44:34Z</time>
      </trkpt>
      <trkpt lat="42.76166" lon="1.39963">
        <ele>2029</ele>
        <time>2023-08-09T11:44:37Z</time>
      </trkpt>
      <trkpt lat="42.76171" lon="1.39963">
        <ele>2029</ele>
        <time>2023-08-09T11:44:41Z</time>
      </trkpt>
      <trkpt lat="42.76176" lon="1.39963">
        <ele>2029</ele>
        <time>2023-08-09T11:44:45Z</time>
      </trkpt>
      <trkpt lat="42.7618" lon="1.39964">
        <ele>2029</ele>
        <time>2023-08-09T11:44:50Z</time>
      </trkpt>
      <trkpt lat="42.76185" lon="1.39965">
        <ele>2029</ele>
        <time>2023-08-09T11:44:53Z</time>
      </trkpt>
      <trkpt lat="42.76194" lon="1.39971">
        <ele>2031</ele>
        <time>2023-08-09T11:45:05Z</time>
      </trkpt>
      <trkpt lat="42.762" lon="1.39973">
        <ele>2030</ele>
        <time>2023-08-09T11:45:11Z</time>
      </trkpt>
      <trkpt lat="42.76204" lon="1.39974">
        <ele>2030</ele>
        <time>2023-08-09T11:45:17Z</time>
      </trkpt>
      <trkpt lat="42.76217" lon="1.39969">
        <ele>2032</ele>
        <time>2023-08-09T11:45:34Z</time>
      </trkpt>
      <trkpt lat="42.76221" lon="1.39971">
        <ele>2033</ele>
        <time>2023-08-09T11:45:39Z</time>
      </trkpt>
      <trkpt lat="42.76225" lon="1.3997">
        <ele>2033</ele>
        <time>2023-08-09T11:45:44Z</time>
      </trkpt>
      <trkpt lat="42.7623" lon="1.39968">
        <ele>2034</ele>
        <time>2023-08-09T11:45:50Z</time>
      </trkpt>
      <trkpt lat="42.76234" lon="1.3997">
        <ele>2035</ele>
        <time>2023-08-09T11:45:55Z</time>
      </trkpt>
      <trkpt lat="42.76239" lon="1.39966">
        <ele>2036</ele>
        <time>2023-08-09T11:46:03Z</time>
      </trkpt>
      <trkpt lat="42.76243" lon="1.39968">
        <ele>2036</ele>
        <time>2023-08-09T11:46:08Z</time>
      </trkpt>
      <trkpt lat="42.76248" lon="1.39967">
        <ele>2037</ele>
        <time>2023-08-09T11:46:15Z</time>
      </trkpt>
      <trkpt lat="42.76253" lon="1.39969">
        <ele>2039</ele>
        <time>2023-08-09T11:46:21Z</time>
      </trkpt>
      <trkpt lat="42.76264" lon="1.39969">
        <ele>2039</ele>
        <time>2023-08-09T11:46:34Z</time>
      </trkpt>
      <trkpt lat="42.76269" lon="1.3997">
        <ele>2040</ele>
        <time>2023-08-09T11:46:39Z</time>
      </trkpt>
      <trkpt lat="42.76276" lon="1.39971">
        <ele>2039</ele>
        <time>2023-08-09T11:46:47Z</time>
      </trkpt>
      <trkpt lat="42.7628" lon="1.39974">
        <ele>2039</ele>
        <time>2023-08-09T11:46:52Z</time>
      </trkpt>
      <trkpt lat="42.76287" lon="1.39975">
        <ele>2039</ele>
        <time>2023-08-09T11:47:00Z</time>
      </trkpt>
      <trkpt lat="42.76292" lon="1.39979">
        <ele>2039</ele>
        <time>2023-08-09T11:47:07Z</time>
      </trkpt>
      <trkpt lat="42.76299" lon="1.39982">
        <ele>2040</ele>
        <time>2023-08-09T11:47:17Z</time>
      </trkpt>
      <trkpt lat="42.76306" lon="1.3998">
        <ele>2040</ele>
        <time>2023-08-09T11:47:28Z</time>
      </trkpt>
      <trkpt lat="42.76311" lon="1.3998">
        <ele>2043</ele>
        <time>2023-08-09T11:47:40Z</time>
      </trkpt>
      <trkpt lat="42.76318" lon="1.39979">
        <ele>2044</ele>
        <time>2023-08-09T11:47:52Z</time>
      </trkpt>
      <trkpt lat="42.76323" lon="1.39978">
        <ele>2043</ele>
        <time>2023-08-09T11:48:00Z</time>
      </trkpt>
      <trkpt lat="42.7633" lon="1.39975">
        <ele>2045</ele>
        <time>2023-08-09T11:48:11Z</time>
      </trkpt>
      <trkpt lat="42.76341" lon="1.3998">
        <ele>2046</ele>
        <time>2023-08-09T11:48:25Z</time>
      </trkpt>
      <trkpt lat="42.76347" lon="1.39977">
        <ele>2046</ele>
        <time>2023-08-09T11:48:35Z</time>
      </trkpt>
      <trkpt lat="42.76352" lon="1.39977">
        <ele>2047</ele>
        <time>2023-08-09T11:48:41Z</time>
      </trkpt>
      <trkpt lat="42.76359" lon="1.39976">
        <ele>2047</ele>
        <time>2023-08-09T11:48:49Z</time>
      </trkpt>
      <trkpt lat="42.76373" lon="1.3998">
        <ele>2045</ele>
        <time>2023-08-09T11:49:02Z</time>
      </trkpt>
      <trkpt lat="42.76377" lon="1.39985">
        <ele>2044</ele>
        <time>2023-08-09T11:49:06Z</time>
      </trkpt>
      <trkpt lat="42.76383" lon="1.39988">
        <ele>2045</ele>
        <time>2023-08-09T11:49:13Z</time>
      </trkpt>
      <trkpt lat="42.76389" lon="1.39987">
        <ele>2045</ele>
        <time>2023-08-09T11:49:19Z</time>
      </trkpt>
      <trkpt lat="42.76419" lon="1.39989">
        <ele>2049</ele>
        <time>2023-08-09T11:49:51Z</time>
      </trkpt>
      <trkpt lat="42.76427" lon="1.3999">
        <ele>2050</ele>
        <time>2023-08-09T11:50:02Z</time>
      </trkpt>
      <trkpt lat="42.76432" lon="1.39986">
        <ele>2052</ele>
        <time>2023-08-09T11:50:14Z</time>
      </trkpt>
      <trkpt lat="42.76434" lon="1.3998">
        <ele>2055</ele>
        <time>2023-08-09T11:50:26Z</time>
      </trkpt>
      <trkpt lat="42.76443" lon="1.39973">
        <ele>2059</ele>
        <time>2023-08-09T11:50:50Z</time>
      </trkpt>
      <trkpt lat="42.76446" lon="1.39979">
        <ele>2061</ele>
        <time>2023-08-09T11:50:56Z</time>
      </trkpt>
      <trkpt lat="42.76449" lon="1.39989">
        <ele>2061</ele>
        <time>2023-08-09T11:51:15Z</time>
      </trkpt>
      <trkpt lat="42.76453" lon="1.39993">
        <ele>2060</ele>
        <time>2023-08-09T11:51:20Z</time>
      </trkpt>
      <trkpt lat="42.76461" lon="1.40005">
        <ele>2055</ele>
        <time>2023-08-09T11:51:39Z</time>
      </trkpt>
      <trkpt lat="42.76465" lon="1.40015">
        <ele>2051</ele>
        <time>2023-08-09T11:51:50Z</time>
      </trkpt>
      <trkpt lat="42.76463" lon="1.4002">
        <ele>2050</ele>
        <time>2023-08-09T11:51:54Z</time>
      </trkpt>
      <trkpt lat="42.76474" lon="1.40041">
        <ele>2044</ele>
        <time>2023-08-09T11:52:17Z</time>
      </trkpt>
      <trkpt lat="42.76475" lon="1.40049">
        <ele>2043</ele>
        <time>2023-08-09T11:52:23Z</time>
      </trkpt>
      <trkpt lat="42.76474" lon="1.40058">
        <ele>2041</ele>
        <time>2023-08-09T11:52:30Z</time>
      </trkpt>
      <trkpt lat="42.76475" lon="1.40067">
        <ele>2039</ele>
        <time>2023-08-09T11:52:38Z</time>
      </trkpt>
      <trkpt lat="42.76476" lon="1.40073">
        <ele>2038</ele>
        <time>2023-08-09T11:52:42Z</time>
      </trkpt>
      <trkpt lat="42.76478" lon="1.40077">
        <ele>2037</ele>
        <time>2023-08-09T11:52:47Z</time>
      </trkpt>
      <trkpt lat="42.76482" lon="1.40078">
        <ele>2037</ele>
        <time>2023-08-09T11:52:52Z</time>
      </trkpt>
      <trkpt lat="42.76485" lon="1.40083">
        <ele>2035</ele>
        <time>2023-08-09T11:52:57Z</time>
      </trkpt>
      <trkpt lat="42.7649" lon="1.40085">
        <ele>2034</ele>
        <time>2023-08-09T11:53:05Z</time>
      </trkpt>
      <trkpt lat="42.76494" lon="1.40097">
        <ele>2031</ele>
        <time>2023-08-09T11:53:19Z</time>
      </trkpt>
      <trkpt lat="42.765" lon="1.40106">
        <ele>2028</ele>
        <time>2023-08-09T11:53:31Z</time>
      </trkpt>
      <trkpt lat="42.76499" lon="1.40113">
        <ele>2026</ele>
        <time>2023-08-09T11:53:38Z</time>
      </trkpt>
      <trkpt lat="42.76496" lon="1.4012">
        <ele>2024</ele>
        <time>2023-08-09T11:53:47Z</time>
      </trkpt>
      <trkpt lat="42.76497" lon="1.40135">
        <ele>2019</ele>
        <time>2023-08-09T11:54:11Z</time>
      </trkpt>
      <trkpt lat="42.76512" lon="1.40155">
        <ele>2014</ele>
        <time>2023-08-09T11:54:31Z</time>
      </trkpt>
      <trkpt lat="42.76516" lon="1.40166">
        <ele>2012</ele>
        <time>2023-08-09T11:54:37Z</time>
      </trkpt>
      <trkpt lat="42.76523" lon="1.40174">
        <ele>2011</ele>
        <time>2023-08-09T11:54:43Z</time>
      </trkpt>
      <trkpt lat="42.7653" lon="1.40182">
        <ele>2010</ele>
        <time>2023-08-09T11:54:50Z</time>
      </trkpt>
      <trkpt lat="42.76534" lon="1.40194">
        <ele>2009</ele>
        <time>2023-08-09T11:54:57Z</time>
      </trkpt>
      <trkpt lat="42.76535" lon="1.40199">
        <ele>2008</ele>
        <time>2023-08-09T11:55:01Z</time>
      </trkpt>
      <trkpt lat="42.76539" lon="1.40205">
        <ele>2007</ele>
        <time>2023-08-09T11:55:05Z</time>
      </trkpt>
      <trkpt lat="42.76541" lon="1.4021">
        <ele>2006</ele>
        <time>2023-08-09T11:55:09Z</time>
      </trkpt>
      <trkpt lat="42.76544" lon="1.40214">
        <ele>2006</ele>
        <time>2023-08-09T11:55:12Z</time>
      </trkpt>
      <trkpt lat="42.76545" lon="1.40226">
        <ele>2004</ele>
        <time>2023-08-09T11:55:20Z</time>
      </trkpt>
      <trkpt lat="42.76549" lon="1.40237">
        <ele>2001</ele>
        <time>2023-08-09T11:55:29Z</time>
      </trkpt>
      <trkpt lat="42.76555" lon="1.40238">
        <ele>2001</ele>
        <time>2023-08-09T11:55:33Z</time>
      </trkpt>
      <trkpt lat="42.76562" lon="1.4025">
        <ele>1997</ele>
        <time>2023-08-09T11:55:47Z</time>
      </trkpt>
      <trkpt lat="42.76565" lon="1.40256">
        <ele>1996</ele>
        <time>2023-08-09T11:55:52Z</time>
      </trkpt>
      <trkpt lat="42.76568" lon="1.40259">
        <ele>1995</ele>
        <time>2023-08-09T11:55:56Z</time>
      </trkpt>
      <trkpt lat="42.76569" lon="1.40266">
        <ele>1995</ele>
        <time>2023-08-09T11:56:00Z</time>
      </trkpt>
      <trkpt lat="42.76571" lon="1.40272">
        <ele>1994</ele>
        <time>2023-08-09T11:56:04Z</time>
      </trkpt>
      <trkpt lat="42.76577" lon="1.40277">
        <ele>1992</ele>
        <time>2023-08-09T11:56:11Z</time>
      </trkpt>
      <trkpt lat="42.76581" lon="1.40278">
        <ele>1992</ele>
        <time>2023-08-09T11:56:15Z</time>
      </trkpt>
      <trkpt lat="42.76585" lon="1.40279">
        <ele>1991</ele>
        <time>2023-08-09T11:56:18Z</time>
      </trkpt>
      <trkpt lat="42.76588" lon="1.40284">
        <ele>1991</ele>
        <time>2023-08-09T11:56:21Z</time>
      </trkpt>
      <trkpt lat="42.7659" lon="1.40289">
        <ele>1991</ele>
        <time>2023-08-09T11:56:25Z</time>
      </trkpt>
      <trkpt lat="42.76602" lon="1.403">
        <ele>1986</ele>
        <time>2023-08-09T11:56:44Z</time>
      </trkpt>
      <trkpt lat="42.76607" lon="1.40302">
        <ele>1985</ele>
        <time>2023-08-09T11:56:52Z</time>
      </trkpt>
      <trkpt lat="42.76611" lon="1.40308">
        <ele>1983</ele>
        <time>2023-08-09T11:56:57Z</time>
      </trkpt>
      <trkpt lat="42.76612" lon="1.40314">
        <ele>1982</ele>
        <time>2023-08-09T11:57:01Z</time>
      </trkpt>
      <trkpt lat="42.76618" lon="1.40321">
        <ele>1980</ele>
        <time>2023-08-09T11:57:11Z</time>
      </trkpt>
      <trkpt lat="42.76621" lon="1.40328">
        <ele>1979</ele>
        <time>2023-08-09T11:57:18Z</time>
      </trkpt>
      <trkpt lat="42.7663" lon="1.40336">
        <ele>1977</ele>
        <time>2023-08-09T11:57:31Z</time>
      </trkpt>
      <trkpt lat="42.76635" lon="1.40341">
        <ele>1977</ele>
        <time>2023-08-09T11:57:38Z</time>
      </trkpt>
      <trkpt lat="42.76637" lon="1.40348">
        <ele>1977</ele>
        <time>2023-08-09T11:57:43Z</time>
      </trkpt>
      <trkpt lat="42.76644" lon="1.40351">
        <ele>1975</ele>
        <time>2023-08-09T11:57:51Z</time>
      </trkpt>
      <trkpt lat="42.76651" lon="1.40357">
        <ele>1973</ele>
        <time>2023-08-09T11:58:00Z</time>
      </trkpt>
      <trkpt lat="42.76653" lon="1.40363">
        <ele>1972</ele>
        <time>2023-08-09T11:58:06Z</time>
      </trkpt>
      <trkpt lat="42.76668" lon="1.40379">
        <ele>1967</ele>
        <time>2023-08-09T11:58:30Z</time>
      </trkpt>
      <trkpt lat="42.76673" lon="1.40378">
        <ele>1966</ele>
        <time>2023-08-09T11:58:36Z</time>
      </trkpt>
      <trkpt lat="42.76677" lon="1.40384">
        <ele>1965</ele>
        <time>2023-08-09T11:58:43Z</time>
      </trkpt>
      <trkpt lat="42.76677" lon="1.40391">
        <ele>1964</ele>
        <time>2023-08-09T11:58:48Z</time>
      </trkpt>
      <trkpt lat="42.76683" lon="1.40394">
        <ele>1961</ele>
        <time>2023-08-09T11:59:07Z</time>
      </trkpt>
      <trkpt lat="42.76683" lon="1.40402">
        <ele>1959</ele>
        <time>2023-08-09T11:59:19Z</time>
      </trkpt>
      <trkpt lat="42.7669" lon="1.40406">
        <ele>1956</ele>
        <time>2023-08-09T11:59:30Z</time>
      </trkpt>
      <trkpt lat="42.76695" lon="1.40403">
        <ele>1954</ele>
        <time>2023-08-09T11:59:39Z</time>
      </trkpt>
      <trkpt lat="42.767" lon="1.40408">
        <ele>1951</ele>
        <time>2023-08-09T11:59:51Z</time>
      </trkpt>
      <trkpt lat="42.76705" lon="1.40416">
        <ele>1948</ele>
        <time>2023-08-09T12:00:03Z</time>
      </trkpt>
      <trkpt lat="42.7673" lon="1.40417">
        <ele>1943</ele>
        <time>2023-08-09T12:00:34Z</time>
      </trkpt>
      <trkpt lat="42.76738" lon="1.40417">
        <ele>1942</ele>
        <time>2023-08-09T12:00:43Z</time>
      </trkpt>
      <trkpt lat="42.76743" lon="1.40415">
        <ele>1941</ele>
        <time>2023-08-09T12:00:51Z</time>
      </trkpt>
      <trkpt lat="42.76757" lon="1.40411">
        <ele>1937</ele>
        <time>2023-08-09T12:01:16Z</time>
      </trkpt>
      <trkpt lat="42.76763" lon="1.40407">
        <ele>1935</ele>
        <time>2023-08-09T12:01:29Z</time>
      </trkpt>
      <trkpt lat="42.76766" lon="1.404">
        <ele>1933</ele>
        <time>2023-08-09T12:01:41Z</time>
      </trkpt>
      <trkpt lat="42.76771" lon="1.40399">
        <ele>1931</ele>
        <time>2023-08-09T12:01:46Z</time>
      </trkpt>
      <trkpt lat="42.76777" lon="1.40389">
        <ele>1928</ele>
        <time>2023-08-09T12:02:00Z</time>
      </trkpt>
      <trkpt lat="42.76778" lon="1.40382">
        <ele>1927</ele>
        <time>2023-08-09T12:02:06Z</time>
      </trkpt>
      <trkpt lat="42.76779" lon="1.40375">
        <ele>1925</ele>
        <time>2023-08-09T12:02:14Z</time>
      </trkpt>
      <trkpt lat="42.76777" lon="1.4037">
        <ele>1925</ele>
        <time>2023-08-09T12:02:18Z</time>
      </trkpt>
      <trkpt lat="42.76776" lon="1.40359">
        <ele>1922</ele>
        <time>2023-08-09T12:02:28Z</time>
      </trkpt>
      <trkpt lat="42.76777" lon="1.40352">
        <ele>1921</ele>
        <time>2023-08-09T12:02:33Z</time>
      </trkpt>
      <trkpt lat="42.7678" lon="1.40348">
        <ele>1920</ele>
        <time>2023-08-09T12:02:36Z</time>
      </trkpt>
      <trkpt lat="42.76782" lon="1.40342">
        <ele>1919</ele>
        <time>2023-08-09T12:02:40Z</time>
      </trkpt>
      <trkpt lat="42.76781" lon="1.40333">
        <ele>1918</ele>
        <time>2023-08-09T12:02:48Z</time>
      </trkpt>
      <trkpt lat="42.76783" lon="1.40326">
        <ele>1915</ele>
        <time>2023-08-09T12:02:55Z</time>
      </trkpt>
      <trkpt lat="42.76788" lon="1.4032">
        <ele>1913</ele>
        <time>2023-08-09T12:03:03Z</time>
      </trkpt>
      <trkpt lat="42.76792" lon="1.40316">
        <ele>1912</ele>
        <time>2023-08-09T12:03:09Z</time>
      </trkpt>
      <trkpt lat="42.76795" lon="1.40311">
        <ele>1911</ele>
        <time>2023-08-09T12:03:14Z</time>
      </trkpt>
      <trkpt lat="42.76799" lon="1.40308">
        <ele>1910</ele>
        <time>2023-08-09T12:03:18Z</time>
      </trkpt>
      <trkpt lat="42.76802" lon="1.40302">
        <ele>1909</ele>
        <time>2023-08-09T12:03:24Z</time>
      </trkpt>
      <trkpt lat="42.76805" lon="1.40287">
        <ele>1906</ele>
        <time>2023-08-09T12:03:38Z</time>
      </trkpt>
      <trkpt lat="42.76809" lon="1.40282">
        <ele>1905</ele>
        <time>2023-08-09T12:03:44Z</time>
      </trkpt>
      <trkpt lat="42.76808" lon="1.40276">
        <ele>1904</ele>
        <time>2023-08-09T12:03:48Z</time>
      </trkpt>
      <trkpt lat="42.7681" lon="1.40268">
        <ele>1903</ele>
        <time>2023-08-09T12:03:53Z</time>
      </trkpt>
      <trkpt lat="42.76813" lon="1.40265">
        <ele>1902</ele>
        <time>2023-08-09T12:03:58Z</time>
      </trkpt>
      <trkpt lat="42.76813" lon="1.40257">
        <ele>1902</ele>
        <time>2023-08-09T12:04:03Z</time>
      </trkpt>
      <trkpt lat="42.76816" lon="1.40245">
        <ele>1901</ele>
        <time>2023-08-09T12:04:11Z</time>
      </trkpt>
      <trkpt lat="42.76817" lon="1.40213">
        <ele>1896</ele>
        <time>2023-08-09T12:04:35Z</time>
      </trkpt>
      <trkpt lat="42.7682" lon="1.40208">
        <ele>1895</ele>
        <time>2023-08-09T12:04:40Z</time>
      </trkpt>
      <trkpt lat="42.76819" lon="1.40202">
        <ele>1894</ele>
        <time>2023-08-09T12:04:44Z</time>
      </trkpt>
      <trkpt lat="42.7682" lon="1.40195">
        <ele>1893</ele>
        <time>2023-08-09T12:04:49Z</time>
      </trkpt>
      <trkpt lat="42.76822" lon="1.40183">
        <ele>1891</ele>
        <time>2023-08-09T12:04:58Z</time>
      </trkpt>
      <trkpt lat="42.76825" lon="1.40175">
        <ele>1890</ele>
        <time>2023-08-09T12:05:03Z</time>
      </trkpt>
      <trkpt lat="42.76827" lon="1.40168">
        <ele>1889</ele>
        <time>2023-08-09T12:05:11Z</time>
      </trkpt>
      <trkpt lat="42.76829" lon="1.40162">
        <ele>1887</ele>
        <time>2023-08-09T12:05:17Z</time>
      </trkpt>
      <trkpt lat="42.7683" lon="1.40147">
        <ele>1885</ele>
        <time>2023-08-09T12:05:28Z</time>
      </trkpt>
      <trkpt lat="42.76836" lon="1.40135">
        <ele>1882</ele>
        <time>2023-08-09T12:05:39Z</time>
      </trkpt>
      <trkpt lat="42.76836" lon="1.40126">
        <ele>1879</ele>
        <time>2023-08-09T12:05:52Z</time>
      </trkpt>
      <trkpt lat="42.76837" lon="1.4012">
        <ele>1877</ele>
        <time>2023-08-09T12:05:58Z</time>
      </trkpt>
      <trkpt lat="42.76835" lon="1.40093">
        <ele>1870</ele>
        <time>2023-08-09T12:06:20Z</time>
      </trkpt>
      <trkpt lat="42.76836" lon="1.40079">
        <ele>1867</ele>
        <time>2023-08-09T12:06:30Z</time>
      </trkpt>
      <trkpt lat="42.76835" lon="1.40068">
        <ele>1864</ele>
        <time>2023-08-09T12:06:38Z</time>
      </trkpt>
      <trkpt lat="42.76838" lon="1.40061">
        <ele>1862</ele>
        <time>2023-08-09T12:06:55Z</time>
      </trkpt>
      <trkpt lat="42.76838" lon="1.40056">
        <ele>1860</ele>
        <time>2023-08-09T12:07:02Z</time>
      </trkpt>
      <trkpt lat="42.7684" lon="1.40049">
        <ele>1859</ele>
        <time>2023-08-09T12:07:07Z</time>
      </trkpt>
      <trkpt lat="42.76838" lon="1.40043">
        <ele>1858</ele>
        <time>2023-08-09T12:07:13Z</time>
      </trkpt>
      <trkpt lat="42.7684" lon="1.40034">
        <ele>1856</ele>
        <time>2023-08-09T12:07:20Z</time>
      </trkpt>
      <trkpt lat="42.76839" lon="1.40026">
        <ele>1854</ele>
        <time>2023-08-09T12:07:28Z</time>
      </trkpt>
      <trkpt lat="42.76838" lon="1.40016">
        <ele>1851</ele>
        <time>2023-08-09T12:07:40Z</time>
      </trkpt>
      <trkpt lat="42.76839" lon="1.4001">
        <ele>1850</ele>
        <time>2023-08-09T12:07:44Z</time>
      </trkpt>
      <trkpt lat="42.7684" lon="1.40004">
        <ele>1850</ele>
        <time>2023-08-09T12:07:49Z</time>
      </trkpt>
      <trkpt lat="42.7684" lon="1.39998">
        <ele>1848</ele>
        <time>2023-08-09T12:07:54Z</time>
      </trkpt>
      <trkpt lat="42.7684" lon="1.39981">
        <ele>1847</ele>
        <time>2023-08-09T12:08:07Z</time>
      </trkpt>
      <trkpt lat="42.76843" lon="1.39976">
        <ele>1846</ele>
        <time>2023-08-09T12:08:11Z</time>
      </trkpt>
      <trkpt lat="42.76844" lon="1.39964">
        <ele>1846</ele>
        <time>2023-08-09T12:08:18Z</time>
      </trkpt>
      <trkpt lat="42.76847" lon="1.3996">
        <ele>1845</ele>
        <time>2023-08-09T12:08:22Z</time>
      </trkpt>
      <trkpt lat="42.76843" lon="1.39956">
        <ele>1844</ele>
        <time>2023-08-09T12:08:26Z</time>
      </trkpt>
      <trkpt lat="42.76843" lon="1.3995">
        <ele>1843</ele>
        <time>2023-08-09T12:08:30Z</time>
      </trkpt>
      <trkpt lat="42.76846" lon="1.3994">
        <ele>1841</ele>
        <time>2023-08-09T12:08:37Z</time>
      </trkpt>
      <trkpt lat="42.7685" lon="1.39937">
        <ele>1840</ele>
        <time>2023-08-09T12:08:40Z</time>
      </trkpt>
      <trkpt lat="42.76852" lon="1.39931">
        <ele>1840</ele>
        <time>2023-08-09T12:08:43Z</time>
      </trkpt>
      <trkpt lat="42.76856" lon="1.39926">
        <ele>1840</ele>
        <time>2023-08-09T12:08:47Z</time>
      </trkpt>
      <trkpt lat="42.7686" lon="1.39923">
        <ele>1839</ele>
        <time>2023-08-09T12:08:51Z</time>
      </trkpt>
      <trkpt lat="42.76866" lon="1.39911">
        <ele>1833</ele>
        <time>2023-08-09T12:09:23Z</time>
      </trkpt>
      <trkpt lat="42.76871" lon="1.39908">
        <ele>1831</ele>
        <time>2023-08-09T12:09:35Z</time>
      </trkpt>
      <trkpt lat="42.76876" lon="1.39894">
        <ele>1823</ele>
        <time>2023-08-09T12:10:17Z</time>
      </trkpt>
      <trkpt lat="42.76883" lon="1.39876">
        <ele>1817</ele>
        <time>2023-08-09T12:10:49Z</time>
      </trkpt>
      <trkpt lat="42.76887" lon="1.39863">
        <ele>1810</ele>
        <time>2023-08-09T12:11:25Z</time>
      </trkpt>
      <trkpt lat="42.76889" lon="1.39857">
        <ele>1807</ele>
        <time>2023-08-09T12:11:37Z</time>
      </trkpt>
      <trkpt lat="42.76886" lon="1.39853">
        <ele>1805</ele>
        <time>2023-08-09T12:11:49Z</time>
      </trkpt>
      <trkpt lat="42.76888" lon="1.39845">
        <ele>1802</ele>
        <time>2023-08-09T12:12:01Z</time>
      </trkpt>
      <trkpt lat="42.76889" lon="1.39837">
        <ele>1800</ele>
        <time>2023-08-09T12:12:13Z</time>
      </trkpt>
      <trkpt lat="42.76884" lon="1.39835">
        <ele>1798</ele>
        <time>2023-08-09T12:12:25Z</time>
      </trkpt>
      <trkpt lat="42.76882" lon="1.39827">
        <ele>1794</ele>
        <time>2023-08-09T12:12:43Z</time>
      </trkpt>
      <trkpt lat="42.76878" lon="1.39822">
        <ele>1792</ele>
        <time>2023-08-09T12:12:55Z</time>
      </trkpt>
      <trkpt lat="42.76876" lon="1.39816">
        <ele>1788</ele>
        <time>2023-08-09T12:13:19Z</time>
      </trkpt>
      <trkpt lat="42.76878" lon="1.39806">
        <ele>1785</ele>
        <time>2023-08-09T12:13:37Z</time>
      </trkpt>
      <trkpt lat="42.76879" lon="1.39785">
        <ele>1777</ele>
        <time>2023-08-09T12:14:19Z</time>
      </trkpt>
      <trkpt lat="42.76879" lon="1.39775">
        <ele>1775</ele>
        <time>2023-08-09T12:14:42Z</time>
      </trkpt>
      <trkpt lat="42.76876" lon="1.3977">
        <ele>1774</ele>
        <time>2023-08-09T12:14:47Z</time>
      </trkpt>
      <trkpt lat="42.7688" lon="1.39764">
        <ele>1771</ele>
        <time>2023-08-09T12:14:56Z</time>
      </trkpt>
      <trkpt lat="42.76877" lon="1.39757">
        <ele>1768</ele>
        <time>2023-08-09T12:15:08Z</time>
      </trkpt>
      <trkpt lat="42.76881" lon="1.39751">
        <ele>1766</ele>
        <time>2023-08-09T12:15:20Z</time>
      </trkpt>
      <trkpt lat="42.76882" lon="1.39744">
        <ele>1764</ele>
        <time>2023-08-09T12:15:26Z</time>
      </trkpt>
      <trkpt lat="42.76901" lon="1.39723">
        <ele>1758</ele>
        <time>2023-08-09T12:15:59Z</time>
      </trkpt>
      <trkpt lat="42.76906" lon="1.39718">
        <ele>1756</ele>
        <time>2023-08-09T12:16:07Z</time>
      </trkpt>
      <trkpt lat="42.76905" lon="1.39712">
        <ele>1755</ele>
        <time>2023-08-09T12:16:12Z</time>
      </trkpt>
      <trkpt lat="42.76909" lon="1.39708">
        <ele>1753</ele>
        <time>2023-08-09T12:16:21Z</time>
      </trkpt>
      <trkpt lat="42.76911" lon="1.39702">
        <ele>1753</ele>
        <time>2023-08-09T12:16:27Z</time>
      </trkpt>
      <trkpt lat="42.76915" lon="1.39699">
        <ele>1751</ele>
        <time>2023-08-09T12:16:32Z</time>
      </trkpt>
      <trkpt lat="42.76918" lon="1.39694">
        <ele>1751</ele>
        <time>2023-08-09T12:16:36Z</time>
      </trkpt>
      <trkpt lat="42.76926" lon="1.3969">
        <ele>1749</ele>
        <time>2023-08-09T12:16:48Z</time>
      </trkpt>
      <trkpt lat="42.76929" lon="1.39682">
        <ele>1747</ele>
        <time>2023-08-09T12:16:57Z</time>
      </trkpt>
      <trkpt lat="42.76935" lon="1.39673">
        <ele>1745</ele>
        <time>2023-08-09T12:17:11Z</time>
      </trkpt>
      <trkpt lat="42.76942" lon="1.39669">
        <ele>1742</ele>
        <time>2023-08-09T12:17:23Z</time>
      </trkpt>
      <trkpt lat="42.76944" lon="1.39662">
        <ele>1741</ele>
        <time>2023-08-09T12:17:35Z</time>
      </trkpt>
      <trkpt lat="42.76948" lon="1.3966">
        <ele>1741</ele>
        <time>2023-08-09T12:17:40Z</time>
      </trkpt>
      <trkpt lat="42.76953" lon="1.39661">
        <ele>1741</ele>
        <time>2023-08-09T12:17:45Z</time>
      </trkpt>
      <trkpt lat="42.76956" lon="1.39655">
        <ele>1741</ele>
        <time>2023-08-09T12:17:49Z</time>
      </trkpt>
      <trkpt lat="42.76969" lon="1.39649">
        <ele>1739</ele>
        <time>2023-08-09T12:17:59Z</time>
      </trkpt>
      <trkpt lat="42.76972" lon="1.39649">
        <ele>1739</ele>
        <time>2023-08-09T12:18:04Z</time>
      </trkpt>
      <trkpt lat="42.76982" lon="1.39643">
        <ele>1736</ele>
        <time>2023-08-09T12:18:16Z</time>
      </trkpt>
      <trkpt lat="42.76988" lon="1.39645">
        <ele>1737</ele>
        <time>2023-08-09T12:18:24Z</time>
      </trkpt>
      <trkpt lat="42.76992" lon="1.39644">
        <ele>1737</ele>
        <time>2023-08-09T12:18:28Z</time>
      </trkpt>
      <trkpt lat="42.76997" lon="1.39641">
        <ele>1737</ele>
        <time>2023-08-09T12:18:35Z</time>
      </trkpt>
      <trkpt lat="42.77001" lon="1.39637">
        <ele>1737</ele>
        <time>2023-08-09T12:18:39Z</time>
      </trkpt>
      <trkpt lat="42.77006" lon="1.39636">
        <ele>1737</ele>
        <time>2023-08-09T12:18:43Z</time>
      </trkpt>
      <trkpt lat="42.7701" lon="1.39634">
        <ele>1738</ele>
        <time>2023-08-09T12:18:52Z</time>
      </trkpt>
      <trkpt lat="42.77015" lon="1.39633">
        <ele>1738</ele>
        <time>2023-08-09T12:18:56Z</time>
      </trkpt>
      <trkpt lat="42.77019" lon="1.39631">
        <ele>1739</ele>
        <time>2023-08-09T12:19:01Z</time>
      </trkpt>
      <trkpt lat="42.77022" lon="1.39625">
        <ele>1738</ele>
        <time>2023-08-09T12:19:06Z</time>
      </trkpt>
      <trkpt lat="42.77026" lon="1.39625">
        <ele>1738</ele>
        <time>2023-08-09T12:19:10Z</time>
      </trkpt>
      <trkpt lat="42.77033" lon="1.39621">
        <ele>1738</ele>
        <time>2023-08-09T12:19:17Z</time>
      </trkpt>
      <trkpt lat="42.77037" lon="1.39621">
        <ele>1738</ele>
        <time>2023-08-09T12:19:21Z</time>
      </trkpt>
      <trkpt lat="42.77043" lon="1.39623">
        <ele>1739</ele>
        <time>2023-08-09T12:19:28Z</time>
      </trkpt>
      <trkpt lat="42.7705" lon="1.39621">
        <ele>1741</ele>
        <time>2023-08-09T12:19:39Z</time>
      </trkpt>
      <trkpt lat="42.77056" lon="1.39617">
        <ele>1741</ele>
        <time>2023-08-09T12:19:47Z</time>
      </trkpt>
      <trkpt lat="42.77059" lon="1.39613">
        <ele>1740</ele>
        <time>2023-08-09T12:19:53Z</time>
      </trkpt>
      <trkpt lat="42.77062" lon="1.39609">
        <ele>1739</ele>
        <time>2023-08-09T12:19:58Z</time>
      </trkpt>
      <trkpt lat="42.77065" lon="1.39604">
        <ele>1738</ele>
        <time>2023-08-09T12:20:02Z</time>
      </trkpt>
      <trkpt lat="42.77066" lon="1.39596">
        <ele>1737</ele>
        <time>2023-08-09T12:20:09Z</time>
      </trkpt>
      <trkpt lat="42.77068" lon="1.3959">
        <ele>1737</ele>
        <time>2023-08-09T12:20:13Z</time>
      </trkpt>
      <trkpt lat="42.77071" lon="1.39586">
        <ele>1737</ele>
        <time>2023-08-09T12:20:18Z</time>
      </trkpt>
      <trkpt lat="42.77072" lon="1.39579">
        <ele>1738</ele>
        <time>2023-08-09T12:20:22Z</time>
      </trkpt>
      <trkpt lat="42.77075" lon="1.39574">
        <ele>1737</ele>
        <time>2023-08-09T12:20:25Z</time>
      </trkpt>
      <trkpt lat="42.77082" lon="1.39567">
        <ele>1736</ele>
        <time>2023-08-09T12:20:32Z</time>
      </trkpt>
      <trkpt lat="42.77102" lon="1.39528">
        <ele>1733</ele>
        <time>2023-08-09T12:20:58Z</time>
      </trkpt>
      <trkpt lat="42.77103" lon="1.39522">
        <ele>1733</ele>
        <time>2023-08-09T12:21:02Z</time>
      </trkpt>
      <trkpt lat="42.77106" lon="1.39517">
        <ele>1733</ele>
        <time>2023-08-09T12:21:06Z</time>
      </trkpt>
      <trkpt lat="42.77107" lon="1.39511">
        <ele>1733</ele>
        <time>2023-08-09T12:21:10Z</time>
      </trkpt>
      <trkpt lat="42.77111" lon="1.39497">
        <ele>1733</ele>
        <time>2023-08-09T12:21:21Z</time>
      </trkpt>
      <trkpt lat="42.77114" lon="1.39493">
        <ele>1733</ele>
        <time>2023-08-09T12:21:25Z</time>
      </trkpt>
      <trkpt lat="42.77116" lon="1.39487">
        <ele>1732</ele>
        <time>2023-08-09T12:21:30Z</time>
      </trkpt>
      <trkpt lat="42.77119" lon="1.39483">
        <ele>1732</ele>
        <time>2023-08-09T12:21:34Z</time>
      </trkpt>
      <trkpt lat="42.77124" lon="1.39455">
        <ele>1728</ele>
        <time>2023-08-09T12:21:54Z</time>
      </trkpt>
      <trkpt lat="42.77131" lon="1.3944">
        <ele>1727</ele>
        <time>2023-08-09T12:22:04Z</time>
      </trkpt>
      <trkpt lat="42.77133" lon="1.39435">
        <ele>1727</ele>
        <time>2023-08-09T12:22:07Z</time>
      </trkpt>
      <trkpt lat="42.77135" lon="1.3943">
        <ele>1726</ele>
        <time>2023-08-09T12:22:11Z</time>
      </trkpt>
      <trkpt lat="42.77139" lon="1.39419">
        <ele>1726</ele>
        <time>2023-08-09T12:22:18Z</time>
      </trkpt>
      <trkpt lat="42.77141" lon="1.39411">
        <ele>1725</ele>
        <time>2023-08-09T12:22:24Z</time>
      </trkpt>
      <trkpt lat="42.77147" lon="1.39394">
        <ele>1722</ele>
        <time>2023-08-09T12:22:36Z</time>
      </trkpt>
      <trkpt lat="42.77147" lon="1.39388">
        <ele>1721</ele>
        <time>2023-08-09T12:22:41Z</time>
      </trkpt>
      <trkpt lat="42.77152" lon="1.39368">
        <ele>1717</ele>
        <time>2023-08-09T12:22:56Z</time>
      </trkpt>
      <trkpt lat="42.77154" lon="1.39359">
        <ele>1717</ele>
        <time>2023-08-09T12:23:02Z</time>
      </trkpt>
      <trkpt lat="42.77164" lon="1.39333">
        <ele>1713</ele>
        <time>2023-08-09T12:23:22Z</time>
      </trkpt>
      <trkpt lat="42.77164" lon="1.39327">
        <ele>1713</ele>
        <time>2023-08-09T12:23:25Z</time>
      </trkpt>
      <trkpt lat="42.77167" lon="1.39321">
        <ele>1712</ele>
        <time>2023-08-09T12:23:29Z</time>
      </trkpt>
      <trkpt lat="42.77169" lon="1.39309">
        <ele>1711</ele>
        <time>2023-08-09T12:23:38Z</time>
      </trkpt>
      <trkpt lat="42.77169" lon="1.39303">
        <ele>1708</ele>
        <time>2023-08-09T12:23:52Z</time>
      </trkpt>
      <trkpt lat="42.77168" lon="1.39297">
        <ele>1707</ele>
        <time>2023-08-09T12:23:56Z</time>
      </trkpt>
      <trkpt lat="42.77173" lon="1.39282">
        <ele>1704</ele>
        <time>2023-08-09T12:24:07Z</time>
      </trkpt>
      <trkpt lat="42.77176" lon="1.39278">
        <ele>1704</ele>
        <time>2023-08-09T12:24:11Z</time>
      </trkpt>
      <trkpt lat="42.77178" lon="1.39273">
        <ele>1704</ele>
        <time>2023-08-09T12:24:16Z</time>
      </trkpt>
      <trkpt lat="42.77178" lon="1.39262">
        <ele>1704</ele>
        <time>2023-08-09T12:24:26Z</time>
      </trkpt>
      <trkpt lat="42.77182" lon="1.39258">
        <ele>1705</ele>
        <time>2023-08-09T12:24:34Z</time>
      </trkpt>
      <trkpt lat="42.77181" lon="1.39245">
        <ele>1704</ele>
        <time>2023-08-09T12:24:42Z</time>
      </trkpt>
      <trkpt lat="42.77183" lon="1.39238">
        <ele>1703</ele>
        <time>2023-08-09T12:24:47Z</time>
      </trkpt>
      <trkpt lat="42.77186" lon="1.39224">
        <ele>1703</ele>
        <time>2023-08-09T12:24:56Z</time>
      </trkpt>
      <trkpt lat="42.77187" lon="1.39219">
        <ele>1702</ele>
        <time>2023-08-09T12:24:59Z</time>
      </trkpt>
      <trkpt lat="42.77191" lon="1.39215">
        <ele>1702</ele>
        <time>2023-08-09T12:25:02Z</time>
      </trkpt>
      <trkpt lat="42.77192" lon="1.39208">
        <ele>1703</ele>
        <time>2023-08-09T12:25:06Z</time>
      </trkpt>
      <trkpt lat="42.77194" lon="1.39202">
        <ele>1702</ele>
        <time>2023-08-09T12:25:10Z</time>
      </trkpt>
      <trkpt lat="42.77197" lon="1.39198">
        <ele>1702</ele>
        <time>2023-08-09T12:25:14Z</time>
      </trkpt>
      <trkpt lat="42.772" lon="1.39191">
        <ele>1703</ele>
        <time>2023-08-09T12:25:18Z</time>
      </trkpt>
      <trkpt lat="42.77203" lon="1.39187">
        <ele>1703</ele>
        <time>2023-08-09T12:25:22Z</time>
      </trkpt>
      <trkpt lat="42.77206" lon="1.39184">
        <ele>1703</ele>
        <time>2023-08-09T12:25:26Z</time>
      </trkpt>
      <trkpt lat="42.77209" lon="1.39179">
        <ele>1701</ele>
        <time>2023-08-09T12:25:32Z</time>
      </trkpt>
      <trkpt lat="42.77213" lon="1.39173">
        <ele>1700</ele>
        <time>2023-08-09T12:25:38Z</time>
      </trkpt>
      <trkpt lat="42.77217" lon="1.39171">
        <ele>1700</ele>
        <time>2023-08-09T12:25:42Z</time>
      </trkpt>
      <trkpt lat="42.77221" lon="1.39167">
        <ele>1700</ele>
        <time>2023-08-09T12:25:45Z</time>
      </trkpt>
      <trkpt lat="42.77225" lon="1.39165">
        <ele>1700</ele>
        <time>2023-08-09T12:25:49Z</time>
      </trkpt>
      <trkpt lat="42.7723" lon="1.39158">
        <ele>1700</ele>
        <time>2023-08-09T12:25:59Z</time>
      </trkpt>
      <trkpt lat="42.77234" lon="1.39156">
        <ele>1699</ele>
        <time>2023-08-09T12:26:03Z</time>
      </trkpt>
      <trkpt lat="42.77239" lon="1.39151">
        <ele>1699</ele>
        <time>2023-08-09T12:26:07Z</time>
      </trkpt>
      <trkpt lat="42.77243" lon="1.39149">
        <ele>1699</ele>
        <time>2023-08-09T12:26:11Z</time>
      </trkpt>
      <trkpt lat="42.77247" lon="1.39145">
        <ele>1699</ele>
        <time>2023-08-09T12:26:15Z</time>
      </trkpt>
      <trkpt lat="42.77249" lon="1.39139">
        <ele>1699</ele>
        <time>2023-08-09T12:26:19Z</time>
      </trkpt>
      <trkpt lat="42.77253" lon="1.39135">
        <ele>1699</ele>
        <time>2023-08-09T12:26:23Z</time>
      </trkpt>
      <trkpt lat="42.77258" lon="1.39129">
        <ele>1698</ele>
        <time>2023-08-09T12:26:29Z</time>
      </trkpt>
      <trkpt lat="42.77261" lon="1.39126">
        <ele>1698</ele>
        <time>2023-08-09T12:26:34Z</time>
      </trkpt>
      <trkpt lat="42.77263" lon="1.3912">
        <ele>1698</ele>
        <time>2023-08-09T12:26:39Z</time>
      </trkpt>
      <trkpt lat="42.77268" lon="1.39107">
        <ele>1696</ele>
        <time>2023-08-09T12:26:50Z</time>
      </trkpt>
      <trkpt lat="42.7729" lon="1.39091">
        <ele>1695</ele>
        <time>2023-08-09T12:27:08Z</time>
      </trkpt>
      <trkpt lat="42.77295" lon="1.39092">
        <ele>1695</ele>
        <time>2023-08-09T12:27:12Z</time>
      </trkpt>
      <trkpt lat="42.77302" lon="1.39088">
        <ele>1693</ele>
        <time>2023-08-09T12:27:21Z</time>
      </trkpt>
      <trkpt lat="42.77306" lon="1.39089">
        <ele>1693</ele>
        <time>2023-08-09T12:27:25Z</time>
      </trkpt>
      <trkpt lat="42.7731" lon="1.39095">
        <ele>1690</ele>
        <time>2023-08-09T12:27:34Z</time>
      </trkpt>
      <trkpt lat="42.77314" lon="1.39091">
        <ele>1689</ele>
        <time>2023-08-09T12:27:39Z</time>
      </trkpt>
      <trkpt lat="42.77325" lon="1.39071">
        <ele>1684</ele>
        <time>2023-08-09T12:28:04Z</time>
      </trkpt>
      <trkpt lat="42.77332" lon="1.39066">
        <ele>1682</ele>
        <time>2023-08-09T12:28:15Z</time>
      </trkpt>
      <trkpt lat="42.77338" lon="1.39066">
        <ele>1681</ele>
        <time>2023-08-09T12:28:22Z</time>
      </trkpt>
      <trkpt lat="42.77344" lon="1.39064">
        <ele>1680</ele>
        <time>2023-08-09T12:28:29Z</time>
      </trkpt>
      <trkpt lat="42.77348" lon="1.39061">
        <ele>1679</ele>
        <time>2023-08-09T12:28:35Z</time>
      </trkpt>
      <trkpt lat="42.77362" lon="1.39037">
        <ele>1673</ele>
        <time>2023-08-09T12:28:59Z</time>
      </trkpt>
      <trkpt lat="42.77366" lon="1.39029">
        <ele>1672</ele>
        <time>2023-08-09T12:29:07Z</time>
      </trkpt>
      <trkpt lat="42.77376" lon="1.39025">
        <ele>1669</ele>
        <time>2023-08-09T12:29:17Z</time>
      </trkpt>
      <trkpt lat="42.77378" lon="1.39018">
        <ele>1668</ele>
        <time>2023-08-09T12:29:20Z</time>
      </trkpt>
      <trkpt lat="42.77386" lon="1.39012">
        <ele>1668</ele>
        <time>2023-08-09T12:29:28Z</time>
      </trkpt>
      <trkpt lat="42.77389" lon="1.39006">
        <ele>1668</ele>
        <time>2023-08-09T12:29:32Z</time>
      </trkpt>
      <trkpt lat="42.77393" lon="1.39006">
        <ele>1667</ele>
        <time>2023-08-09T12:29:36Z</time>
      </trkpt>
      <trkpt lat="42.77403" lon="1.38995">
        <ele>1665</ele>
        <time>2023-08-09T12:29:49Z</time>
      </trkpt>
      <trkpt lat="42.77406" lon="1.38985">
        <ele>1663</ele>
        <time>2023-08-09T12:29:59Z</time>
      </trkpt>
      <trkpt lat="42.77413" lon="1.38976">
        <ele>1660</ele>
        <time>2023-08-09T12:30:11Z</time>
      </trkpt>
      <trkpt lat="42.77417" lon="1.38975">
        <ele>1659</ele>
        <time>2023-08-09T12:30:15Z</time>
      </trkpt>
      <trkpt lat="42.77439" lon="1.38959">
        <ele>1655</ele>
        <time>2023-08-09T12:30:38Z</time>
      </trkpt>
      <trkpt lat="42.77443" lon="1.38959">
        <ele>1655</ele>
        <time>2023-08-09T12:30:42Z</time>
      </trkpt>
      <trkpt lat="42.77449" lon="1.38958">
        <ele>1654</ele>
        <time>2023-08-09T12:30:50Z</time>
      </trkpt>
      <trkpt lat="42.77458" lon="1.38954">
        <ele>1654</ele>
        <time>2023-08-09T12:31:02Z</time>
      </trkpt>
      <trkpt lat="42.7747" lon="1.3894">
        <ele>1649</ele>
        <time>2023-08-09T12:31:25Z</time>
      </trkpt>
      <trkpt lat="42.77475" lon="1.38938">
        <ele>1649</ele>
        <time>2023-08-09T12:31:32Z</time>
      </trkpt>
      <trkpt lat="42.77477" lon="1.38933">
        <ele>1648</ele>
        <time>2023-08-09T12:31:37Z</time>
      </trkpt>
      <trkpt lat="42.77481" lon="1.38936">
        <ele>1646</ele>
        <time>2023-08-09T12:31:51Z</time>
      </trkpt>
      <trkpt lat="42.77482" lon="1.38943">
        <ele>1644</ele>
        <time>2023-08-09T12:32:03Z</time>
      </trkpt>
      <trkpt lat="42.77483" lon="1.38944">
        <ele>1643</ele>
        <time>2023-08-09T12:33:03Z</time>
      </trkpt>
      <trkpt lat="42.77483" lon="1.3895">
        <ele>1643</ele>
        <time>2023-08-09T12:36:16Z</time>
      </trkpt>
      <trkpt lat="42.77485" lon="1.38958">
        <ele>1639</ele>
        <time>2023-08-09T12:37:28Z</time>
      </trkpt>
      <trkpt lat="42.77488" lon="1.38977">
        <ele>1635</ele>
        <time>2023-08-09T12:37:50Z</time>
      </trkpt>
      <trkpt lat="42.77485" lon="1.38996">
        <ele>1631</ele>
        <time>2023-08-09T12:38:11Z</time>
      </trkpt>
      <trkpt lat="42.77487" lon="1.39007">
        <ele>1629</ele>
        <time>2023-08-09T12:38:22Z</time>
      </trkpt>
      <trkpt lat="42.77487" lon="1.39013">
        <ele>1628</ele>
        <time>2023-08-09T12:38:29Z</time>
      </trkpt>
      <trkpt lat="42.77487" lon="1.39019">
        <ele>1628</ele>
        <time>2023-08-09T12:38:34Z</time>
      </trkpt>
      <trkpt lat="42.77493" lon="1.39027">
        <ele>1627</ele>
        <time>2023-08-09T12:38:46Z</time>
      </trkpt>
      <trkpt lat="42.77496" lon="1.39039">
        <ele>1625</ele>
        <time>2023-08-09T12:38:55Z</time>
      </trkpt>
      <trkpt lat="42.77506" lon="1.39049">
        <ele>1621</ele>
        <time>2023-08-09T12:39:14Z</time>
      </trkpt>
      <trkpt lat="42.77509" lon="1.39057">
        <ele>1620</ele>
        <time>2023-08-09T12:39:22Z</time>
      </trkpt>
      <trkpt lat="42.7751" lon="1.39071">
        <ele>1617</ele>
        <time>2023-08-09T12:39:32Z</time>
      </trkpt>
      <trkpt lat="42.77516" lon="1.39079">
        <ele>1615</ele>
        <time>2023-08-09T12:39:42Z</time>
      </trkpt>
      <trkpt lat="42.77517" lon="1.39084">
        <ele>1614</ele>
        <time>2023-08-09T12:39:45Z</time>
      </trkpt>
      <trkpt lat="42.77518" lon="1.39097">
        <ele>1613</ele>
        <time>2023-08-09T12:39:56Z</time>
      </trkpt>
      <trkpt lat="42.7752" lon="1.39104">
        <ele>1612</ele>
        <time>2023-08-09T12:40:03Z</time>
      </trkpt>
      <trkpt lat="42.77521" lon="1.39118">
        <ele>1609</ele>
        <time>2023-08-09T12:40:17Z</time>
      </trkpt>
      <trkpt lat="42.77523" lon="1.39128">
        <ele>1607</ele>
        <time>2023-08-09T12:40:28Z</time>
      </trkpt>
      <trkpt lat="42.77531" lon="1.3914">
        <ele>1603</ele>
        <time>2023-08-09T12:40:46Z</time>
      </trkpt>
      <trkpt lat="42.77531" lon="1.39147">
        <ele>1601</ele>
        <time>2023-08-09T12:40:54Z</time>
      </trkpt>
      <trkpt lat="42.77533" lon="1.39153">
        <ele>1600</ele>
        <time>2023-08-09T12:40:59Z</time>
      </trkpt>
      <trkpt lat="42.77548" lon="1.39163">
        <ele>1598</ele>
        <time>2023-08-09T12:41:19Z</time>
      </trkpt>
      <trkpt lat="42.77551" lon="1.39168">
        <ele>1598</ele>
        <time>2023-08-09T12:41:37Z</time>
      </trkpt>
      <trkpt lat="42.77555" lon="1.39176">
        <ele>1598</ele>
        <time>2023-08-09T12:41:55Z</time>
      </trkpt>
      <trkpt lat="42.77574" lon="1.39174">
        <ele>1598</ele>
        <time>2023-08-09T12:42:27Z</time>
      </trkpt>
      <trkpt lat="42.77578" lon="1.39176">
        <ele>1597</ele>
        <time>2023-08-09T12:42:31Z</time>
      </trkpt>
      <trkpt lat="42.77594" lon="1.39178">
        <ele>1597</ele>
        <time>2023-08-09T12:42:46Z</time>
      </trkpt>
      <trkpt lat="42.77599" lon="1.39181">
        <ele>1596</ele>
        <time>2023-08-09T12:42:50Z</time>
      </trkpt>
      <trkpt lat="42.77603" lon="1.39187">
        <ele>1595</ele>
        <time>2023-08-09T12:42:56Z</time>
      </trkpt>
      <trkpt lat="42.77605" lon="1.39194">
        <ele>1594</ele>
        <time>2023-08-09T12:43:01Z</time>
      </trkpt>
      <trkpt lat="42.77608" lon="1.39202">
        <ele>1592</ele>
        <time>2023-08-09T12:43:08Z</time>
      </trkpt>
      <trkpt lat="42.7761" lon="1.39209">
        <ele>1590</ele>
        <time>2023-08-09T12:43:16Z</time>
      </trkpt>
      <trkpt lat="42.77615" lon="1.39221">
        <ele>1589</ele>
        <time>2023-08-09T12:43:24Z</time>
      </trkpt>
      <trkpt lat="42.77618" lon="1.39225">
        <ele>1588</ele>
        <time>2023-08-09T12:43:28Z</time>
      </trkpt>
      <trkpt lat="42.77622" lon="1.39221">
        <ele>1588</ele>
        <time>2023-08-09T12:43:37Z</time>
      </trkpt>
      <trkpt lat="42.77631" lon="1.39218">
        <ele>1586</ele>
        <time>2023-08-09T12:43:46Z</time>
      </trkpt>
      <trkpt lat="42.77636" lon="1.3922">
        <ele>1586</ele>
        <time>2023-08-09T12:43:49Z</time>
      </trkpt>
      <trkpt lat="42.7764" lon="1.39215">
        <ele>1586</ele>
        <time>2023-08-09T12:43:53Z</time>
      </trkpt>
      <trkpt lat="42.77643" lon="1.39218">
        <ele>1585</ele>
        <time>2023-08-09T12:43:58Z</time>
      </trkpt>
      <trkpt lat="42.77654" lon="1.39212">
        <ele>1585</ele>
        <time>2023-08-09T12:44:06Z</time>
      </trkpt>
      <trkpt lat="42.77659" lon="1.39211">
        <ele>1585</ele>
        <time>2023-08-09T12:44:10Z</time>
      </trkpt>
      <trkpt lat="42.77665" lon="1.39209">
        <ele>1585</ele>
        <time>2023-08-09T12:44:13Z</time>
      </trkpt>
      <trkpt lat="42.7767" lon="1.39209">
        <ele>1584</ele>
        <time>2023-08-09T12:44:17Z</time>
      </trkpt>
      <trkpt lat="42.77678" lon="1.39205">
        <ele>1583</ele>
        <time>2023-08-09T12:44:23Z</time>
      </trkpt>
      <trkpt lat="42.77682" lon="1.39202">
        <ele>1583</ele>
        <time>2023-08-09T12:44:26Z</time>
      </trkpt>
      <trkpt lat="42.77684" lon="1.39197">
        <ele>1582</ele>
        <time>2023-08-09T12:44:30Z</time>
      </trkpt>
      <trkpt lat="42.77699" lon="1.39185">
        <ele>1580</ele>
        <time>2023-08-09T12:44:54Z</time>
      </trkpt>
      <trkpt lat="42.77704" lon="1.39182">
        <ele>1580</ele>
        <time>2023-08-09T12:45:00Z</time>
      </trkpt>
      <trkpt lat="42.77707" lon="1.39177">
        <ele>1580</ele>
        <time>2023-08-09T12:45:04Z</time>
      </trkpt>
      <trkpt lat="42.77711" lon="1.39172">
        <ele>1579</ele>
        <time>2023-08-09T12:45:09Z</time>
      </trkpt>
      <trkpt lat="42.77715" lon="1.39161">
        <ele>1578</ele>
        <time>2023-08-09T12:45:17Z</time>
      </trkpt>
      <trkpt lat="42.77729" lon="1.39143">
        <ele>1575</ele>
        <time>2023-08-09T12:45:36Z</time>
      </trkpt>
      <trkpt lat="42.77733" lon="1.39141">
        <ele>1574</ele>
        <time>2023-08-09T12:45:40Z</time>
      </trkpt>
      <trkpt lat="42.77738" lon="1.39134">
        <ele>1573</ele>
        <time>2023-08-09T12:45:47Z</time>
      </trkpt>
      <trkpt lat="42.77741" lon="1.39123">
        <ele>1571</ele>
        <time>2023-08-09T12:45:56Z</time>
      </trkpt>
      <trkpt lat="42.77743" lon="1.39117">
        <ele>1570</ele>
        <time>2023-08-09T12:46:00Z</time>
      </trkpt>
      <trkpt lat="42.77745" lon="1.39112">
        <ele>1570</ele>
        <time>2023-08-09T12:46:04Z</time>
      </trkpt>
      <trkpt lat="42.77748" lon="1.39098">
        <ele>1569</ele>
        <time>2023-08-09T12:46:12Z</time>
      </trkpt>
      <trkpt lat="42.77748" lon="1.39089">
        <ele>1568</ele>
        <time>2023-08-09T12:46:20Z</time>
      </trkpt>
      <trkpt lat="42.77751" lon="1.39084">
        <ele>1567</ele>
        <time>2023-08-09T12:46:24Z</time>
      </trkpt>
      <trkpt lat="42.77749" lon="1.39074">
        <ele>1565</ele>
        <time>2023-08-09T12:46:33Z</time>
      </trkpt>
      <trkpt lat="42.77751" lon="1.39059">
        <ele>1563</ele>
        <time>2023-08-09T12:46:43Z</time>
      </trkpt>
      <trkpt lat="42.77752" lon="1.39053">
        <ele>1563</ele>
        <time>2023-08-09T12:46:46Z</time>
      </trkpt>
      <trkpt lat="42.77751" lon="1.39048">
        <ele>1562</ele>
        <time>2023-08-09T12:46:50Z</time>
      </trkpt>
      <trkpt lat="42.7775" lon="1.39042">
        <ele>1562</ele>
        <time>2023-08-09T12:46:53Z</time>
      </trkpt>
      <trkpt lat="42.77751" lon="1.39034">
        <ele>1561</ele>
        <time>2023-08-09T12:47:00Z</time>
      </trkpt>
      <trkpt lat="42.7775" lon="1.39028">
        <ele>1560</ele>
        <time>2023-08-09T12:47:05Z</time>
      </trkpt>
      <trkpt lat="42.77749" lon="1.3902">
        <ele>1558</ele>
        <time>2023-08-09T12:47:15Z</time>
      </trkpt>
      <trkpt lat="42.77749" lon="1.38994">
        <ele>1554</ele>
        <time>2023-08-09T12:47:36Z</time>
      </trkpt>
      <trkpt lat="42.7775" lon="1.38988">
        <ele>1554</ele>
        <time>2023-08-09T12:47:40Z</time>
      </trkpt>
      <trkpt lat="42.7775" lon="1.38982">
        <ele>1553</ele>
        <time>2023-08-09T12:47:43Z</time>
      </trkpt>
      <trkpt lat="42.77752" lon="1.38975">
        <ele>1552</ele>
        <time>2023-08-09T12:47:47Z</time>
      </trkpt>
      <trkpt lat="42.77755" lon="1.38972">
        <ele>1552</ele>
        <time>2023-08-09T12:47:50Z</time>
      </trkpt>
      <trkpt lat="42.77759" lon="1.38966">
        <ele>1551</ele>
        <time>2023-08-09T12:47:55Z</time>
      </trkpt>
      <trkpt lat="42.77762" lon="1.38963">
        <ele>1550</ele>
        <time>2023-08-09T12:47:59Z</time>
      </trkpt>
      <trkpt lat="42.77765" lon="1.38958">
        <ele>1549</ele>
        <time>2023-08-09T12:48:03Z</time>
      </trkpt>
      <trkpt lat="42.77761" lon="1.38953">
        <ele>1546</ele>
        <time>2023-08-09T12:48:18Z</time>
      </trkpt>
      <trkpt lat="42.77769" lon="1.38939">
        <ele>1542</ele>
        <time>2023-08-09T12:48:32Z</time>
      </trkpt>
      <trkpt lat="42.7778" lon="1.38927">
        <ele>1538</ele>
        <time>2023-08-09T12:48:45Z</time>
      </trkpt>
      <trkpt lat="42.77785" lon="1.38919">
        <ele>1535</ele>
        <time>2023-08-09T12:48:53Z</time>
      </trkpt>
      <trkpt lat="42.77791" lon="1.38909">
        <ele>1533</ele>
        <time>2023-08-09T12:49:01Z</time>
      </trkpt>
      <trkpt lat="42.77827" lon="1.38897">
        <ele>1525</ele>
        <time>2023-08-09T12:49:34Z</time>
      </trkpt>
      <trkpt lat="42.77834" lon="1.38898">
        <ele>1523</ele>
        <time>2023-08-09T12:49:42Z</time>
      </trkpt>
      <trkpt lat="42.77843" lon="1.38907">
        <ele>1520</ele>
        <time>2023-08-09T12:49:54Z</time>
      </trkpt>
      <trkpt lat="42.77856" lon="1.38912">
        <ele>1518</ele>
        <time>2023-08-09T12:50:06Z</time>
      </trkpt>
      <trkpt lat="42.7786" lon="1.38915">
        <ele>1517</ele>
        <time>2023-08-09T12:50:10Z</time>
      </trkpt>
      <trkpt lat="42.77865" lon="1.38918">
        <ele>1516</ele>
        <time>2023-08-09T12:50:14Z</time>
      </trkpt>
      <trkpt lat="42.77888" lon="1.38959">
        <ele>1510</ele>
        <time>2023-08-09T12:50:43Z</time>
      </trkpt>
      <trkpt lat="42.7789" lon="1.38967">
        <ele>1509</ele>
        <time>2023-08-09T12:50:47Z</time>
      </trkpt>
      <trkpt lat="42.77891" lon="1.38974">
        <ele>1508</ele>
        <time>2023-08-09T12:50:51Z</time>
      </trkpt>
      <trkpt lat="42.77894" lon="1.38979">
        <ele>1507</ele>
        <time>2023-08-09T12:50:55Z</time>
      </trkpt>
      <trkpt lat="42.77903" lon="1.38984">
        <ele>1503</ele>
        <time>2023-08-09T12:51:05Z</time>
      </trkpt>
      <trkpt lat="42.77913" lon="1.38987">
        <ele>1501</ele>
        <time>2023-08-09T12:51:16Z</time>
      </trkpt>
      <trkpt lat="42.77917" lon="1.38985">
        <ele>1499</ele>
        <time>2023-08-09T12:51:26Z</time>
      </trkpt>
      <trkpt lat="42.77922" lon="1.38998">
        <ele>1496</ele>
        <time>2023-08-09T12:51:41Z</time>
      </trkpt>
      <trkpt lat="42.77925" lon="1.39004">
        <ele>1495</ele>
        <time>2023-08-09T12:51:45Z</time>
      </trkpt>
      <trkpt lat="42.77926" lon="1.39018">
        <ele>1494</ele>
        <time>2023-08-09T12:51:52Z</time>
      </trkpt>
      <trkpt lat="42.77932" lon="1.39021">
        <ele>1492</ele>
        <time>2023-08-09T12:52:00Z</time>
      </trkpt>
      <trkpt lat="42.77934" lon="1.39029">
        <ele>1491</ele>
        <time>2023-08-09T12:52:05Z</time>
      </trkpt>
      <trkpt lat="42.77936" lon="1.39034">
        <ele>1491</ele>
        <time>2023-08-09T12:52:09Z</time>
      </trkpt>
      <trkpt lat="42.77949" lon="1.39044">
        <ele>1488</ele>
        <time>2023-08-09T12:52:23Z</time>
      </trkpt>
      <trkpt lat="42.7795" lon="1.39049">
        <ele>1487</ele>
        <time>2023-08-09T12:52:26Z</time>
      </trkpt>
      <trkpt lat="42.77955" lon="1.39047">
        <ele>1486</ele>
        <time>2023-08-09T12:52:31Z</time>
      </trkpt>
      <trkpt lat="42.77958" lon="1.39052">
        <ele>1484</ele>
        <time>2023-08-09T12:52:36Z</time>
      </trkpt>
      <trkpt lat="42.7796" lon="1.39058">
        <ele>1484</ele>
        <time>2023-08-09T12:52:40Z</time>
      </trkpt>
      <trkpt lat="42.77967" lon="1.39065">
        <ele>1481</ele>
        <time>2023-08-09T12:52:47Z</time>
      </trkpt>
      <trkpt lat="42.77969" lon="1.3907">
        <ele>1480</ele>
        <time>2023-08-09T12:52:51Z</time>
      </trkpt>
      <trkpt lat="42.77979" lon="1.39068">
        <ele>1479</ele>
        <time>2023-08-09T12:52:58Z</time>
      </trkpt>
      <trkpt lat="42.7799" lon="1.39059">
        <ele>1477</ele>
        <time>2023-08-09T12:53:08Z</time>
      </trkpt>
      <trkpt lat="42.77998" lon="1.39055">
        <ele>1475</ele>
        <time>2023-08-09T12:53:16Z</time>
      </trkpt>
      <trkpt lat="42.78002" lon="1.3905">
        <ele>1474</ele>
        <time>2023-08-09T12:53:20Z</time>
      </trkpt>
      <trkpt lat="42.78007" lon="1.39048">
        <ele>1473</ele>
        <time>2023-08-09T12:53:24Z</time>
      </trkpt>
      <trkpt lat="42.78028" lon="1.39021">
        <ele>1468</ele>
        <time>2023-08-09T12:53:48Z</time>
      </trkpt>
      <trkpt lat="42.78033" lon="1.39019">
        <ele>1467</ele>
        <time>2023-08-09T12:53:52Z</time>
      </trkpt>
      <trkpt lat="42.78043" lon="1.39015">
        <ele>1467</ele>
        <time>2023-08-09T12:54:04Z</time>
      </trkpt>
      <trkpt lat="42.78048" lon="1.39018">
        <ele>1466</ele>
        <time>2023-08-09T12:54:10Z</time>
      </trkpt>
      <trkpt lat="42.78051" lon="1.39024">
        <ele>1465</ele>
        <time>2023-08-09T12:54:14Z</time>
      </trkpt>
      <trkpt lat="42.78051" lon="1.39031">
        <ele>1465</ele>
        <time>2023-08-09T12:54:18Z</time>
      </trkpt>
      <trkpt lat="42.78049" lon="1.39036">
        <ele>1465</ele>
        <time>2023-08-09T12:54:23Z</time>
      </trkpt>
      <trkpt lat="42.78054" lon="1.39035">
        <ele>1465</ele>
        <time>2023-08-09T12:54:34Z</time>
      </trkpt>
      <trkpt lat="42.78057" lon="1.39031">
        <ele>1465</ele>
        <time>2023-08-09T12:54:39Z</time>
      </trkpt>
      <trkpt lat="42.78075" lon="1.39019">
        <ele>1461</ele>
        <time>2023-08-09T12:55:04Z</time>
      </trkpt>
      <trkpt lat="42.78078" lon="1.39012">
        <ele>1459</ele>
        <time>2023-08-09T12:55:14Z</time>
      </trkpt>
      <trkpt lat="42.78089" lon="1.39003">
        <ele>1455</ele>
        <time>2023-08-09T12:55:33Z</time>
      </trkpt>
      <trkpt lat="42.78092" lon="1.38997">
        <ele>1454</ele>
        <time>2023-08-09T12:55:38Z</time>
      </trkpt>
      <trkpt lat="42.78096" lon="1.38993">
        <ele>1452</ele>
        <time>2023-08-09T12:55:42Z</time>
      </trkpt>
      <trkpt lat="42.78098" lon="1.38987">
        <ele>1452</ele>
        <time>2023-08-09T12:55:45Z</time>
      </trkpt>
      <trkpt lat="42.78101" lon="1.38982">
        <ele>1451</ele>
        <time>2023-08-09T12:55:49Z</time>
      </trkpt>
      <trkpt lat="42.7811" lon="1.38976">
        <ele>1449</ele>
        <time>2023-08-09T12:55:57Z</time>
      </trkpt>
      <trkpt lat="42.78115" lon="1.38974">
        <ele>1449</ele>
        <time>2023-08-09T12:56:00Z</time>
      </trkpt>
      <trkpt lat="42.78128" lon="1.38961">
        <ele>1447</ele>
        <time>2023-08-09T12:56:13Z</time>
      </trkpt>
      <trkpt lat="42.78131" lon="1.38956">
        <ele>1447</ele>
        <time>2023-08-09T12:56:17Z</time>
      </trkpt>
      <trkpt lat="42.78135" lon="1.38951">
        <ele>1446</ele>
        <time>2023-08-09T12:56:21Z</time>
      </trkpt>
      <trkpt lat="42.7814" lon="1.38948">
        <ele>1446</ele>
        <time>2023-08-09T12:56:25Z</time>
      </trkpt>
      <trkpt lat="42.78143" lon="1.38945">
        <ele>1445</ele>
        <time>2023-08-09T12:56:29Z</time>
      </trkpt>
      <trkpt lat="42.78151" lon="1.3894">
        <ele>1444</ele>
        <time>2023-08-09T12:56:36Z</time>
      </trkpt>
      <trkpt lat="42.78158" lon="1.38931">
        <ele>1443</ele>
        <time>2023-08-09T12:56:44Z</time>
      </trkpt>
      <trkpt lat="42.78162" lon="1.38929">
        <ele>1442</ele>
        <time>2023-08-09T12:56:48Z</time>
      </trkpt>
      <trkpt lat="42.78166" lon="1.38924">
        <ele>1442</ele>
        <time>2023-08-09T12:56:52Z</time>
      </trkpt>
      <trkpt lat="42.78172" lon="1.38915">
        <ele>1441</ele>
        <time>2023-08-09T12:56:59Z</time>
      </trkpt>
      <trkpt lat="42.78181" lon="1.38907">
        <ele>1440</ele>
        <time>2023-08-09T12:57:07Z</time>
      </trkpt>
      <trkpt lat="42.78184" lon="1.38903">
        <ele>1439</ele>
        <time>2023-08-09T12:57:11Z</time>
      </trkpt>
      <trkpt lat="42.78185" lon="1.38896">
        <ele>1439</ele>
        <time>2023-08-09T12:57:15Z</time>
      </trkpt>
      <trkpt lat="42.78203" lon="1.38887">
        <ele>1437</ele>
        <time>2023-08-09T12:57:32Z</time>
      </trkpt>
      <trkpt lat="42.78204" lon="1.38878">
        <ele>1436</ele>
        <time>2023-08-09T12:57:38Z</time>
      </trkpt>
      <trkpt lat="42.78207" lon="1.38866">
        <ele>1435</ele>
        <time>2023-08-09T12:57:47Z</time>
      </trkpt>
      <trkpt lat="42.78212" lon="1.38856">
        <ele>1434</ele>
        <time>2023-08-09T12:57:55Z</time>
      </trkpt>
      <trkpt lat="42.78213" lon="1.3885">
        <ele>1434</ele>
        <time>2023-08-09T12:57:58Z</time>
      </trkpt>
      <trkpt lat="42.78216" lon="1.38847">
        <ele>1434</ele>
        <time>2023-08-09T12:58:01Z</time>
      </trkpt>
      <trkpt lat="42.78219" lon="1.38842">
        <ele>1433</ele>
        <time>2023-08-09T12:58:04Z</time>
      </trkpt>
      <trkpt lat="42.78228" lon="1.38838">
        <ele>1432</ele>
        <time>2023-08-09T12:58:12Z</time>
      </trkpt>
      <trkpt lat="42.78233" lon="1.38838">
        <ele>1432</ele>
        <time>2023-08-09T12:58:16Z</time>
      </trkpt>
      <trkpt lat="42.78241" lon="1.38833">
        <ele>1431</ele>
        <time>2023-08-09T12:58:24Z</time>
      </trkpt>
      <trkpt lat="42.78251" lon="1.38832">
        <ele>1429</ele>
        <time>2023-08-09T12:58:32Z</time>
      </trkpt>
      <trkpt lat="42.78267" lon="1.38823">
        <ele>1427</ele>
        <time>2023-08-09T12:58:53Z</time>
      </trkpt>
      <trkpt lat="42.78272" lon="1.38821">
        <ele>1426</ele>
        <time>2023-08-09T12:58:58Z</time>
      </trkpt>
      <trkpt lat="42.78276" lon="1.38816">
        <ele>1425</ele>
        <time>2023-08-09T12:59:03Z</time>
      </trkpt>
      <trkpt lat="42.78277" lon="1.38809">
        <ele>1424</ele>
        <time>2023-08-09T12:59:10Z</time>
      </trkpt>
      <trkpt lat="42.78281" lon="1.38803">
        <ele>1423</ele>
        <time>2023-08-09T12:59:17Z</time>
      </trkpt>
      <trkpt lat="42.7829" lon="1.38777">
        <ele>1420</ele>
        <time>2023-08-09T12:59:35Z</time>
      </trkpt>
      <trkpt lat="42.7829" lon="1.38771">
        <ele>1418</ele>
        <time>2023-08-09T12:59:40Z</time>
      </trkpt>
      <trkpt lat="42.78297" lon="1.3875">
        <ele>1416</ele>
        <time>2023-08-09T12:59:59Z</time>
      </trkpt>
      <trkpt lat="42.78298" lon="1.38743">
        <ele>1415</ele>
        <time>2023-08-09T13:00:03Z</time>
      </trkpt>
      <trkpt lat="42.78301" lon="1.38737">
        <ele>1415</ele>
        <time>2023-08-09T13:00:09Z</time>
      </trkpt>
      <trkpt lat="42.78302" lon="1.38731">
        <ele>1414</ele>
        <time>2023-08-09T13:00:12Z</time>
      </trkpt>
      <trkpt lat="42.78301" lon="1.38725">
        <ele>1414</ele>
        <time>2023-08-09T13:00:16Z</time>
      </trkpt>
      <trkpt lat="42.78301" lon="1.38702">
        <ele>1411</ele>
        <time>2023-08-09T13:00:43Z</time>
      </trkpt>
      <trkpt lat="42.78302" lon="1.38683">
        <ele>1411</ele>
        <time>2023-08-09T13:00:52Z</time>
      </trkpt>
    </trkseg>
  </trk>
</gpx>